[[{"header":{"parameterUnit":"m.s-1","parameterCategory":1,"la1":30.6,"la2":29.2853,"lo1":-89.7004,"lo2":-87.6739,"dy":0.0162,"dx":0.0183,"nx":112,"ny":82,"refTime":"2024-04-07T00:00:00:Z","depth":0,"parameterNumber":2,"parameterNumberName":"U-component_of_WINDS"},"data":[0.0,0.0,0.0,0.0,0.0,0.0,0.0,0.0,0.0,0.0,0.0,0.0,0.0,0.0,0.0,0.0,0.0,0.0,0.0,0.0,0.0,0.0,0.0,0.0,0.0,0.0,0.0,0.0,0.0,0.0,0.0,0.0,0.0,0.0,0.0,0.0,0.0,0.0,0.0,0.0,0.0,0.0,0.0,0.0,0.0,0.0,0.0,0.0,0.0,0.0,0.0,0.0,0.0,0.0,0.0,0.0,0.0,0.0,0.0,0.0,0.0,0.0,0.0,0.0,0.0,0.0,0.0,0.0,0.0,0.0,0.0,0.0,0.0,0.0,0.0,0.0,0.0,0.0,0.0,0.0,0.0,0.0,0.0,0.0,0.0,0.0,0.0,0.0,0.0,0.0,-1.4937,-1.5061,-1.5704,-1.6461,-1.7036,-1.635,-1.5903,-1.6044,0.0,0.0,0.0,0.0,0.0,0.0,0.0,0.0,0.0,0.0,0.0,0.0,0.0,0.0,0.0,0.0,0.0,0.0,0.0,0.0,0.0,0.0,0.0,0.0,0.0,0.0,0.0,0.0,0.0,0.0,0.0,0.0,0.0,0.0,0.0,0.0,0.0,0.0,0.0,0.0,0.0,0.0,0.0,0.0,0.0,0.0,0.0,0.0,0.0,0.0,0.0,0.0,0.0,0.0,0.0,0.0,0.0,0.0,0.0,0.0,0.0,0.0,0.0,0.0,0.0,0.0,0.0,0.0,0.0,0.0,0.0,0.0,0.0,0.0,0.0,0.0,0.0,0.0,0.0,0.0,0.0,0.0,0.0,0.0,0.0,0.0,0.0,0.0,0.0,0.0,0.0,0.0,0.0,0.0,0.0,0.0,0.0,0.0,0.0,0.0,0.0,0.0,0.0,0.0,-1.4253,-1.6131,-1.6685,-1.7059,-1.7412,-1.7483,-1.7071,-1.5581,0.0,0.0,0.0,0.0,0.0,0.0,0.0,0.0,0.0,0.0,0.0,0.0,0.0,0.0,0.0,0.0,0.0,0.0,0.0,0.0,0.0,0.0,0.0,0.0,0.0,0.0,0.0,0.0,0.0,0.0,0.0,0.0,0.0,0.0,0.0,0.0,0.0,0.0,0.0,0.0,0.0,0.0,0.0,0.0,0.0,0.0,0.0,0.0,0.0,0.0,0.0,0.0,0.0,0.0,0.0,0.0,0.0,0.0,0.0,0.0,0.0,0.0,0.0,0.0,0.0,0.0,0.0,0.0,0.0,0.0,0.0,0.0,0.0,0.0,0.0,0.0,0.0,0.0,0.0,0.0,0.0,0.0,0.0,0.0,0.0,0.0,0.0,0.0,0.0,0.0,0.0,0.0,0.0,0.0,0.0,0.0,0.0,0.0,0.0,0.0,0.0,0.0,0.0,-1.4077,-1.4403,-1.5662,-1.6041,-1.6089,-1.6045,-1.5958,-1.5635,-1.4641,-1.3728,0.0,0.0,0.0,0.0,0.0,0.0,0.0,0.0,0.0,0.0,0.0,0.0,0.0,0.0,0.0,0.0,0.0,0.0,0.0,0.0,0.0,0.0,0.0,0.0,0.0,0.0,0.0,0.0,0.0,0.0,0.0,0.0,0.0,0.0,0.0,0.0,0.0,0.0,0.0,0.0,0.0,0.0,0.0,0.0,0.0,0.0,0.0,0.0,0.0,0.0,0.0,0.0,0.0,0.0,0.0,0.0,0.0,0.0,0.0,0.0,0.0,0.0,0.0,0.0,0.0,0.0,0.0,0.0,0.0,0.0,0.0,0.0,0.0,0.0,0.0,0.0,0.0,0.0,0.0,0.0,0.0,0.0,0.0,0.0,0.0,0.0,0.0,0.0,0.0,0.0,0.0,0.0,0.0,0.0,0.0,0.0,0.0,0.0,0.0,0.0,0.0,0.0,-1.4244,-1.429,-1.4855,-1.5106,-1.5329,-1.5301,-1.4736,-1.4229,-1.4,-1.3162,0.0,0.0,0.0,0.0,0.0,0.0,0.0,0.0,0.0,0.0,0.0,0.0,0.0,0.0,0.0,0.0,0.0,0.0,0.0,0.0,0.0,0.0,0.0,0.0,0.0,0.0,0.0,0.0,0.0,0.0,0.0,0.0,0.0,0.0,0.0,0.0,0.0,0.0,0.0,0.0,0.0,0.0,0.0,0.0,0.0,0.0,0.0,0.0,0.0,0.0,0.0,0.0,0.0,0.0,0.0,0.0,0.0,0.0,0.0,0.0,0.0,0.0,0.0,0.0,0.0,0.0,0.0,0.0,0.0,0.0,0.0,0.0,0.0,0.0,0.0,0.0,0.0,0.0,0.0,0.0,0.0,0.0,0.0,0.0,0.0,0.0,0.0,0.0,0.0,0.0,0.0,0.0,0.0,0.0,0.0,0.0,0.0,0.0,0.0,0.0,0.0,0.0,-1.2655,-1.3533,-1.4586,-1.4646,-1.5005,-1.588,-1.5398,-1.5026,-1.4317,-1.3413,0.0,0.0,0.0,0.0,0.0,0.0,0.0,0.0,0.0,0.0,0.0,0.0,0.0,0.0,0.0,0.0,0.0,0.0,0.0,0.0,0.0,0.0,0.0,0.0,0.0,0.0,0.0,0.0,0.0,0.0,0.0,0.0,0.0,0.0,0.0,0.0,0.0,0.0,0.0,0.0,0.0,0.0,0.0,0.0,0.0,0.0,0.0,0.0,0.0,0.0,0.0,0.0,0.0,0.0,0.0,0.0,0.0,0.0,0.0,0.0,0.0,0.0,0.0,0.0,0.0,0.0,0.0,0.0,0.0,0.0,0.0,0.0,0.0,0.0,0.0,0.0,0.0,0.0,0.0,0.0,0.0,0.0,0.0,0.0,0.0,0.0,0.0,0.0,0.0,0.0,0.0,0.0,0.0,0.0,0.0,0.0,0.0,0.0,0.0,0.0,0.0,0.0,-1.2624,-1.3037,-1.3578,-1.4449,-1.488,-1.4575,-1.482,-1.4463,-1.3365,0.0,0.0,0.0,0.0,0.0,0.0,0.0,0.0,0.0,0.0,0.0,0.0,0.0,0.0,0.0,0.0,0.0,0.0,0.0,0.0,0.0,0.0,0.0,0.0,0.0,0.0,0.0,0.0,0.0,0.0,0.0,0.0,0.0,0.0,0.0,0.0,0.0,0.0,0.0,0.0,0.0,0.0,0.0,0.0,0.0,0.0,0.0,0.0,0.0,0.0,0.0,0.0,0.0,0.0,0.0,0.0,0.0,0.0,0.0,0.0,0.0,0.0,0.0,0.0,0.0,0.0,0.0,0.0,0.0,0.0,0.0,0.0,0.0,0.0,0.0,0.0,0.0,0.0,0.0,0.0,0.0,0.0,0.0,0.0,0.0,0.0,0.0,0.0,0.0,0.0,0.0,0.0,0.0,0.0,0.0,0.0,0.0,0.0,0.0,0.0,0.0,0.0,-1.1828,-1.2176,-1.2358,-1.2548,-1.3675,-1.4123,-1.3797,-1.3829,-1.369,-1.2776,0.0,0.0,0.0,0.0,0.0,0.0,0.0,0.0,0.0,0.0,0.0,0.0,0.0,0.0,0.0,0.0,0.0,0.0,0.0,0.0,0.0,0.0,0.0,0.0,0.0,0.0,0.0,0.0,0.0,0.0,0.0,0.0,0.0,0.0,0.0,0.0,0.0,0.0,0.0,0.0,0.0,0.0,0.0,0.0,0.0,0.0,0.0,0.0,0.0,0.0,0.0,0.0,0.0,0.0,0.0,0.0,0.0,0.0,0.0,0.0,0.0,0.0,0.0,0.0,0.0,0.0,0.0,0.0,0.0,0.0,0.0,0.0,0.0,0.0,0.0,0.0,0.0,0.0,0.0,0.0,0.0,0.0,0.0,0.0,0.0,0.0,0.0,0.0,0.0,0.0,0.0,0.0,0.0,0.0,0.0,0.0,0.0,0.0,0.0,0.0,0.0,0.0,-1.0379,-1.0903,-1.1524,-1.2236,-1.2315,-1.2722,-1.3563,-1.3257,-1.2854,0.0,0.0,0.0,0.0,0.0,0.0,0.0,0.0,0.0,0.0,0.0,0.0,0.0,0.0,0.0,0.0,0.0,0.0,0.0,0.0,0.0,0.0,0.0,0.0,0.0,0.0,0.0,0.0,0.0,0.0,0.0,0.0,0.0,0.0,0.0,0.0,0.0,0.0,0.0,0.0,0.0,0.0,0.0,0.0,0.0,0.0,0.0,0.0,0.0,0.0,0.0,0.0,0.0,0.0,0.0,0.0,0.0,0.0,0.0,0.0,0.0,0.0,0.0,0.0,0.0,0.0,0.0,0.0,0.0,0.0,0.0,0.0,0.0,0.0,0.0,0.0,0.0,0.0,0.0,0.0,0.0,0.0,0.0,0.0,0.0,0.0,0.0,0.0,0.0,0.0,0.0,0.0,0.0,0.0,0.0,0.0,0.0,0.0,0.0,0.0,0.0,0.0,0.0,-1.0648,-1.1074,-1.1457,-1.1891,-1.2366,-1.2704,-1.2631,-1.3177,-1.294,-1.2066,0.0,0.0,0.0,0.0,0.0,0.0,0.0,0.0,0.0,0.0,0.0,0.0,0.0,0.0,0.0,0.0,0.0,0.0,0.0,0.0,0.0,0.0,0.0,0.0,0.0,0.0,0.0,0.0,0.0,0.0,0.0,0.0,0.0,0.0,0.0,0.0,0.0,0.0,0.0,0.0,0.0,0.0,0.0,0.0,0.0,0.0,0.0,0.0,0.0,0.0,0.0,0.0,0.0,0.0,0.0,0.0,0.0,0.0,0.0,0.0,0.0,0.0,0.0,0.0,0.0,0.0,0.0,0.0,0.0,0.0,0.0,0.0,0.0,0.0,0.0,0.0,0.0,0.0,0.0,0.0,0.0,0.0,0.0,0.0,0.0,0.0,0.0,0.0,0.0,0.0,0.0,0.0,0.0,0.0,0.0,0.0,0.0,0.0,0.0,0.0,0.0,0.0,-1.0508,-1.1162,-1.1539,-1.171,-1.1958,-1.2314,-1.2249,-1.2681,-1.2539,-1.1693,0.0,0.0,0.0,0.0,0.0,0.0,0.0,0.0,0.0,0.0,0.0,0.0,0.0,0.0,0.0,0.0,0.0,0.0,0.0,0.0,0.0,0.0,0.0,0.0,0.0,0.0,0.0,0.0,0.0,0.0,0.0,0.0,0.0,0.0,0.0,0.0,0.0,0.0,0.0,0.0,0.0,0.0,0.0,0.0,0.0,0.0,0.0,0.0,0.0,0.0,0.0,0.0,0.0,0.0,0.0,0.0,0.0,0.0,0.0,0.0,0.0,0.0,0.0,0.0,0.0,0.0,0.0,0.0,0.0,0.0,0.0,0.0,0.0,0.0,0.0,0.0,0.0,0.0,0.0,0.0,0.0,0.0,0.0,0.0,0.0,0.0,0.0,0.0,0.0,0.0,0.0,0.0,0.0,0.0,0.0,0.0,0.0,0.0,0.0,0.0,0.0,0.0,-1.0032,-1.0943,-1.1563,-1.1584,-1.1645,-1.1824,-1.2032,-1.1823,-1.1612,-1.1461,0.0,0.0,0.0,0.0,0.0,0.0,0.0,0.0,0.0,0.0,0.0,0.0,0.0,0.0,0.0,0.0,0.0,0.0,0.0,0.0,0.0,0.0,0.0,0.0,0.0,0.0,0.0,0.0,0.0,0.0,0.0,0.0,0.0,0.0,0.0,0.0,0.0,0.0,0.0,0.0,0.0,0.0,0.0,0.0,0.0,0.0,0.0,0.0,0.0,0.0,0.0,0.0,0.0,0.0,0.0,0.0,0.0,0.0,0.0,0.0,-0.2795,-0.2687,0.0,0.0,0.0,0.0,0.0,0.0,0.0,0.0,0.0,0.0,0.0,0.0,0.0,0.0,0.0,0.0,0.0,0.0,0.0,0.0,0.0,0.0,0.0,0.0,0.0,0.0,0.0,0.0,0.0,0.0,0.0,0.0,0.0,0.0,0.0,0.0,0.0,0.0,0.0,0.0,-0.9694,-1.07,-1.1539,-1.1751,-1.1666,-1.1539,-1.0935,-1.094,-1.0743,-1.0299,-1.0854,0.0,0.0,0.0,0.0,0.0,0.0,0.0,0.0,0.0,0.0,0.0,0.0,0.0,0.0,0.0,0.0,0.0,0.0,0.0,0.0,0.0,0.0,0.0,0.0,0.0,0.0,0.0,0.0,0.0,0.0,0.0,0.0,0.0,0.0,0.0,0.0,0.0,0.0,0.0,0.0,0.0,0.0,0.0,0.0,0.0,0.0,0.0,0.0,0.0,0.0,0.0,0.0,0.0,0.0,0.0,0.0,0.0,0.0,0.0,-0.2641,-0.2897,0.0,0.0,0.0,0.0,0.0,0.0,0.0,0.0,0.0,0.0,0.0,0.0,0.0,0.0,0.0,0.0,0.0,0.0,0.0,0.0,0.0,0.0,0.0,0.0,0.0,0.0,0.0,0.0,0.0,0.0,0.0,0.0,0.0,0.0,0.0,0.0,0.0,0.0,0.0,0.0,-0.9034,-0.9766,-1.0812,-1.1306,-1.1299,-1.1228,-1.1146,-1.1215,-1.1098,-1.0284,-1.0626,0.0,0.0,0.0,0.0,0.0,0.0,0.0,0.0,0.0,0.0,0.0,0.0,0.0,0.0,0.0,0.0,0.0,0.0,0.0,0.0,0.0,0.0,0.0,0.0,0.0,0.0,0.0,0.0,0.0,0.0,0.0,0.0,0.0,0.0,0.0,0.0,0.0,0.0,0.0,0.0,0.0,0.0,0.0,0.0,0.0,0.0,0.0,0.0,0.0,0.0,0.0,0.0,0.0,-0.0375,-0.0576,-0.1154,-0.0777,-0.0984,-0.1395,-0.2093,-0.2611,-0.2975,-0.2845,0.0,0.0,0.0,0.0,0.0,0.0,0.0,0.0,0.0,0.0,0.0,0.0,0.0,0.0,0.0,0.0,0.0,0.0,0.0,0.0,0.0,0.0,-0.5488,-0.552,-0.5406,-0.5211,-0.5886,0.0,0.0,0.0,0.0,0.0,0.0,0.0,0.0,0.0,0.0,0.0,-0.8605,-0.9063,-0.9819,-1.0509,-1.0622,-1.0891,-1.1306,-1.1248,-1.1247,-1.074,-1.0184,-0.991,0.0,0.0,0.0,0.0,0.0,0.0,0.0,0.0,0.0,0.0,0.0,0.0,0.0,0.0,0.0,0.0,0.0,0.0,0.0,0.0,0.0,0.0,0.0,0.0,0.0,0.0,0.0,0.0,0.0,0.0,0.0,0.0,-0.2791,-0.2495,0.0,0.0,0.0,0.0,0.0,0.0,0.0,0.0,0.0,0.0,0.0,0.0,0.0,-0.2467,-0.24,-0.0748,-0.0,-0.0,0.2037,0.1874,-0.021,0.1059,0.0426,-0.128,0.0214,0.0,-0.3076,-0.3029,0.0,0.0,0.0,0.0,0.0,0.0,0.0,0.0,0.0,0.0,0.0,0.0,0.0,0.0,0.0,0.0,0.0,0.0,0.0,0.0,0.0,0.0,-0.4494,-0.4866,-0.4462,-0.4269,-0.488,-0.6145,-0.7238,-0.7474,-0.7754,-0.8149,0.0,0.0,0.0,0.0,0.0,0.0,-0.8762,-0.908,-0.9468,-0.9563,-0.9696,-0.9754,-0.9199,-0.972,-0.9858,-0.9523,-1.0142,-1.0412,-1.0518,-1.0509,0.0,0.0,0.0,0.0,0.0,0.0,0.0,0.0,0.0,0.0,0.0,0.0,0.0,0.0,0.0,0.0,0.0,0.0,0.0,0.0,0.0,0.0,0.0,0.0,0.0,0.0,0.0,0.0,0.0,-0.2654,-0.2914,-0.2428,-0.2288,-0.2115,0.0,0.0,0.0,0.0,0.0,0.0,0.0,0.0,0.0,-0.2413,-0.2609,-0.1516,0.0783,0.0199,-0.0,-0.0,0.255,0.3034,0.1976,0.1096,0.1098,0.1546,0.1323,0.1081,0.0626,-0.1209,-0.1932,-0.2028,0.0,0.0,0.0,0.0,-0.2554,-0.2976,-0.3477,-0.3487,-0.3437,-0.3582,0.0,0.0,0.0,0.0,0.0,0.0,0.0,-0.4954,-0.5087,-0.4853,-0.4786,-0.547,-0.5101,-0.4721,-0.498,-0.5885,-0.6648,-0.6725,-0.6859,-0.7303,-0.7578,-0.8102,0.0,0.0,0.0,-0.9108,-0.7855,-0.8526,-0.9122,-0.9274,-0.9594,-0.9876,-1.0133,-1.0622,-1.0719,-1.039,-1.0361,-1.0484,-1.0486,-1.0134,-0.9949,0.0,0.0,0.0,0.0,0.0,0.0,0.0,0.0,0.0,0.0,0.0,0.0,0.0,0.0,0.0,0.0,0.0,0.0,0.0,0.0,0.0,0.0,0.0,0.0,0.0,0.0,0.0,0.0,-0.2294,-0.2871,-0.2687,-0.1886,-0.1539,0.0,0.0,0.0,0.0,0.0,0.0,-0.1246,-0.1282,-0.1512,-0.176,-0.1383,0.0402,0.3496,0.1668,0.0635,-0.0,0.1754,0.2893,0.3603,0.1794,0.2017,0.3594,0.2458,0.2453,0.3336,0.0637,-0.0815,-0.118,-0.1719,-0.1883,-0.1503,-0.1149,-0.1565,-0.2605,-0.2917,-0.2935,-0.3104,-0.2832,-0.3165,-0.3474,-0.3526,0.0,0.0,0.0,0.0,-0.4751,-0.4909,-0.479,-0.4653,-0.5189,-0.5057,-0.4899,-0.5167,-0.5373,-0.57,-0.5802,-0.594,-0.6227,-0.6789,-0.7499,0.0,-0.7317,-0.8273,-0.8784,-0.8057,-0.8444,-0.8753,-0.9134,-0.9673,-1.0196,-1.0718,-1.118,-1.1515,-1.1203,-1.0735,-1.0461,-1.0352,-0.9892,-0.9595,-0.9616,0.0,0.0,0.0,0.0,0.0,0.0,0.0,0.0,0.0,0.0,0.0,0.0,0.0,0.0,0.0,0.0,0.0,0.0,0.0,0.0,0.0,0.0,0.0,0.0,0.0,0.0,0.0,0.0,0.0,-0.2784,-0.2013,0.0,0.0,0.0,0.0,-0.2467,-0.0906,0.093,0.3035,0.0387,-0.0999,-0.0209,0.2061,0.3328,0.366,0.3449,0.2175,-0.0,0.0225,0.1362,0.3639,0.3434,0.3418,0.3594,0.3621,0.3632,0.3628,0.1103,-0.0,-0.0,-0.0207,-0.1225,-0.2418,-0.0616,-0.0841,-0.1717,-0.1708,-0.2356,-0.3227,-0.2556,-0.292,-0.3888,-0.353,-0.3688,0.0,0.0,-0.3789,-0.3408,-0.3689,-0.3491,-0.3502,-0.3534,-0.3565,-0.3822,-0.4532,-0.4768,-0.4741,-0.5092,-0.5623,-0.6125,-0.641,0.0,-0.7271,-0.8864,-0.8525,-0.8582,-0.9946,-0.9315,-0.8996,-0.9665,-0.9781,-0.9808,-0.9676,-1.045,-1.0659,-1.0487,-1.0786,-1.0804,-0.9862,-1.0252,-1.0065,-0.932,-0.9624,0.0,0.0,0.0,0.0,0.0,0.0,0.0,0.0,0.0,0.0,0.0,0.0,0.0,0.0,0.0,0.0,0.0,0.0,0.0,0.0,0.0,0.0,0.0,0.0,0.0,0.0,0.0,0.0,0.0924,0.1532,0.0,0.0366,-0.0,-0.0188,-0.0563,-0.0776,0.0397,0.3197,0.2468,0.126,-0.0,0.1493,0.2797,0.3486,0.3524,0.2897,0.1576,0.205,0.2758,0.3694,0.3223,0.322,0.3681,0.2995,0.3002,0.3694,0.276,0.1572,-0.0,-0.0,-0.043,-0.064,0.152,0.1103,-0.0447,-0.0448,-0.1789,-0.3565,-0.3077,-0.2815,-0.2569,-0.3232,-0.343,-0.3624,-0.366,-0.3909,-0.4384,-0.4214,-0.4243,-0.4267,-0.4759,-0.4796,-0.4837,-0.4645,-0.5349,-0.5587,-0.5148,-0.5694,-0.6399,-0.6681,-0.7249,-0.7789,-0.7886,-0.8429,-0.8957,-0.9272,-0.897,-0.883,-0.9052,-0.9296,-0.928,-0.972,-1.0172,-1.0812,-1.0876,-1.1225,-1.1037,-1.0536,-1.0604,-1.0294,-0.9812,-1.0053,-1.0086,0.0,0.0,0.0,0.0,0.0,0.0,0.0,0.0,0.0,0.0,0.0,0.0,0.0,0.0,0.0,0.0,0.0,0.0,0.0,0.0,0.0,0.0,0.0,0.0,0.0,0.0,0.0763,0.2671,0.3178,0.281,0.154,0.1181,0.0999,0.1395,0.0615,0.1043,0.2713,0.3211,0.2817,0.1296,0.1961,0.2857,0.3549,0.3587,0.3401,0.275,0.3466,0.3723,0.3739,0.3254,0.3251,0.3726,0.3027,0.3027,0.3726,0.3748,0.2773,0.1127,0.0904,0.0675,0.0895,0.2482,0.228,0.1151,0.046,-0.1596,-0.3604,-0.2679,-0.2217,-0.1989,-0.2676,-0.3129,-0.358,-0.3604,-0.4058,-0.4288,-0.4314,-0.4325,-0.4343,-0.4841,-0.4879,-0.492,-0.4725,-0.5449,-0.595,-0.5279,-0.5869,-0.6639,-0.6778,-0.7125,-0.742,-0.7494,-0.8215,-0.868,-0.8914,-0.883,-0.8677,-0.9125,-0.91,-0.9062,-0.972,-1.0079,-1.0191,-1.0548,-1.0614,-1.0441,-1.0047,-1.034,-1.0084,-0.949,-0.9899,-0.9989,-0.9883,0.0,0.0,0.0,0.0,0.0,0.0,0.0,0.0,0.0,0.0,0.0,0.0,0.0,0.0,0.0,0.0,0.0,0.0,0.0,0.0,0.0,0.0,0.0,0.1775,0.0942,0.0781,0.1726,0.2861,0.3566,0.3411,0.1456,0.1063,0.3162,0.3426,0.3026,0.1945,0.2834,0.352,0.3549,0.352,0.3549,0.3636,0.3639,0.3667,0.3726,0.3757,0.3775,0.4011,0.3775,0.3757,0.373,0.373,0.373,0.373,0.373,0.373,0.3733,0.235,0.1876,0.186,0.1847,0.2792,0.3529,0.0926,-0.1587,-0.3336,-0.0897,-0.1124,-0.2482,-0.208,-0.2794,-0.3739,-0.3795,-0.3771,-0.3726,-0.3726,-0.3705,-0.3692,-0.3723,-0.375,-0.4015,-0.4521,-0.4795,-0.5052,-0.5967,-0.6398,-0.6618,-0.6668,-0.6161,-0.6363,-0.8248,-0.741,0.0,-0.9408,-0.8668,-0.8522,-0.962,-0.9175,-0.9134,-0.9408,-0.9431,-0.9301,-0.9301,-0.97,-0.93,-0.841,-0.9721,-0.9678,-0.8184,-0.918,-0.9768,-0.9667,0.0,0.0,0.0,0.0,0.0,0.0,0.0,0.0,0.0,0.0,0.0,0.0,0.0,0.0,0.0,0.0,0.0,0.0,0.0,0.0,0.0,0.382,0.3793,0.3025,0.2559,0.2641,0.2867,0.3377,0.3429,0.3599,0.301,0.2822,0.3465,0.2846,0.2853,0.3055,0.3317,0.3562,0.3549,0.358,0.3837,0.4546,0.3911,0.3951,0.4463,0.4025,0.3813,0.3835,0.3835,0.3831,0.3824,0.3844,0.3842,0.3824,0.3844,0.3842,0.382,0.3548,0.3284,0.3263,0.3296,0.3552,0.3325,0.094,-0.0466,-0.1159,-0.2308,-0.301,-0.3489,-0.326,-0.3493,-0.373,-0.3748,-0.3739,-0.373,-0.3754,-0.3754,-0.3754,-0.3786,-0.4271,-0.4513,-0.4022,-0.4997,-0.5739,-0.5484,-0.6005,-0.6746,-0.7402,-0.7171,-0.6962,-0.6517,-0.7101,-0.7648,-0.8337,-0.8185,-0.8194,-0.8507,-0.8265,-0.821,-0.8308,-0.8665,-0.9049,-0.9219,-0.9317,-0.9184,-0.8631,-0.989,-1.0164,-0.9476,-0.9595,-0.9811,0.0,0.0,0.0,0.0,0.0,0.0,0.0,0.0,0.0,0.0,0.0,0.0,0.0,0.0,0.0,0.0,0.0,0.0,0.0,0.0,0.0,0.0,0.4219,0.4382,0.403,0.3906,0.356,0.3399,0.3457,0.3502,0.3531,0.3549,0.3562,0.3576,0.3135,0.3129,0.3558,0.3589,0.36,0.3587,0.3628,0.3889,0.4362,0.3941,0.3982,0.4263,0.406,0.3848,0.388,0.3904,0.39,0.388,0.3911,0.3898,0.3859,0.388,0.3876,0.3855,0.0,0.0,0.0,0.0,0.2849,0.3539,0.2113,0.0234,-0.1631,-0.2089,-0.303,-0.3754,-0.3761,-0.3764,-0.3768,-0.3793,-0.3793,-0.3782,-0.4263,-0.4037,-0.3806,-0.4037,-0.4291,-0.4306,-0.381,-0.455,-0.5061,-0.4591,-0.5117,0.0,-0.6082,-0.6342,-0.6365,-0.6124,-0.5943,-0.6469,-0.7661,-0.797,-0.7965,-0.8047,-0.7322,-0.7046,-0.7657,-0.8042,0.0,0.0,0.0,-0.8933,-0.8933,-0.9729,0.0,0.0,0.0,-0.9489,-0.9416,-0.9951,0.0,0.0,-1.0636,-1.0972,0.0,0.0,0.0,0.0,0.0,0.0,0.0,0.0,0.0,0.0,0.0,0.0,0.0,0.0,0.0,0.0,0.4647,0.4781,0.5326,0.492,0.4294,0.368,0.3517,0.3572,0.3628,0.3639,0.3652,0.3677,0.3656,0.3639,0.3639,0.3639,0.0,0.0,0.0,0.3708,0.3737,0.3744,0.3779,0.3838,0.3855,0.3883,0.3915,0.3967,0.396,0.3907,0.3938,0.3922,0.3869,0.388,0.388,0.3873,0.3866,0.3625,0.338,0.0958,0.142,0.3278,0.3276,0.0,0.0,-0.1154,-0.1856,-0.351,-0.3793,-0.381,-0.3824,-0.3876,-0.3873,-0.4089,-0.4542,-0.4319,-0.4082,-0.45,-0.4294,-0.3851,-0.4089,-0.3876,-0.3904,-0.3929,-0.4189,-0.4452,-0.448,-0.4986,-0.5471,-0.5939,-0.4969,-0.4728,-0.7165,-0.7748,-0.7777,-0.7902,-0.6687,0.0,-0.7566,-0.7698,-0.7581,-0.7474,-0.7971,-0.8638,-0.9221,-0.9698,-0.9812,-1.0,-0.984,-0.9584,-0.9034,-0.997,-0.9965,-0.9204,-0.9739,-1.0367,0.0,0.0,0.0,0.0,0.0,0.0,0.0,0.0,0.0,0.0,0.0,0.0,0.0,0.0,0.0,0.6193,0.6034,0.5795,0.5864,0.591,0.5503,0.441,0.378,0.3596,0.3632,0.4113,0.4133,0.3681,0.4133,0.413,0.367,0.367,0.367,0.367,0.375,0.403,0.4508,0.4089,0.4144,0.4699,0.416,0.0,0.3978,0.3963,0.3938,0.3907,0.3963,0.3967,0.3936,0.3985,0.3992,0.396,0.3887,0.3149,0.219,0.1691,0.1207,0.0725,0.0721,-0.0,-0.0955,-0.2593,-0.2123,-0.1185,-0.3284,-0.3761,0.0,-0.3793,-0.381,-0.3828,-0.4085,-0.4798,-0.5025,-0.4319,-0.3835,-0.4056,-0.5216,-0.455,-0.3862,-0.3842,-0.5849,-0.7414,-0.7419,-0.569,-0.446,-0.448,-0.4237,-0.4229,-0.4694,-0.6717,-0.7957,-0.7839,-0.7587,-0.7587,-0.805,-0.7941,-0.7616,-0.7586,-0.7601,-0.8097,-0.9329,-0.9455,-0.9775,-1.0277,-1.024,-1.0196,-0.9924,-1.0045,-1.0012,-0.9808,-1.0582,-1.0853,0.0,0.0,0.0,0.0,0.0,0.0,0.0,0.0,0.0,0.0,0.0,0.4451,0.4586,0.0,0.5501,0.6282,0.6211,0.6328,0.6632,0.6449,0.5798,0.468,0.4267,0.409,0.4388,0.4628,0.4641,0.4447,0.4667,0.4429,0.3748,0.3761,0.3772,0.3772,0.3844,0.3876,0.4342,0.4134,0.3936,0.449,0.4211,0.3981,0.4041,0.4054,0.4037,0.3998,0.4043,0.4037,0.3998,0.3523,0.352,0.3992,0.3947,0.3437,0.2698,0.1461,0.0486,0.0242,0.1444,0.0957,-0.0238,-0.1418,-0.1421,-0.1191,-0.3325,-0.3337,-0.288,-0.3614,-0.3873,-0.388,-0.3862,-0.4342,-0.4815,-0.4299,-0.4067,-0.4074,-0.4773,-0.4334,-0.3891,-0.3918,-0.5185,-0.5976,-0.6017,-0.5504,-0.5004,-0.479,-0.4263,-0.4495,-0.5745,-0.599,-0.6462,-0.7867,-0.7853,-0.7853,-0.8098,-0.7983,-0.767,-0.767,-0.8404,-0.8701,-0.8853,-0.9682,-1.0008,-1.0054,-1.0228,-1.016,-0.9858,-0.998,-0.996,-0.9788,-1.0495,-1.0587,0.0,0.0,0.0,0.0,0.0,0.0,0.0,0.0,0.6809,0.7731,0.689,0.5968,0.6167,0.6088,0.5995,0.6347,0.6392,0.6653,0.7421,0.6982,0.6317,0.5198,0.4777,0.4837,0.4938,0.5169,0.5182,0.5011,0.5002,0.4529,0.3842,0.3866,0.3876,0.3876,0.3936,0.3956,0.3938,0.3947,0.3978,0.4037,0.4026,0.4048,0.4097,0.4137,0.4128,0.4079,0.411,0.4097,0.4057,0.3291,0.3277,0.4012,0.4005,0.3988,0.3715,0.1473,0.0487,0.0484,0.2889,0.2391,0.0713,0.0237,-0.0953,-0.2398,-0.2891,-0.2664,-0.2437,-0.368,-0.3936,-0.3929,-0.3873,-0.3876,-0.388,-0.4524,-0.4306,-0.3862,-0.3873,-0.39,-0.3696,-0.3505,-0.3755,-0.4009,-0.405,-0.5047,-0.5544,-0.5078,-0.4782,-0.5004,-0.7291,-0.5499,-0.472,-0.7165,-0.7406,-0.7648,-0.7648,-0.7804,-0.7741,-0.7733,-0.8769,-0.9102,-0.8333,-0.9869,-1.0441,-0.9832,-1.0412,-1.0332,-0.9588,-1.0152,-1.0124,-0.9517,-0.9933,-1.0245,0.423,0.3379,0.3239,0.5224,0.4255,0.2787,0.0,0.0,0.6392,0.6884,0.7648,0.7977,0.6839,0.6528,0.6411,0.6922,0.7697,0.8004,0.8247,0.8019,0.781,0.718,0.603,0.5359,0.4706,0.5246,0.5529,0.5058,0.4876,0.467,0.3936,0.3938,0.3938,0.3938,0.3998,0.4041,0.4065,0.4093,0.4135,0.4193,0.4142,0.4121,0.4124,0.4103,0.4079,0.4048,0.4079,0.4103,0.4117,0.3837,0.3824,0.4072,0.4048,0.3781,0.3772,0.3471,0.1971,0.0246,0.2954,0.369,0.2946,0.0731,-0.1703,-0.3164,-0.0967,-0.1931,-0.3625,-0.3869,-0.3891,-0.39,-0.3869,-0.3866,-0.3869,-0.4129,-0.4119,-0.4118,-0.3929,-0.3963,-0.3732,-0.2476,-0.3231,-0.4238,-0.496,-0.4702,-0.4219,-0.3998,-0.4999,-0.598,-0.6197,-0.4943,-0.4444,-0.5923,-0.6169,-0.6169,-0.6664,-0.7394,-0.7853,-0.7796,-0.796,-0.8137,-0.8548,-0.9185,-0.9804,-1.0169,-1.0784,-1.0692,-0.9929,-1.0516,-1.0392,-0.9596,-0.9525,-0.9948,0.4915,0.5009,0.5477,0.0,0.6359,0.6508,0.6752,0.7336,0.7715,0.7899,0.8316,0.8492,0.8368,0.8018,0.7435,0.0,0.7773,0.8287,0.7862,0.7868,0.766,0.7021,0.6849,0.6434,0.5523,0.5539,0.5574,0.5161,0.4951,0.4728,0.4003,0.4019,0.403,0.403,0.4086,0.4106,0.4086,0.4131,0.417,0.4193,0.4668,0.4668,0.418,0.4671,0.439,0.4117,0.4113,0.4128,0.4152,0.4124,0.411,0.4106,0.4079,0.4043,0.3761,0.2253,0.199,0.2221,0.1729,0.1473,0.1704,0.2186,0.0486,-0.1707,-0.219,-0.2925,-0.3914,-0.3914,-0.3936,-0.3949,-0.3922,-0.3925,-0.3938,-0.3932,-0.3922,-0.3918,-0.3943,-0.396,-0.3722,-0.3228,-0.3474,-0.3971,-0.447,-0.4227,-0.3974,-0.397,-0.4463,-0.496,-0.5467,-0.5199,-0.5437,-0.6207,-0.6484,-0.6736,-0.7452,-0.77,-0.7924,-0.7858,-0.8078,-0.8265,-0.8158,-0.9083,-0.9465,-0.9076,-0.9729,-1.0139,-1.0064,-1.0204,-1.032,-1.0191,-0.9936,-0.9917,0.5434,0.6108,0.0,0.666,0.8017,0.9192,0.8864,0.8952,0.9229,0.9326,0.8926,0.8691,0.875,0.8617,0.8019,0.7601,0.8087,0.8336,0.7909,0.7929,0.771,0.7502,0.7363,0.6987,0.6109,0.6109,0.5902,0.5501,0.5287,0.4808,0.457,0.4355,0.4114,0.4353,0.4405,0.4412,0.4367,0.4412,0.4434,0.4438,0.4679,0.4687,0.4193,0.4684,0.4671,0.4159,0.4131,0.4135,0.4159,0.4121,0.4114,0.4124,0.4079,0.4043,0.352,0.1009,0.125,0.2715,0.1482,0.098,0.1214,0.2907,0.1703,-0.0245,-0.22,-0.3437,-0.3706,-0.2961,-0.2975,-0.3228,-0.3945,-0.3953,-0.3967,-0.3953,-0.3703,-0.3458,-0.397,-0.3981,-0.3992,-0.4005,-0.3994,-0.3988,-0.3994,-0.3994,-0.3985,-0.3953,-0.3949,-0.4205,-0.5222,-0.5461,-0.5705,-0.6235,-0.628,-0.6542,-0.7241,-0.7486,-0.7722,-0.7695,-0.8157,-0.8352,-0.779,-0.8704,-0.9089,-0.8459,-0.9116,-0.9523,-0.9683,-0.9586,-0.9948,-1.0301,-0.9813,-0.9539,0.5911,0.5822,0.5968,0.7722,0.895,0.9209,0.7392,0.8601,1.0269,1.0661,0.9746,0.8767,0.77,0.7587,0.7442,0.7447,0.8662,0.9379,0.9308,0.9362,0.9386,0.9308,0.7738,0.668,0.6887,0.6997,0.7059,0.7063,0.5921,0.5456,0.6188,0.4965,0.445,0.5161,0.5195,0.5217,0.5214,0.5217,0.5217,0.5217,0.4464,0.4187,0.4128,0.4099,0.4099,0.4128,0.4097,0.4103,0.4128,0.4322,0.4334,0.4121,0.4034,0.4034,0.3824,0.1012,-0.0,0.0494,0.2961,0.3703,0.3696,0.2446,0.0981,-0.0,-0.0,-0.1963,-0.3456,-0.074,-0.0,-0.074,-0.3425,-0.4156,-0.4163,-0.4193,-0.2961,-0.2479,-0.3774,-0.4061,-0.4072,-0.4043,-0.4061,-0.4065,-0.4005,-0.3994,-0.3985,-0.3953,-0.3949,-0.4196,-0.4938,-0.4969,-0.4991,-0.4991,-0.5025,-0.503,-0.4996,-0.6235,-0.7004,-0.7059,-0.7708,-0.7924,-0.7973,-0.8537,-0.868,-0.8673,-0.9252,-0.9142,-0.8373,-0.892,-0.9039,-0.8967,-0.8818,-0.8964,0.612,0.7354,0.8872,0.8092,0.8482,0.9262,0.8878,0.945,1.0216,1.0774,1.0404,1.0016,0.8916,0.8549,0.8624,0.8627,0.9033,0.9169,0.8681,0.8539,0.8108,0.7572,0.741,0.7248,0.0,0.0,0.6267,0.6393,0.6188,0.5962,0.6231,0.5716,0.5716,0.5976,0.5991,0.5986,0.5956,0.5982,0.5722,0.5697,0.5192,0.5455,0.5976,0.5673,0.5419,0.5195,0.4386,0.4131,0.4155,0.4097,0.4106,0.4152,0.4082,0.4054,0.3801,0.3032,0.251,0.2736,0.3483,0.3981,0.3726,0.3452,0.2956,0.2221,0.0492,-0.0493,-0.1235,-0.0247,-0.0,-0.025,-0.1249,-0.2012,-0.3043,-0.3814,-0.3053,-0.2544,-0.3818,-0.3569,-0.3311,-0.4048,-0.4034,-0.4019,-0.3998,-0.3978,-0.4215,-0.4475,-0.4208,-0.3956,-0.4227,-0.4255,-0.4535,-0.5064,-0.51,-0.5351,-0.6288,-0.6789,-0.7266,-0.746,-0.7669,-0.7888,-0.7867,-0.8537,-0.8704,-0.8618,-0.88,-0.8983,-0.9142,-0.8766,-0.8887,-0.9719,-0.9156,-0.9114,0.8072,0.922,1.0424,0.9269,0.9415,0.9717,0.9917,1.0058,1.0592,1.0836,1.087,1.0444,0.9076,0.8872,0.8691,0.8991,0.9168,0.9325,0.9169,0.8548,0.8108,0.7831,0.7436,0.7256,0.0,0.0,0.0,0.6899,0.6684,0.6717,0.7012,0.6514,0.6252,0.6493,0.6525,0.6514,0.6448,0.6459,0.6205,0.5931,0.5673,0.5701,0.6021,0.5716,0.5451,0.5214,0.4412,0.4155,0.4169,0.4121,0.4131,0.4166,0.4086,0.4048,0.4041,0.403,0.4019,0.3758,0.2748,0.25,0.2503,0.2973,0.3464,0.3468,0.1971,0.074,-0.0247,-0.1238,-0.1498,-0.1258,-0.0252,-0.0764,-0.1542,-0.2305,-0.2818,-0.2811,-0.2538,-0.3045,-0.3302,-0.4043,-0.4034,-0.4026,-0.4026,-0.4003,-0.3988,-0.4507,-0.4245,-0.4241,-0.4779,-0.4297,-0.4319,-0.51,-0.4882,-0.5144,-0.6365,-0.6361,-0.6593,-0.7557,-0.7743,-0.7682,-0.7875,-0.8294,-0.8445,-0.8347,-0.8578,-0.8794,-0.9219,-0.8866,-0.8999,-0.9839,-0.9282,-0.9219,1.1378,1.1235,1.0219,1.1321,1.1223,1.0595,1.026,1.0624,1.0722,1.0857,1.0677,1.0039,0.0,0.0,0.7926,0.8116,0.8853,0.94,1.033,0.9897,0.9431,0.0,0.0,0.0,0.0,0.0,0.0,0.8068,0.7675,0.7483,0.8259,0.7106,0.6854,0.7235,0.7321,0.7321,0.7216,0.7168,0.6661,0.5424,0.5937,0.5465,0.4218,0.4187,0.4434,0.4434,0.4438,0.4177,0.4173,0.4142,0.4146,0.4159,0.4043,0.4012,0.4034,0.4009,0.4016,0.3532,0.1002,0.0251,0.0252,0.1488,0.273,0.3735,0.3682,0.1965,-0.0495,-0.3242,-0.3998,-0.3505,-0.1009,-0.0,-0.0,-0.0,-0.2021,-0.328,-0.0752,-0.2266,-0.4048,-0.4048,-0.4068,-0.4086,-0.4082,-0.4061,-0.4043,-0.3791,-0.4048,-0.4561,-0.5866,-0.4853,-0.4341,-0.5108,-0.4371,-0.439,-0.5161,-0.5161,-0.5692,-0.703,-0.7149,-0.7293,-0.7987,-0.7818,-0.77,-0.7635,-0.8347,-0.8578,-0.8572,-0.9212,-0.9369,-0.9291,-0.9141,-0.8817,1.0645,1.1189,1.2151,1.3331,1.2249,1.0707,1.0637,1.0669,1.0861,1.1203,0.9517,0.8067,0.0,0.0,0.0,0.886,0.9264,0.0,1.0513,1.0115,0.0,0.8218,0.0,0.7946,0.7014,0.7309,0.0,0.0,0.789,0.7993,0.8376,0.8088,0.782,0.812,0.8033,0.7964,0.7933,0.7407,0.6936,0.6501,0.6272,0.6584,0.7182,0.5301,0.556,0.7419,0.7383,0.6046,0.4204,0.4148,0.4131,0.4131,0.4058,0.4019,0.4009,0.4023,0.4048,0.4072,0.3302,0.228,0.1259,0.0744,0.0744,0.0997,0.0995,0.0499,-0.0251,-0.0755,-0.2527,-0.4065,-0.3308,-0.1529,-0.0,-0.0,-0.1277,-0.2298,-0.1804,-0.2845,-0.4142,-0.4142,-0.411,-0.4079,-0.4054,-0.4065,-0.3827,-0.2564,-0.3353,-0.4128,-0.4601,-0.4341,-0.4093,-0.4374,-0.4128,-0.439,-0.5161,-0.5649,-0.5891,-0.6414,-0.7367,-0.7544,-0.7234,-0.8185,-0.8576,-0.8415,-0.8658,-0.8603,-0.8499,-0.8147,-0.8087,-0.8526,-0.8388,-0.8565,1.1456,1.2195,1.3119,1.3523,1.2861,1.1708,1.1018,1.0816,1.053,0.978,0.8189,0.682,0.6777,0.714,0.0,0.0,0.0,0.0,1.0573,1.0162,0.9242,0.0,0.8546,0.0,0.734,0.7888,0.8222,0.0,0.8147,0.8245,0.8425,0.8393,0.8623,0.8873,0.8595,0.83,0.8245,0.7235,0.7018,0.734,0.7147,0.7469,0.8305,0.5634,0.5885,0.8488,0.7686,0.6865,0.6031,0.5181,0.4893,0.513,0.4297,0.4253,0.448,0.4023,0.405,0.4065,0.4065,0.3548,0.2775,0.2007,0.1257,0.1008,0.1005,0.1007,0.0758,0.0254,-0.1018,-0.2299,-0.2308,-0.2058,-0.1547,-0.0258,-0.0514,-0.1285,-0.1296,-0.1813,-0.2585,-0.3879,-0.3605,-0.3074,-0.2295,-0.3336,-0.3617,-0.2343,-0.3129,-0.4162,-0.4131,-0.3866,-0.3611,-0.4131,-0.4142,-0.4415,-0.5209,-0.5204,-0.5448,-0.6184,-0.6906,-0.7078,-0.6961,-0.7894,-0.8546,-0.868,-0.8649,-0.8851,-0.9041,-0.8662,-0.8352,-0.8312,-0.8208,-0.8146,1.2971,1.319,1.3072,1.3202,1.299,1.2439,1.1289,1.0682,0.9737,0.7547,0.6713,0.628,0.5825,0.7,0.8304,0.8484,0.0,1.0225,1.0573,1.0144,0.972,0.9109,0.9134,0.8916,0.8227,0.8791,0.8859,0.843,0.843,0.8251,0.8425,0.8474,0.8682,0.9271,0.8663,0.8439,0.8335,0.7076,0.6847,0.7395,0.7767,0.8352,0.8621,0.5965,0.6191,0.8469,0.7177,0.7143,0.8107,0.6221,0.5915,0.6371,0.4769,0.4475,0.4699,0.4263,0.4037,0.4041,0.4043,0.4048,0.4048,0.4061,0.3308,0.2288,0.2274,0.227,0.2023,0.0763,0.051,0.0255,0.0257,-0.1293,-0.2595,-0.0516,-0.0,-0.0,-0.0,-0.0,-0.077,-0.3082,-0.2575,-0.155,-0.0259,-0.2341,-0.3663,-0.211,-0.315,-0.4184,-0.4184,-0.3393,-0.3379,-0.4135,-0.4159,-0.4448,-0.5002,-0.45,-0.4754,-0.5995,-0.6205,-0.6361,-0.668,-0.7322,-0.7977,-0.843,-0.8379,-0.8841,-0.9358,-0.9222,-0.8882,-0.8349,-0.8287,-0.7735,1.3155,1.3241,1.3308,1.3522,1.2477,1.1618,1.2008,1.0532,0.0,0.6843,0.6085,0.5774,0.6063,0.6207,0.705,0.8875,0.0,0.0,0.0,0.0,1.1061,0.0,0.0,0.0,0.0,0.0,0.0,0.0,0.9005,0.8815,0.8425,0.8919,0.9351,0.9465,0.8777,0.8294,0.8273,0.8075,0.6832,0.5052,0.6203,0.7579,0.8893,0.8134,0.8114,0.8581,0.8009,0.7711,0.7419,0.6017,0.5424,0.5351,0.5021,0.4472,0.42,0.4487,0.4518,0.4043,0.4068,0.4079,0.4065,0.3994,0.3742,0.3758,0.3755,0.3768,0.3535,0.3288,0.2529,0.1772,0.1773,0.2284,0.2288,0.0511,-0.0,-0.0,-0.0,-0.0,-0.0263,-0.0529,-0.0522,-0.0259,-0.0,-0.2357,-0.3145,-0.0797,-0.238,-0.4215,-0.4215,-0.3908,-0.3879,-0.4131,-0.4155,-0.3915,-0.3398,-0.4448,-0.4957,-0.44,-0.5907,-0.6339,-0.5486,-0.6954,-0.7621,-0.6994,-0.7465,-0.7868,-0.7724,-0.7883,-0.7587,-0.7522,-0.7514,-0.7471,1.2861,1.2861,1.2651,1.2649,1.2011,1.1307,1.1325,0.0,0.0,0.6317,0.5101,0.4502,0.567,0.6098,0.0,0.7779,0.0,0.0,0.0,0.0,0.0,0.0,0.0,0.0,0.0,1.0183,1.0237,0.9528,0.96,0.9427,0.9006,0.9476,0.9421,0.9133,0.966,0.9676,0.8398,0.8453,0.7716,0.6425,0.7306,0.8127,0.889,0.867,0.8649,0.8567,0.8502,0.8197,0.7892,0.6741,0.6403,0.6593,0.5538,0.4999,0.4974,0.4526,0.4293,0.4043,0.4058,0.405,0.403,0.397,0.3981,0.4019,0.4019,0.403,0.4041,0.4041,0.3535,0.303,0.303,0.3535,0.3795,0.2549,0.103,-0.0,-0.0,-0.0,-0.0,-0.0,-0.0,-0.0,-0.0,-0.1047,-0.2094,-0.2117,-0.2636,-0.341,-0.3935,-0.4159,-0.4137,-0.4152,-0.3646,-0.3396,-0.341,-0.4197,-0.4438,-0.4135,-0.5401,-0.5866,-0.5021,-0.648,-0.7406,-0.7322,-0.7479,-0.7868,-0.801,-0.7679,-0.7393,-0.7363,-0.7363,-0.7085,1.2699,1.2651,1.2626,1.219,1.1767,1.121,1.0049,0.8618,0.0,0.5861,0.4578,0.387,0.5365,0.5818,0.6093,0.0,0.8419,1.0008,0.0,0.0,0.0,0.0,0.0,0.0,1.0794,1.1073,0.0,0.9837,0.9708,0.9805,0.9318,0.9538,0.9522,0.9547,1.0568,1.0304,0.8747,0.8559,0.8326,0.8594,0.8657,0.8657,0.8616,0.8662,0.863,0.8537,0.8482,0.8425,0.8371,0.7476,0.7399,0.7856,0.6064,0.5534,0.5766,0.4819,0.4312,0.403,0.4037,0.4016,0.3981,0.3956,0.3981,0.427,0.4019,0.4019,0.427,0.4019,0.4019,0.4019,0.4019,0.4026,0.3788,0.383,0.181,0.0261,0.0784,0.0523,-0.0,-0.0,-0.0,-0.0,-0.0,-0.0,-0.0783,-0.2897,-0.288,-0.2866,-0.3915,-0.4148,-0.4142,-0.4173,-0.3654,-0.3398,-0.4197,-0.4204,-0.4184,-0.4124,-0.4636,-0.5117,-0.4798,-0.6239,-0.693,-0.716,-0.7513,-0.7896,-0.808,-0.7744,-0.7455,-0.7425,-0.7207,-0.6921,1.3272,1.3404,1.3846,1.3522,1.2539,1.1478,0.9674,0.0,0.6207,0.571,0.5615,0.5416,0.5633,0.5715,0.586,0.6122,0.6624,0.7824,1.0744,0.0,0.0,0.0,0.0,0.0,1.1999,1.2071,1.1662,1.0234,1.038,0.9903,0.8784,0.8784,0.9796,1.2034,0.9995,0.8677,0.8618,0.8474,0.8532,0.8532,0.8594,0.8621,0.8616,0.8621,0.8616,0.86,0.8545,0.851,0.8496,0.7597,0.7254,0.7456,0.6848,0.6053,0.5295,0.5557,0.503,0.4003,0.403,0.4003,0.3953,0.3949,0.42,0.4699,0.4203,0.4452,0.4699,0.4203,0.3956,0.3956,0.3956,0.3978,0.3768,0.2566,0.1038,0.0784,0.3158,0.1845,-0.0,-0.0,-0.0,-0.0,-0.0,-0.0,-0.0,-0.0263,-0.2347,-0.3885,-0.4173,-0.4148,-0.4142,-0.4173,-0.4173,-0.4162,-0.4142,-0.4162,-0.4152,-0.4093,-0.4856,-0.4835,-0.4041,-0.6047,-0.6506,-0.5185,-0.6894,-0.7518,-0.6601,-0.7302,-0.7474,-0.7363,-0.6954,-0.646,1.3323,1.3374,1.3004,1.2744,1.2401,1.152,0.921,0.7644,0.6531,0.5518,0.506,0.5039,0.5641,0.567,0.5755,0.5784,0.6167,0.7457,1.0563,1.0918,0.0,0.0,0.0,0.0,0.0,0.0,1.2263,1.1651,1.1681,1.17,1.1191,0.9587,0.9015,0.9979,1.0842,1.0842,0.9973,0.9052,0.8843,0.9381,0.8871,0.8616,0.8616,0.8616,0.8616,0.8616,0.8551,0.8504,0.8461,0.7597,0.7533,0.7733,0.6917,0.6137,0.5621,0.56,0.4808,0.4023,0.4016,0.3985,0.3949,0.4444,0.4938,0.5428,0.4691,0.4444,0.4443,0.4444,0.4212,0.3978,0.3978,0.4012,0.381,0.3344,0.2847,0.2341,0.1842,0.2103,0.2102,0.0264,-0.0,-0.0,-0.0,-0.0,-0.0,-0.0,-0.1036,-0.155,-0.1555,-0.2337,-0.3127,-0.3938,-0.4169,-0.4148,-0.4155,-0.4152,-0.4137,-0.4114,-0.4371,-0.4364,-0.4097,-0.5606,-0.6053,-0.4974,-0.6923,-0.7553,-0.6641,-0.7118,-0.7315,-0.7,-0.6784,-0.6041,1.3037,1.299,1.2682,1.2369,1.2237,1.1357,0.9206,0.8035,0.672,0.5168,0.4355,0.4332,0.546,0.5283,0.4963,0.4914,0.5621,0.7041,0.9177,0.9444,0.0,0.0,0.0,0.0,0.0,0.0,1.1595,1.2471,1.2739,1.3016,1.2792,1.0095,0.8727,0.9461,1.0852,1.1659,1.134,1.0424,0.996,0.996,0.9416,0.8885,0.8616,0.8616,0.8616,0.8616,0.8551,0.851,0.8482,0.7879,0.7825,0.83,0.7247,0.6459,0.6184,0.5886,0.5083,0.4037,0.4518,0.448,0.42,0.4965,0.5452,0.5927,0.5446,0.4946,0.4444,0.4938,0.4467,0.3994,0.3994,0.4034,0.3824,0.3597,0.3609,0.3109,0.1573,0.2102,0.2631,0.1322,0.0528,-0.0,-0.0,-0.0,0.026,0.1036,0.0517,-0.0,-0.0,-0.1298,-0.2347,-0.289,-0.3387,-0.3636,-0.4184,-0.4159,-0.4142,-0.4131,-0.4131,-0.4131,-0.4131,-0.5135,-0.5342,-0.4757,-0.6473,-0.6868,-0.598,-0.6684,-0.6886,-0.6356,-0.611,-0.5364,1.3002,1.2812,1.2587,1.3488,1.2463,1.0943,0.9694,0.8514,0.7178,0.5223,0.385,0.3459,0.5283,0.4189,0.2932,0.2994,0.4847,0.6461,0.6544,0.6729,0.0,0.0,0.0,0.0,0.0,1.0165,0.9878,1.2645,1.2805,1.2866,1.278,1.0037,0.9446,1.2267,0.9979,1.0011,1.292,1.2846,1.1853,0.996,0.996,0.9419,0.8616,0.8616,0.8616,0.8616,0.8551,0.8559,0.86,0.8482,0.8433,0.8425,0.8363,0.7525,0.6184,0.6906,0.5841,0.4293,0.5553,0.5501,0.4951,0.5776,0.5996,0.5933,0.5974,0.5959,0.5676,0.5185,0.4467,0.3994,0.3994,0.4019,0.3795,0.2804,0.2312,0.2585,0.3648,0.1848,0.08,0.3467,0.1856,-0.0,-0.0,-0.0,0.1035,0.3912,0.1816,-0.0,-0.0,-0.1296,-0.1552,-0.0261,-0.1305,-0.2616,-0.3952,-0.4191,-0.4159,-0.4135,-0.4131,-0.4131,-0.4131,-0.4902,-0.4869,-0.4041,-0.5301,-0.5719,-0.4824,-0.5504,-0.5702,-0.5655,-0.5139,-0.4421,1.1914,1.2001,1.1749,1.1816,1.1186,1.0522,0.8802,0.7619,0.6871,0.5768,0.477,0.4381,0.5518,0.531,0.4986,0.5769,0.6289,0.7074,0.8675,0.0,0.0,0.0,0.0,0.0,0.0,0.0,1.1919,1.2731,1.2727,1.167,1.0105,1.0472,1.0934,1.1554,1.131,1.1329,1.1329,1.17,1.1515,1.049,1.049,1.049,1.0228,1.0228,1.0228,0.996,0.9663,0.9372,0.9081,0.7671,0.7357,0.7582,0.7007,0.6205,0.5667,0.6615,0.609,0.4824,0.575,0.5471,0.4977,0.575,0.5725,0.5195,0.5766,0.5735,0.5194,0.4498,0.427,0.4037,0.4079,0.4079,0.4086,0.3618,0.362,0.3114,0.1583,0.1329,0.1334,0.1342,0.0536,-0.0,-0.0,-0.0,0.0264,0.1315,0.2351,0.2343,0.0261,-0.0262,-0.0525,-0.0,-0.1323,-0.2638,-0.3931,-0.418,-0.4162,-0.4135,-0.4131,-0.4131,-0.4131,-0.4902,-0.4882,-0.4072,-0.5313,-0.5486,-0.4134,-0.5308,-0.5745,-0.5702,-0.4476,-0.4223,1.0721,1.0874,1.0852,1.0918,1.0522,0.9706,0.8296,0.7519,0.6798,0.6159,0.5153,0.4746,0.533,0.5325,0.5564,0.6531,0.7049,0.7838,0.986,0.0,0.0,0.0,0.0,0.0,0.0,1.2825,1.2719,1.2674,1.2686,1.1869,1.0251,1.098,1.1498,1.1808,1.18,1.18,1.1535,1.1681,1.1515,1.1302,1.133,1.1058,1.0762,1.0526,1.0517,1.0762,0.9657,0.9372,0.0,0.7938,0.7357,0.759,0.7012,0.6194,0.5643,0.6588,0.6064,0.4803,0.6246,0.6229,0.5501,0.6301,0.5786,0.4999,0.5504,0.548,0.5213,0.4498,0.4264,0.4286,0.4082,0.4082,0.4082,0.4146,0.4152,0.3646,0.1853,0.1333,0.1072,0.0269,-0.0,-0.0,-0.0,-0.0,-0.0,-0.0,0.1579,0.2361,0.184,0.0791,-0.0,-0.0,-0.133,-0.2644,-0.3935,-0.418,-0.4162,-0.4135,-0.4142,-0.4142,-0.4131,-0.4659,-0.4636,-0.4068,-0.4553,-0.4487,-0.3887,-0.4579,-0.5029,-0.5006,-0.4259,-0.4015,0.0,0.9787,1.0012,1.0722,0.9865,0.8821,0.8207,0.7552,0.0,0.6187,0.517,0.4737,0.4928,0.46,0.4649,0.6027,0.734,0.8971,1.0351,0.0,0.0,0.0,0.0,0.0,1.252,1.2539,1.2523,1.2547,1.2674,1.2654,1.2421,1.131,1.1358,1.2519,1.1731,1.1991,1.3298,1.2246,1.1835,1.1842,1.1921,1.1647,1.104,1.0296,1.0286,1.0751,0.9357,0.9096,0.9673,0.8747,0.8425,0.8149,0.7577,0.6717,0.6121,0.6835,0.5786,0.4507,0.7052,0.704,0.6023,0.691,0.6158,0.5086,0.4977,0.5461,0.5731,0.4946,0.4963,0.4753,0.4286,0.4043,0.4058,0.4121,0.4155,0.4184,0.4218,0.2135,-0.0,-0.0,-0.0,-0.0,-0.0,-0.0,-0.0,-0.0,-0.0,0.1058,0.373,0.1591,-0.0,-0.0,-0.1059,-0.2374,-0.3958,-0.4191,-0.4162,-0.4135,-0.4159,-0.4162,-0.4135,-0.4162,-0.4135,-0.3795,-0.3279,-0.3231,-0.3859,-0.3831,-0.382,-0.3824,-0.3793,-0.3793,0.7761,0.0,0.8193,0.8153,0.7942,0.7708,0.0,0.6848,0.6669,0.6066,0.0,0.5493,0.5208,0.4084,0.3936,0.6051,0.7355,0.835,0.9137,0.0,0.0,0.0,0.0,0.0,1.2654,1.2572,1.2431,1.2707,1.2686,1.2431,1.1707,1.1908,1.2116,1.2601,1.2411,1.2439,1.2175,1.2034,1.1861,1.1932,1.1951,1.2221,1.2465,1.2156,1.2394,1.2363,1.1013,1.0447,1.0404,0.8469,0.7597,0.752,0.7247,0.669,0.6127,0.7387,0.6887,0.588,0.6835,0.6322,0.5331,0.5581,0.5363,0.5125,0.5514,0.5486,0.4982,0.4452,0.4487,0.479,0.4322,0.4075,0.409,0.4148,0.417,0.4187,0.4242,0.2945,0.1344,0.0268,-0.0,-0.0,-0.0,-0.0,-0.0,-0.0,-0.0,0.0266,0.08,0.0532,-0.0,-0.0,-0.0265,-0.1055,-0.2374,-0.3669,-0.4173,-0.4166,-0.417,-0.417,-0.4162,-0.4173,-0.3896,-0.3082,-0.3517,-0.369,-0.3859,-0.3851,-0.4103,-0.4612,-0.4093,-0.4082,0.6485,0.7044,0.7756,0.7713,0.7551,0.7381,0.6968,0.658,0.6201,0.0,0.0,0.5644,0.5203,0.4676,0.4742,0.6294,0.7279,0.8183,0.0,0.0,0.0,0.0,0.0,1.2613,0.0,1.2666,1.2748,1.2707,1.2739,1.2483,1.1927,1.2483,1.2715,1.2633,1.2801,1.2854,1.2768,1.2406,1.2496,1.2504,1.2535,1.2791,1.298,1.2707,1.2655,1.2841,1.0978,1.0397,1.0585,0.8677,0.7833,0.7774,0.723,0.6936,0.6639,0.7432,0.7168,0.6382,0.7137,0.6899,0.6152,0.6127,0.5895,0.5654,0.5529,0.5766,0.5786,0.4728,0.4741,0.4782,0.4331,0.4086,0.4097,0.4142,0.4173,0.4204,0.4236,0.3208,0.1883,0.0268,-0.0,0.0269,0.1602,0.0803,-0.0,-0.0,-0.0,-0.0,-0.0,-0.0,-0.0,-0.0,-0.0,-0.079,-0.2888,-0.3651,-0.4155,-0.4155,-0.418,-0.4187,-0.4177,-0.4177,-0.3883,-0.3308,-0.3728,-0.3922,-0.39,-0.39,-0.416,-0.444,-0.416,-0.4144,0.5952,0.7044,0.8132,0.7922,0.7555,0.7207,0.7257,0.6398,0.0,0.0,0.0,0.0,0.0,0.0,0.0,0.0,0.0,0.0,0.0,0.0,0.0,0.0,0.0,0.0,1.2791,1.2727,1.2813,1.2686,1.2801,1.2792,1.258,1.2801,1.2854,1.2694,1.2948,1.3275,1.3654,1.3337,1.3135,1.3066,1.3135,1.3086,1.2927,1.2465,1.2414,1.2788,1.0666,1.0086,1.0271,0.8896,0.8341,0.8322,0.7501,0.7456,0.7432,0.7469,0.6917,0.6354,0.7708,0.7741,0.7223,0.7223,0.6706,0.6164,0.5534,0.6053,0.6604,0.5519,0.5254,0.5025,0.4326,0.409,0.4099,0.4124,0.4173,0.4215,0.4218,0.3197,0.1881,0.0538,0.0269,0.1073,0.3197,0.1864,0.0532,-0.0,-0.0,-0.0,-0.0,-0.0,-0.0,-0.0,-0.0,-0.1052,-0.3919,-0.4152,-0.4137,-0.4137,-0.3922,-0.3938,-0.417,-0.4166,-0.4106,-0.3742,-0.3938,-0.3925,-0.3949,-0.3949,-0.3967,-0.4003,-0.3967,-0.3949,0.6825,0.7588,0.7918,0.6516,0.635,0.6559,0.6152,0.576,0.5744,0.0,0.0,0.0,0.0,0.0,0.0,0.0,0.0,0.0,0.0,0.0,0.0,0.0,0.0,1.2879,1.3398,1.2912,1.2727,1.2854,1.2821,1.2813,1.2846,1.296,1.3013,1.298,1.3168,1.3254,1.35,1.2637,1.2617,1.3148,1.2617,1.2574,1.3021,1.2763,1.2988,1.2886,1.1284,1.0663,1.0534,0.8948,0.8357,0.8264,0.8259,0.802,0.8046,0.8007,0.7759,0.7,0.6717,0.6706,0.7223,0.7223,0.7223,0.7199,0.759,0.7063,0.6316,0.6047,0.5821,0.56,0.4338,0.4103,0.4124,0.4131,0.4155,0.4187,0.4215,0.3449,0.2669,0.1868,0.1868,0.1598,0.0793,0.2114,0.2647,0.0266,-0.0,-0.0,-0.0,-0.0,-0.0,-0.0,-0.0,-0.1052,-0.3919,-0.4173,-0.4169,-0.4169,-0.3132,-0.2866,-0.4139,-0.4114,-0.3548,-0.2227,-0.3452,-0.3947,-0.3949,-0.3949,-0.3978,-0.4034,-0.3974,-0.3949,0.6255,0.7105,0.7779,0.6599,0.71,0.7578,0.698,0.638,0.5984,0.0,0.0,0.0,0.0,0.0,0.0,0.0,0.0,0.0,0.0,0.0,0.0,0.0,0.0,1.2845,1.3682,1.3209,1.3025,1.3438,1.3133,1.2886,1.298,1.2968,1.3013,1.3107,1.3148,1.3189,1.3233,1.314,1.3148,1.3242,1.2923,1.2871,1.3107,1.3107,1.3033,1.2907,1.1835,1.118,1.0472,0.9427,0.8612,0.83,0.83,0.8335,0.8384,0.8322,0.8059,0.7813,0.7493,0.7476,0.7733,0.7733,0.7733,0.7716,0.8104,0.759,0.7094,0.6789,0.6053,0.5337,0.4355,0.4121,0.4131,0.4131,0.4152,0.418,0.4211,0.3977,0.3467,0.348,0.3206,0.2924,0.2376,0.263,0.2625,0.158,0.1318,0.0793,-0.0,-0.0,-0.0531,-0.211,-0.2374,-0.2893,-0.3919,-0.4191,-0.4202,-0.42,-0.2093,-0.1818,-0.411,-0.4079,-0.3774,-0.2961,-0.3719,-0.3974,-0.3974,-0.4005,-0.4037,-0.4065,-0.4019,-0.3998,0.6088,0.6878,0.7713,0.7257,0.7802,0.8514,0.8043,0.0,0.0,0.0,0.0,0.0,0.0,0.0,0.0,0.0,0.0,0.0,0.0,0.0,1.3425,1.3529,1.3181,1.3055,1.3935,1.3506,1.3606,1.4241,1.371,1.3481,1.3304,1.3241,1.3275,1.3168,1.3107,1.3107,1.3446,1.3897,1.3918,1.3242,1.3446,1.3676,1.3383,1.3404,1.3329,1.3179,1.2343,1.142,1.0445,0.9667,0.8881,0.8363,0.8363,0.839,0.8425,0.8384,0.8357,0.8335,0.8273,0.8251,0.8251,0.8251,0.8251,0.8232,0.8359,0.8359,0.812,0.7498,0.6506,0.5553,0.4598,0.4367,0.4374,0.4367,0.4139,0.4173,0.4211,0.45,0.4531,0.4292,0.4274,0.4507,0.4215,0.3398,0.2605,0.3132,0.2871,0.2093,0.1054,0.0791,-0.0789,-0.3657,-0.4204,-0.4211,-0.4191,-0.4208,-0.3952,-0.315,-0.1567,-0.1291,-0.2796,-0.3538,-0.4009,-0.396,-0.3985,-0.3751,-0.3765,-0.4061,-0.409,-0.4097,-0.4058,-0.4041,0.7098,0.757,0.8038,0.8218,0.8158,0.7992,0.8047,0.7394,0.0,0.7987,0.0,0.0,0.0,0.0,0.0,0.0,0.0,0.0,1.4182,0.0,1.4277,1.4391,1.3732,1.3831,1.4458,1.4819,1.4929,1.5029,1.4771,1.4545,1.4115,1.4115,1.3888,1.3168,1.316,1.3437,1.3988,1.4164,1.3853,1.3066,1.4403,1.4619,1.4,1.4093,1.4071,1.371,1.2285,1.1402,1.0523,0.9739,0.8948,0.8425,0.8425,0.8425,0.8433,0.8425,0.839,0.8335,0.8273,0.8251,0.8251,0.8251,0.8251,0.8489,0.8868,0.9081,0.8814,0.7938,0.7695,0.7491,0.6,0.531,0.51,0.5064,0.4601,0.4148,0.4208,0.4746,0.5026,0.4526,0.4774,0.5002,0.4445,0.4155,0.3885,0.3912,0.3915,0.3925,0.3691,0.2638,0.0526,-0.3657,-0.4204,-0.4222,-0.4218,-0.4222,-0.3147,-0.0517,-0.1291,-0.1535,-0.025,-0.2751,-0.3994,-0.3992,-0.3994,-0.352,-0.2804,-0.3572,-0.4099,-0.4128,-0.4068,-0.3535,0.6825,0.7513,0.8426,0.8094,0.833,0.0,0.0,0.8782,0.8664,0.9564,0.0,0.0,0.0,0.0,0.0,0.0,0.0,1.5545,1.5503,1.4883,1.4439,1.4415,1.4049,1.3903,1.4734,1.4819,1.4929,1.5029,1.51,1.4619,1.3579,1.3845,1.4159,1.3715,1.3337,1.3308,1.4172,1.4674,1.4093,1.296,1.4093,1.4128,1.3613,1.3647,1.3579,1.3166,1.2607,1.1946,1.098,1.0462,0.9708,0.8962,0.8784,0.8523,0.8482,0.8447,0.839,0.8335,0.8273,0.8251,0.8251,0.8251,0.8251,0.8494,0.8922,0.8868,0.856,0.8473,0.8185,0.7687,0.6229,0.5786,0.5577,0.5591,0.5596,0.5117,0.4957,0.5217,0.5744,0.5018,0.5002,0.5234,0.496,0.4426,0.4155,0.4148,0.4162,0.4166,0.4142,0.3632,0.2081,-0.1296,-0.2358,-0.2634,-0.1572,-0.3145,-0.3132,-0.0258,-0.0514,-0.0509,-0.0,-0.0998,-0.1997,-0.2745,-0.3529,-0.3554,-0.2808,-0.3589,-0.4121,-0.4131,-0.409,-0.356,0.6488,0.7149,0.7885,0.7753,0.8465,0.0,1.0334,0.9896,0.9649,1.115,0.0,0.0,0.0,0.0,0.0,0.0,1.5181,1.6201,1.6072,1.5208,1.451,1.4215,1.3844,1.3962,1.4781,1.4872,1.4958,1.5301,1.5412,1.4926,1.3853,1.439,1.4688,1.4484,1.3797,1.3741,1.4605,1.4879,1.4309,1.3438,1.3745,1.381,1.3362,1.3362,1.3296,1.3166,1.2846,1.2203,1.127,1.0726,0.9989,0.9294,0.8848,0.8581,0.8518,0.8455,0.839,0.8335,0.8273,0.8264,0.8278,0.8278,0.8294,0.8294,0.8731,0.8659,0.8337,0.8728,0.8421,0.7902,0.6683,0.6491,0.629,0.6312,0.606,0.5831,0.5406,0.5911,0.6168,0.5711,0.5451,0.5446,0.5195,0.4687,0.417,0.4159,0.4177,0.417,0.4121,0.4131,0.3367,0.1036,0.0261,-0.0,0.052,-0.2341,-0.3109,-0.0257,-0.0,-0.0,-0.0,-0.0,-0.05,-0.1257,-0.2285,-0.2299,-0.1793,-0.3348,-0.4131,-0.4131,-0.3331,-0.3064,0.6649,0.6504,0.6788,0.7565,0.0,0.0,1.1564,1.0572,0.9862,1.2611,0.0,0.0,0.0,0.0,0.0,1.473,1.581,1.6072,1.5429,1.4932,1.4191,1.3527,1.3629,1.3984,1.4867,1.4981,1.531,1.6112,1.6219,1.601,1.52,1.601,1.601,1.52,1.43,1.4781,1.6112,1.4781,1.4241,1.5038,1.4146,1.3889,1.3978,1.3978,1.3978,1.3969,1.2975,1.1896,1.0639,1.0568,0.9827,0.8616,0.8616,0.8581,0.8518,0.8455,0.8398,0.8335,0.8273,0.8294,0.8341,0.8341,0.8384,0.8412,0.8286,0.8725,0.8889,0.8194,0.8389,0.8615,0.8061,0.7399,0.6973,0.6923,0.6491,0.6057,0.6057,0.656,0.6812,0.606,0.6094,0.5886,0.5153,0.4671,0.4184,0.4211,0.4218,0.4208,0.4177,0.4177,0.3654,0.2871,0.3371,0.3356,0.2065,-0.1807,-0.3077,-0.0253,-0.0,-0.0,-0.0,-0.0,-0.0,-0.0,-0.0,-0.0,-0.0,-0.2839,-0.4131,-0.4131,-0.1281,-0.1531,0.7034,0.7224,0.0,0.0,0.0,0.0,0.0,1.1717,0.0,0.0,0.0,0.0,0.0,0.0,0.0,1.4745,1.5492,1.6233,1.6185,1.5183,1.4424,1.4201,1.436,1.4481,1.4772,1.5469,1.5573,1.5315,1.5475,1.5248,1.43,1.4688,1.5248,1.5905,1.4259,1.425,1.6112,1.4781,1.4241,1.5038,1.4218,1.3689,1.3166,1.3104,1.3083,1.307,1.2226,1.1651,1.1365,1.0337,0.9312,0.8551,0.8551,0.8567,0.8572,0.8469,0.8447,0.8461,0.8398,0.839,0.8406,0.8406,0.839,0.8363,0.8327,0.8218,0.8345,0.8036,0.8208,0.8135,0.7875,0.7648,0.7682,0.7708,0.746,0.7217,0.6752,0.7229,0.7465,0.6752,0.677,0.6548,0.6344,0.5673,0.4944,0.4902,0.4457,0.4233,0.418,0.4155,0.3869,0.2808,0.3595,0.385,0.3282,0.228,0.1017,-0.0,-0.0,-0.0,-0.0,-0.0,-0.0,-0.0,-0.0,-0.0,-0.0,-0.0774,-0.2323,-0.4131,-0.3348,-0.3344,0.7467,0.0,0.0,0.0,0.0,0.0,0.0,0.0,0.0,0.0,0.0,0.0,0.0,1.4406,0.0,1.5429,1.5582,1.6003,1.65,1.5248,1.4515,1.485,1.4686,1.4491,1.4781,1.544,1.5252,1.4453,1.4902,1.4949,1.3991,1.439,1.5224,1.6112,1.4241,1.4228,1.6051,1.472,1.4169,1.438,1.4394,1.3867,1.3328,1.3079,1.3091,1.3091,1.2293,1.1442,1.1109,1.0364,0.9318,0.8518,0.9,0.8986,0.8991,0.9172,0.9151,0.9166,0.8916,0.8939,0.8699,0.8461,0.8447,0.8406,0.8357,0.8237,0.8104,0.8055,0.7973,0.7894,0.7894,0.7894,0.7902,0.7943,0.7924,0.7894,0.7386,0.76,0.7831,0.7373,0.7157,0.6954,0.7047,0.5882,0.5161,0.5387,0.4957,0.4486,0.4211,0.4162,0.386,0.3313,0.3566,0.4054,0.3998,0.4023,0.3286,0.1772,0.1013,0.0507,-0.0,-0.0,-0.0,-0.0,-0.103,-0.1033,-0.0,-0.1033,-0.1807,-0.2581,-0.3615,-0.4131,0.0,0.0,0.0,0.0,0.0,0.0,0.0,0.0,0.0,0.0,0.0,0.0,1.5644,1.4863,1.4404,1.5976,1.5787,1.5612,1.6608,1.5612,1.4903,1.5887,1.4781,1.4238,1.4858,1.4881,1.4626,1.3845,1.455,1.4879,1.3969,1.4596,1.5398,1.6086,1.449,1.444,1.5928,1.4334,1.3761,1.3686,1.4205,1.4205,1.3708,1.3349,1.3166,1.371,1.2367,1.1255,1.0656,1.0646,0.9852,0.8778,0.9953,0.9863,0.9296,1.0065,1.0288,0.9995,0.961,0.9427,0.9229,0.8761,0.8504,0.8469,0.8357,0.8237,0.8365,0.8258,0.8177,0.7888,0.7894,0.7894,0.7894,0.7894,0.7888,0.7853,0.7741,0.7706,0.7706,0.7714,0.7276,0.6875,0.7021,0.6084,0.5369,0.5931,0.5707,0.5234,0.4516,0.4184,0.4128,0.4128,0.405,0.3998,0.3994,0.4023,0.3778,0.4001,0.2784,0.153,0.051,-0.0,-0.0,-0.0,-0.2581,-0.2581,-0.0258,-0.2581,-0.2323,-0.0,-0.2581,-0.3873,0.0,0.0,0.0,0.0,0.0,0.0,0.0,0.0,0.0,0.0,0.0,0.0,1.5036,1.5471,1.5476,1.5487,1.5776,1.6115,1.6608,1.5866,1.5363,1.5678,1.5479,1.5519,1.5544,1.5624,1.5454,1.4734,1.4591,1.4309,1.3876,1.3684,1.3925,1.5073,1.3752,1.3476,1.5025,1.3646,1.3372,1.4467,1.3355,1.3646,1.4589,1.3845,1.3104,1.2375,1.1835,1.1284,1.0734,1.0673,1.038,1.0105,1.0218,1.0445,1.0218,1.0418,1.0165,0.9682,0.9452,0.9211,0.8697,0.8447,0.8618,0.9005,0.8981,0.906,0.9364,0.939,0.9093,0.857,0.8615,0.8389,0.7894,0.7894,0.7858,0.7804,0.7728,0.7679,0.7657,0.7706,0.7484,0.7289,0.6923,0.6267,0.5602,0.5451,0.5677,0.5682,0.501,0.4927,0.4605,0.4097,0.4058,0.4019,0.3998,0.3268,0.328,0.403,0.3791,0.3291,0.3038,0.1018,-0.0,-0.0,-0.0516,-0.1549,-0.3098,-0.1549,-0.0516,-0.0,-0.0516,-0.2065,0.0,0.0,0.0,0.0,0.0,0.0,0.0,0.0,0.0,0.0,0.0,1.3963,1.4513,1.4772,1.5077,1.5245,1.557,1.5924,1.6608,1.6124,1.5627,1.6208,1.5995,1.5796,1.5331,1.5649,1.5454,1.3969,1.3978,1.3667,1.3306,1.3037,1.3264,1.4215,1.3153,1.3141,1.4132,1.3307,1.3307,1.3615,1.3615,1.3971,1.443,1.4169,1.3391,1.2375,1.2375,1.1835,1.0751,1.1431,1.0852,1.0047,1.0909,1.1113,1.0887,1.1102,1.1113,1.0646,1.0191,0.9698,0.9181,0.8682,0.885,0.9216,0.9151,0.9513,0.9842,0.9771,0.9534,0.9313,0.883,0.8585,0.8346,0.7888,0.7845,0.779,0.821,0.7913,0.7635,0.8143,0.7932,0.7497,0.6856,0.671,0.6064,0.5405,0.6174,0.6717,0.5787,0.5972,0.5643,0.4621,0.4558,0.4264,0.3994,0.3507,0.3505,0.3978,0.3988,0.3992,0.3978,0.2494,0.1258,-0.0,-0.0,-0.077,-0.2055,-0.2062,-0.1293,-0.0,-0.0,-0.0776,0.0,0.0,0.0,0.0,0.0,0.0,0.0,0.0,0.0,0.0,0.0,1.4196,1.4225,1.4288,1.4375,1.5255,1.5352,1.5715,1.6393,1.6156,1.5949,1.6864,1.6361,1.5877,1.5445,1.5714,1.5214,1.3438,1.3619,1.3563,1.2752,1.2666,1.2866,1.3637,1.2845,1.2812,1.3514,1.3509,1.3,1.2486,1.3629,1.4043,1.3689,1.3689,1.3425,1.2907,1.2907,1.2107,1.1023,1.1927,1.134,0.9989,1.1601,1.176,1.1494,1.1999,1.1999,1.1772,1.0618,1.0141,0.9888,0.8896,0.8821,0.9201,0.932,0.9733,1.0126,0.9938,0.9973,0.9808,0.9027,0.8768,0.8531,0.8112,0.7831,0.8019,0.8463,0.8166,0.7882,0.8355,0.7918,0.7492,0.682,0.6911,0.6759,0.5591,0.6913,0.7754,0.6552,0.6734,0.642,0.5396,0.5052,0.4741,0.3994,0.3994,0.397,0.3914,0.3932,0.3929,0.3898,0.39,0.2954,0.0753,0.0254,-0.0,-0.0,-0.1801,-0.1813,-0.0,-0.0,-0.0,0.0,0.0,0.0,0.0,0.0,0.0,0.0,0.0,0.0,0.0,1.5102,1.4717,1.4807,1.5021,1.5036,1.5235,1.5286,1.5663,1.675,1.6793,1.6891,1.7119,1.7147,1.6875,1.6902,1.6358,1.583,1.4771,1.4146,1.3528,1.2654,1.2572,1.275,1.3434,1.2662,1.2654,1.3412,1.2902,1.2392,1.2392,1.2812,1.2954,1.3058,1.3058,1.2833,1.2907,1.2907,1.2367,1.1556,1.173,1.1651,1.131,1.1468,1.1901,1.2347,1.2351,1.1582,1.0555,1.0322,0.9553,0.8511,0.8981,0.9383,0.9989,1.0337,1.0962,1.1371,1.1327,1.0855,1.0407,0.973,0.9216,0.8469,0.8047,0.7769,0.7733,0.7782,0.7741,0.7698,0.77,0.723,0.677,0.682,0.688,0.6954,0.6805,0.759,0.789,0.7228,0.7114,0.6531,0.5061,0.5021,0.4741,0.3994,0.3994,0.3981,0.3947,0.3922,0.3898,0.3866,0.3891,0.3667,0.3431,0.1251,-0.0,-0.0,0.2058,0.2066,-0.0,-0.0,-0.0,0.0,0.0,0.0,0.0,0.0,0.0,0.0,0.0,0.0,1.5829,1.5597,1.5181,1.4429,1.4676,1.497,1.5077,1.5451,1.6083,1.65,1.6441,1.6345,1.6978,1.6832,1.6672,1.6735,1.6425,1.5597,1.4582,1.4074,1.3407,1.2633,1.2454,1.2616,1.2877,1.2629,1.2629,1.2877,1.2629,1.2425,1.2519,1.2694,1.2813,1.2846,1.2846,1.2866,1.2907,1.2854,1.2328,1.1823,1.1957,1.1881,1.1573,1.196,1.2143,1.2372,1.2372,1.1862,1.0823,1.0265,0.9736,0.8957,0.9151,0.9565,0.9958,1.0586,1.1216,1.1625,1.1572,1.1119,1.0425,0.9927,0.9424,0.8939,0.8033,0.7997,0.8233,0.8369,0.8047,0.772,0.7755,0.7281,0.6813,0.6868,0.6918,0.6966,0.7016,0.7552,0.8098,0.7636,0.7578,0.704,0.5805,0.5514,0.5231,0.4467,0.42,0.417,0.4362,0.4119,0.3866,0.3838,0.3862,0.3887,0.3904,0.2246,0.1011,-0.0,0.2044,0.2835,0.2337,0.1545,0.0773,0.0,0.0,0.0,0.0,0.0,0.0,0.0,0.0,1.6456,0.0,1.6092,1.5681,1.4301,1.4601,1.4903,1.5181,1.5608,1.5776,1.6375,1.5866,1.5811,1.6693,1.6322,1.6193,1.627,1.6204,1.5637,1.4309,1.3752,1.3077,1.2601,1.2131,1.2294,1.262,1.2372,1.2372,1.262,1.2392,1.2486,1.2633,1.2792,1.2886,1.2907,1.2886,1.2886,1.2907,1.2833,1.2571,1.1823,1.2471,1.2387,1.1831,1.2466,1.2641,1.262,1.262,1.2099,1.1047,1.0475,0.9936,0.9399,0.9326,0.9773,1.0207,1.0843,1.1279,1.171,1.1625,1.1399,1.0708,1.0172,0.9892,0.9659,0.8516,0.8501,0.875,0.8668,0.8591,0.8247,0.8019,0.7769,0.7539,0.7355,0.7406,0.7452,0.7229,0.7777,0.8055,0.8055,0.8041,0.7532,0.6273,0.5996,0.5705,0.4924,0.4156,0.4111,0.4773,0.4314,0.3838,0.3817,0.3851,0.388,0.3904,0.3246,0.2272,0.101,0.2035,0.3085,0.3902,0.3087,0.206,0.0,0.0,0.0,0.0,0.0,0.0,0.0,0.0,1.6281,1.5435,1.5597,1.5783,1.4812,1.4771,1.5062,1.5671,1.5046,1.472,1.6324,1.5444,1.5112,1.6219,1.6275,1.6285,1.6285,1.6285,1.592,1.4919,1.3476,1.2592,1.2519,1.1643,1.1854,1.3385,1.262,1.262,1.3385,1.2716,1.2547,1.2633,1.2727,1.2821,1.2907,1.2813,1.2821,1.2907,1.2907,1.2367,1.1823,1.2531,1.2707,1.2621,1.3307,1.3465,1.3385,1.3385,1.2566,1.1224,1.0458,1.0156,1.0077,1.0009,1.0473,1.094,1.1515,1.1759,1.1813,1.1719,1.1698,1.1451,1.0962,1.0659,1.0377,0.973,0.9258,0.8546,0.8129,0.8879,0.956,0.8713,0.9115,0.9083,0.868,0.8501,0.8582,0.7965,0.7987,0.7992,0.7992,0.7938,0.7414,0.6175,0.5927,0.566,0.4885,0.4365,0.4089,0.4773,0.4056,0.3817,0.3817,0.3873,0.3904,0.3904,0.3994,0.4041,0.3788,0.4072,0.3847,0.3876,0.3873,0.3873,0.8453,0.0,0.0,0.0,0.0,0.0,0.0,1.5571,1.6331,1.5794,1.5799,1.6076,1.574,1.5671,1.5381,1.5181,1.5409,1.5882,1.651,1.5519,1.5504,1.6698,1.6244,1.601,1.6825,1.6482,1.5845,1.4896,1.3939,1.3055,1.2507,1.2111,1.2051,1.262,1.2629,1.2629,1.2877,1.2519,1.2601,1.2633,1.2727,1.2821,1.2907,1.2748,1.2727,1.2813,1.276,1.276,1.3083,1.3251,1.3682,1.3835,1.4003,1.3935,1.4154,1.3824,1.3275,1.247,1.2098,1.1287,1.0754,1.091,1.0891,1.0872,1.1555,1.1772,1.1751,1.1784,1.1503,1.0973,1.0726,1.0708,1.0689,1.0472,1.007,0.939,0.9125,0.961,0.9842,0.9554,0.9521,0.9511,0.9043,0.8824,0.8615,0.7924,0.7929,0.7929,0.7929,0.7908,0.7399,0.5923,0.5923,0.5645,0.5332,0.4834,0.4807,0.5249,0.5268,0.4815,0.3873,0.44,0.4424,0.3932,0.3967,0.4003,0.4041,0.4072,0.4099,0.4131,0.411,0.3599,0.7914,0.9138,0.0,0.0,0.0,1.4021,1.4404,1.5271,1.6021,1.5698,1.5767,1.5863,1.5906,1.5634,1.5342,1.5061,1.5529,1.5987,1.6318,1.5049,1.4734,1.6384,1.5647,1.5412,1.6219,1.6153,1.5523,1.4575,1.3664,1.3043,1.2466,1.2091,1.2051,1.2372,1.2372,1.2372,1.2372,1.2547,1.2633,1.2633,1.276,1.2846,1.2907,1.2748,1.2699,1.2987,1.292,1.3196,1.3774,1.3939,1.4374,1.4826,1.4976,1.4912,1.4613,1.4282,1.3705,1.3124,1.2494,1.1691,1.1169,1.1349,1.1575,1.1575,1.207,1.2277,1.2491,1.2548,1.2008,1.1698,1.1495,1.1259,1.1012,1.0764,1.0604,1.0419,1.0116,0.9876,0.9887,1.0081,1.0074,1.0081,0.9364,0.9348,0.9109,0.8412,0.8157,0.8143,0.8143,0.8143,0.7401,0.6416,0.6169,0.6131,0.6033,0.5545,0.5289,0.5963,0.5765,0.5079,0.4148,0.467,0.4691,0.3949,0.4219,0.4248,0.4041,0.4061,0.4093,0.4131,0.411,0.3082,0.0,0.0,0.0,1.1596,0.0,0.0,1.406,1.5039,1.5366,1.5124,1.501,1.5128,1.526,1.4858,1.4637,1.5053,1.4868,1.4763,1.5745,1.4029,1.334,1.4757,1.5038,1.4781,1.425,1.531,1.5479,1.3957,1.3153,1.2552,1.238,1.1862,1.1601,1.2372,1.2372,1.2372,1.2372,1.2539,1.2633,1.2633,1.2813,1.2895,1.2895,1.2801,1.2975,1.3673,1.3673,1.3673,1.3664,1.436,1.5085,1.5602,1.6254,1.5887,1.5271,1.4501,1.3864,1.2704,1.1459,1.1408,1.1833,1.1092,1.1825,1.2806,1.2806,1.3301,1.3791,1.3791,1.3715,1.3411,1.3029,1.232,1.1587,1.1088,1.1338,1.1338,1.0109,0.9921,1.0179,1.052,1.0726,1.0509,0.9853,1.029,1.029,0.9207,0.8916,0.8879,0.8879,0.8384,0.7648,0.6911,0.6911,0.6868,0.6765,0.6269,0.6011,0.668,0.5525,0.4842,0.4882,0.4921,0.4691,0.3949,0.4507,0.4795,0.4041,0.4043,0.4072,0.4131,0.4131,0.2581,0.7589,0.0,0.0,0.0,0.0,0.0,1.1418,1.2121,1.315,1.4546,1.4654,1.5047,1.6168,1.6045,1.5835,1.485,1.4686,1.4786,1.5102,1.4403,1.3947,1.4771,1.4513,1.4513,1.5315,1.4905,1.4528,1.4481,1.3294,1.2675,1.3138,1.2881,1.262,1.2372,1.2372,1.2372,1.2372,1.2486,1.2572,1.2633,1.2686,1.2739,1.2801,1.3111,1.3237,1.3478,1.3907,1.4391,1.4907,1.5298,1.5561,1.6254,1.6385,1.626,1.589,1.5061,1.4686,1.4075,1.3338,1.2828,1.2557,1.2806,1.2806,1.2806,1.3292,1.3541,1.3791,1.3791,1.3763,1.3504,1.3042,1.232,1.1833,1.1587,1.1338,1.1092,1.1338,1.0622,1.0126,1.0575,1.0813,1.0813,1.0593,1.0337,0.9842,0.915,0.8398,0.8143,0.8143,0.8346,0.8092,0.6906,0.7365,0.7327,0.6813,0.6563,0.6559,0.6789,0.6556,0.5859,0.4921,0.5452,0.5213,0.3949,0.4732,0.4769,0.4041,0.4086,0.4113,0.4131,0.3356,0.3098,0.7283,0.8153,0.9136,0.8537,0.0,0.0,1.0857,1.1462,1.2405,1.424,1.4648,1.4822,1.6201,1.6087,1.5653,1.5292,1.4858,1.438,1.4417,1.3912,1.3654,1.4449,1.4146,1.4124,1.465,1.4007,1.3673,1.389,1.2966,1.2608,1.2826,1.2813,1.2834,1.2372,1.2372,1.2392,1.2425,1.2474,1.2572,1.2686,1.2654,1.2419,1.2226,1.2716,1.306,1.3275,1.3925,1.4607,1.5582,1.5813,1.6126,1.6304,1.619,1.6065,1.5951,1.514,1.4827,1.4771,1.4036,1.3541,1.3301,1.3786,1.3786,1.3786,1.4036,1.4521,1.4526,1.4526,1.4286,1.3777,1.3246,1.2535,1.1833,1.1833,1.1587,1.1338,1.1338,1.0843,1.0604,1.113,1.1107,1.0861,1.094,1.0891,1.0365,0.9406,0.8894,0.863,0.8389,0.8352,0.8098,0.7399,0.7861,0.8076,0.7322,0.7558,0.7558,0.7322,0.7076,0.6367,0.5676,0.6197,0.5709,0.4463,0.4994,0.5043,0.4079,0.409,0.4106,0.4131,0.3098,0.3362,0.721,0.8035,0.9192,0.9097,0.9209,0.0,1.1294,1.1577,1.2084,1.3916,1.3964,1.4152,1.6029,1.5439,1.4802,1.5479,1.4542,1.3845,1.396,1.337,1.305,1.3854,1.3761,1.3441,1.2908,1.3132,1.335,1.2758,1.2662,1.2331,1.2253,1.2245,1.2286,1.2372,1.2372,1.2413,1.2486,1.2498,1.258,1.2739,1.2654,1.2387,1.1919,1.2111,1.2673,1.3308,1.3972,1.4863,1.5771,1.5994,1.6092,1.6076,1.5951,1.5825,1.5711,1.4979,1.473,1.473,1.4012,1.3777,1.3791,1.3791,1.4276,1.4771,1.4776,1.5255,1.5755,1.5755,1.4776,1.3767,1.3667,1.2749,1.1837,1.1837,1.1845,1.1599,1.11,1.0854,1.113,1.1972,1.1408,1.0891,1.1037,1.1439,1.1369,1.0196,0.9904,0.961,0.8879,0.8384,0.7888,0.7894,0.8384,0.86,0.7818,0.8302,0.8546,0.7812,0.7335,0.6868,0.6918,0.693,0.6455,0.5245,0.5538,0.534,0.4128,0.4075,0.4079,0.4131,0.3356,0.3371,0.8405,0.8822,0.9312,0.8385,0.9013,0.0,0.8375,0.9281,1.0555,1.1398,1.2055,1.2756,1.4521,1.4301,1.3901,1.4027,1.4253,1.4467,1.4734,1.3689,1.3145,1.3956,1.3328,1.3008,1.3541,1.3,1.2587,1.3164,1.3073,1.2792,1.2339,1.2847,1.286,1.2372,1.2372,1.238,1.24,1.24,1.2454,1.256,1.2539,1.2758,1.2958,1.3497,1.4034,1.434,1.5062,1.5532,1.5771,1.5907,1.5967,1.5951,1.5842,1.5657,1.5456,1.4741,1.4496,1.4506,1.3876,1.3715,1.3791,1.4521,1.4771,1.5021,1.5505,1.5755,1.5755,1.5755,1.5271,1.4526,1.4496,1.3527,1.2557,1.2557,1.2375,1.1939,1.1691,1.1691,1.1984,1.2903,1.1743,1.11,1.1627,1.1357,1.085,1.0126,0.9381,0.8879,0.8143,0.8337,0.8331,0.7888,0.8337,0.8567,0.7875,0.8121,0.8121,0.7875,0.7921,0.7452,0.6973,0.7557,0.7335,0.5795,0.5581,0.4845,0.4097,0.4106,0.4121,0.4131,0.3873,0.3889,0.857,0.8753,0.9024,0.8263,0.8414,0.0,0.0,0.8582,0.9304,1.0555,1.1129,1.1929,1.3537,1.3484,1.3121,1.3458,1.3626,1.3986,1.4391,1.4169,1.381,1.3761,1.3407,1.3064,1.3021,1.2595,1.2233,1.2233,1.2491,1.2258,1.1277,1.2047,1.2059,1.185,1.185,1.2131,1.2433,1.2433,1.2466,1.2507,1.2675,1.2834,1.2737,1.3443,1.3729,1.4109,1.4793,1.5483,1.598,1.6092,1.6352,1.6542,1.5817,1.5461,1.5304,1.4823,1.4902,1.5013,1.4577,1.4679,1.4771,1.5271,1.5271,1.526,1.5755,1.5755,1.5755,1.5755,1.5255,1.4771,1.4771,1.3791,1.2819,1.2864,1.2418,1.1959,1.1959,1.1992,1.2025,1.2541,1.1959,1.1659,1.2452,1.2137,1.1575,1.0593,0.9859,0.9371,0.8879,0.8845,0.8591,0.8384,0.8848,0.8839,0.7894,0.8143,0.8143,0.7894,0.8199,0.8227,0.7486,0.8323,0.7864,0.609,0.5113,0.4371,0.4128,0.4146,0.4146,0.4131,0.4146,0.4169,0.9408,0.9158,0.9224,0.861,0.8492,0.8245,0.0,0.0,0.0,0.9976,1.03,1.0795,1.2144,1.201,1.1904,1.2654,1.2718,1.2647,1.3081,1.3827,1.393,1.3399,1.3377,1.2813,1.2213,1.1895,1.1588,1.1075,1.1356,1.115,1.0447,1.0723,1.1266,1.1571,1.1571,1.1862,1.2683,1.2683,1.2662,1.2633,1.3262,1.3124,1.2486,1.3406,1.3726,1.3678,1.4565,1.5238,1.6167,1.6294,1.6745,1.7116,1.6033,1.5519,1.542,1.542,1.5336,1.5532,1.5532,1.563,1.5755,1.5755,1.5755,1.5755,1.5755,1.5755,1.5755,1.5755,1.5532,1.5047,1.4796,1.3815,1.3101,1.293,1.2464,1.1959,1.1984,1.2045,1.2308,1.2179,1.243,1.2726,1.2782,1.2669,1.232,1.1088,1.0348,1.0105,0.9859,0.9374,0.8879,0.863,0.9364,0.9364,0.788,0.8621,0.863,0.8143,0.8707,0.8752,0.8272,0.8592,0.8147,0.6393,0.5153,0.4664,0.4684,0.4431,0.4162,0.4142,0.417,0.4197,1.1839,1.1397,1.0965,1.0008,0.982,0.958,0.7524,0.0,0.8756,0.7881,0.0,0.8889,0.976,0.0,0.0,0.9948,1.0402,1.0684,1.068,1.1503,1.2366,1.2864,1.2605,1.2213,1.2119,1.0843,1.0509,1.0966,0.987,0.9921,1.0952,1.0776,1.1043,1.1999,1.1999,1.247,1.2908,1.3659,1.3817,1.3635,1.3696,1.3829,1.4035,1.4808,1.52,1.5007,1.6276,1.6728,1.6172,1.7001,1.7214,1.7104,1.688,1.6573,1.5988,1.5988,1.5672,1.5401,1.5401,1.5559,1.5755,1.5755,1.5755,1.5755,1.5755,1.5755,1.5755,1.5755,1.5825,1.5655,1.4919,1.4424,1.3686,1.2956,1.2464,1.1984,1.2066,1.2596,1.3124,1.3191,1.3817,1.3924,1.2362,1.1845,1.1587,1.0843,1.0843,1.0355,0.9125,0.9364,0.9374,0.8143,0.9125,0.9339,0.7818,0.86,0.8879,0.8876,0.8995,0.9096,0.9161,0.8511,0.8033,0.7216,0.7007,0.6493,0.594,0.546,0.4696,0.4173,0.4202,0.4215,1.2292,1.1881,1.1258,1.024,1.0004,0.9331,0.7946,0.7895,0.8335,0.8211,0.0,0.0,0.0,0.0,0.0,0.0,0.94,0.9598,0.9225,0.9996,1.0794,1.1486,1.1423,1.1299,1.1369,1.0756,1.0491,1.039,1.0011,1.0025,0.974,1.0241,1.1015,1.2074,1.1572,1.2078,1.3599,1.3554,1.3471,1.3872,1.4051,1.4431,1.4536,1.5478,1.5851,1.5689,1.6686,1.7104,1.6982,1.7043,1.7506,1.8157,1.7683,1.7185,1.6425,1.6425,1.6543,1.6247,1.609,1.5992,1.6154,1.5972,1.5755,1.5755,1.5755,1.5755,1.5755,1.6238,1.6032,1.5836,1.5655,1.4641,1.364,1.3263,1.2541,1.2045,1.2596,1.2895,1.3173,1.3599,1.401,1.3915,1.3078,1.3056,1.257,1.1587,1.113,1.0917,1.067,1.067,1.0419,0.968,1.0133,1.0088,0.9084,0.8863,0.8894,0.8934,0.8814,0.8664,0.924,0.83,0.7553,0.7273,0.7058,0.6299,0.5784,0.5275,0.5018,0.4229,0.424,0.4247,1.3165,1.2758,1.2339,1.0905,1.017,0.9277,0.836,0.8074,0.8095,0.8643,0.8539,0.0,0.0,0.0,0.7469,0.7739,0.0,0.8219,0.7934,0.8123,0.8794,0.9927,1.0311,1.0464,1.037,1.0079,0.9858,0.973,0.9837,0.9591,0.9517,1.0001,1.1012,1.2095,1.1647,1.2179,1.3934,1.3663,1.3863,1.4261,1.4654,1.4808,1.4751,1.6135,1.6514,1.6155,1.7104,1.7493,1.782,1.7361,1.782,1.8762,1.8298,1.782,1.7361,1.7123,1.7216,1.7122,1.6745,1.6409,1.6559,1.6165,1.6005,1.5809,1.5798,1.5825,1.6104,1.6579,1.6373,1.5923,1.6005,1.5218,1.3948,1.3576,1.3102,1.2847,1.3358,1.3659,1.3673,1.402,1.424,1.4439,1.3815,1.3541,1.3315,1.2354,1.1679,1.1467,1.1751,1.1498,1.1245,1.0754,1.0929,1.088,0.9887,0.94,0.9188,0.8782,0.8641,0.8731,0.905,0.8075,0.7582,0.7582,0.7113,0.6616,0.5842,0.5589,0.5331,0.4542,0.4274,0.4271,1.5033,1.4814,1.4483,1.227,1.0843,0.9938,0.8818,0.8357,0.8147,0.8082,0.8297,0.8457,0.7695,0.757,0.7194,0.6036,0.611,0.0,0.0,0.5439,0.6135,0.8608,0.9355,0.9568,0.9648,0.8303,0.804,0.9413,0.8132,0.8608,1.1183,1.0155,1.0443,1.2301,1.2713,1.2961,1.3506,1.4912,1.5586,1.5249,1.5472,1.5461,1.5233,1.6537,1.6745,1.6155,1.7569,1.7955,1.782,1.782,1.8065,1.8762,1.8762,1.8762,1.8755,1.8059,1.7443,1.7104,1.7104,1.6805,1.6542,1.6542,1.6227,1.5923,1.5923,1.6005,1.6347,1.6841,1.6687,1.6277,1.6277,1.5761,1.4977,1.4385,1.4105,1.4105,1.4105,1.4602,1.4857,1.4096,1.5102,1.5529,1.4075,1.3301,1.2841,1.293,1.2452,1.1739,1.1326,1.1592,1.1588,1.0332,1.1268,1.1459,1.0213,0.9975,0.9529,0.841,0.8981,0.905,0.8335,0.8398,0.8433,0.8433,0.8488,0.7963,0.7383,0.664,0.5879,0.5383,0.4576,0.4292,1.5914,1.5801,1.526,1.3549,1.2239,1.0991,0.9287,0.9162,0.9327,0.8778,0.9259,0.9675,0.8825,0.845,0.8048,0.7075,0.6949,0.6782,0.0,0.5643,0.5472,0.5981,0.7057,0.8113,0.8137,0.7935,0.8201,0.8724,0.8601,0.9063,1.0449,1.0518,1.1032,1.2227,1.2474,1.3275,1.457,1.4715,1.5259,1.6175,1.569,1.5445,1.5461,1.7019,1.7212,1.6989,1.8175,1.8818,1.8443,1.8091,1.8298,1.8762,1.8284,1.8517,1.8762,1.8523,1.8317,1.8144,1.7785,1.7214,1.6426,1.6513,1.6109,1.5728,1.588,1.5951,1.6248,1.7322,1.6886,1.619,1.6765,1.5976,1.4912,1.4448,1.4158,1.4375,1.4695,1.4847,1.5036,1.5435,1.5847,1.574,1.5487,1.4742,1.4235,1.371,1.3071,1.2912,1.269,1.2437,1.1935,1.1425,1.1855,1.1803,1.1549,1.0594,0.9662,0.8218,0.8539,0.8595,0.8398,0.8461,0.8496,0.8496,0.8551,0.8035,0.6682,0.6699,0.5922,0.4609,0.4338,0.4334,1.6278,1.6182,1.5889,1.4223,1.3383,1.2321,1.0282,1.0361,1.0532,0.9714,1.0136,1.0543,0.9786,0.9068,0.8345,0.7592,0.6974,0.6315,0.0,0.5194,0.5023,0.4185,0.5811,0.7255,0.7521,0.7521,0.7774,0.8543,0.8588,0.9024,1.0185,1.0943,1.1478,1.2019,1.2745,1.359,1.4964,1.4849,1.5445,1.6542,1.5778,1.5559,1.5646,1.7126,1.7519,1.7299,1.8431,1.8805,1.8905,1.8098,1.8298,1.8762,1.8284,1.8517,1.8762,1.8762,1.8762,1.8776,1.8403,1.7619,1.6596,1.6684,1.6357,1.5798,1.594,1.6048,1.6391,1.772,1.7246,1.6502,1.7592,1.6787,1.5492,1.5513,1.5245,1.5477,1.6217,1.6092,1.6037,1.6447,1.6347,1.6259,1.6092,1.5917,1.5179,1.4322,1.3668,1.3262,1.3297,1.2792,1.2278,1.2533,1.2204,1.1895,1.1387,1.0705,0.9746,0.8508,0.8286,0.8349,0.8433,0.8469,0.851,0.8559,0.8594,0.8076,0.6731,0.6731,0.595,0.4915,0.4645,0.4376]},{"header":{"parameterUnit":"m.s-1","parameterCategory":1,"la1":30.6,"la2":29.2853,"lo1":-89.7004,"lo2":-87.6739,"dy":0.0162,"dx":0.0183,"nx":112,"ny":82,"refTime":"2024-04-07T00:00:00:Z","depth":0,"parameterNumber":3,"parameterNumberName":"V-component_of_WINDS"},"data":[0.0,0.0,0.0,0.0,0.0,0.0,0.0,0.0,0.0,0.0,0.0,0.0,0.0,0.0,0.0,0.0,0.0,0.0,0.0,0.0,0.0,0.0,0.0,0.0,0.0,0.0,0.0,0.0,0.0,0.0,0.0,0.0,0.0,0.0,0.0,0.0,0.0,0.0,0.0,0.0,0.0,0.0,0.0,0.0,0.0,0.0,0.0,0.0,0.0,0.0,0.0,0.0,0.0,0.0,0.0,0.0,0.0,0.0,0.0,0.0,0.0,0.0,0.0,0.0,0.0,0.0,0.0,0.0,0.0,0.0,0.0,0.0,0.0,0.0,0.0,0.0,0.0,0.0,0.0,0.0,0.0,0.0,0.0,0.0,0.0,0.0,0.0,0.0,0.0,0.0,-8.6929,-8.9998,-9.6425,-9.9705,-9.7864,-9.7704,-9.3778,-8.4506,0.0,0.0,0.0,0.0,0.0,0.0,0.0,0.0,0.0,0.0,0.0,0.0,0.0,0.0,0.0,0.0,0.0,0.0,0.0,0.0,0.0,0.0,0.0,0.0,0.0,0.0,0.0,0.0,0.0,0.0,0.0,0.0,0.0,0.0,0.0,0.0,0.0,0.0,0.0,0.0,0.0,0.0,0.0,0.0,0.0,0.0,0.0,0.0,0.0,0.0,0.0,0.0,0.0,0.0,0.0,0.0,0.0,0.0,0.0,0.0,0.0,0.0,0.0,0.0,0.0,0.0,0.0,0.0,0.0,0.0,0.0,0.0,0.0,0.0,0.0,0.0,0.0,0.0,0.0,0.0,0.0,0.0,0.0,0.0,0.0,0.0,0.0,0.0,0.0,0.0,0.0,0.0,0.0,0.0,0.0,0.0,0.0,0.0,0.0,0.0,0.0,0.0,0.0,0.0,-8.7519,-9.6394,-9.9707,-10.0595,-9.875,-9.7904,-9.4406,-8.7252,0.0,0.0,0.0,0.0,0.0,0.0,0.0,0.0,0.0,0.0,0.0,0.0,0.0,0.0,0.0,0.0,0.0,0.0,0.0,0.0,0.0,0.0,0.0,0.0,0.0,0.0,0.0,0.0,0.0,0.0,0.0,0.0,0.0,0.0,0.0,0.0,0.0,0.0,0.0,0.0,0.0,0.0,0.0,0.0,0.0,0.0,0.0,0.0,0.0,0.0,0.0,0.0,0.0,0.0,0.0,0.0,0.0,0.0,0.0,0.0,0.0,0.0,0.0,0.0,0.0,0.0,0.0,0.0,0.0,0.0,0.0,0.0,0.0,0.0,0.0,0.0,0.0,0.0,0.0,0.0,0.0,0.0,0.0,0.0,0.0,0.0,0.0,0.0,0.0,0.0,0.0,0.0,0.0,0.0,0.0,0.0,0.0,0.0,0.0,0.0,0.0,0.0,0.0,-8.6439,-9.0937,-9.8884,-10.1276,-10.1585,-9.9891,-9.9351,-9.6001,-8.8682,-8.5467,0.0,0.0,0.0,0.0,0.0,0.0,0.0,0.0,0.0,0.0,0.0,0.0,0.0,0.0,0.0,0.0,0.0,0.0,0.0,0.0,0.0,0.0,0.0,0.0,0.0,0.0,0.0,0.0,0.0,0.0,0.0,0.0,0.0,0.0,0.0,0.0,0.0,0.0,0.0,0.0,0.0,0.0,0.0,0.0,0.0,0.0,0.0,0.0,0.0,0.0,0.0,0.0,0.0,0.0,0.0,0.0,0.0,0.0,0.0,0.0,0.0,0.0,0.0,0.0,0.0,0.0,0.0,0.0,0.0,0.0,0.0,0.0,0.0,0.0,0.0,0.0,0.0,0.0,0.0,0.0,0.0,0.0,0.0,0.0,0.0,0.0,0.0,0.0,0.0,0.0,0.0,0.0,0.0,0.0,0.0,0.0,0.0,0.0,0.0,0.0,0.0,0.0,-9.2543,-9.5618,-10.0904,-10.2605,-10.2572,-10.0877,-10.0093,-9.6653,-8.9656,-8.5516,0.0,0.0,0.0,0.0,0.0,0.0,0.0,0.0,0.0,0.0,0.0,0.0,0.0,0.0,0.0,0.0,0.0,0.0,0.0,0.0,0.0,0.0,0.0,0.0,0.0,0.0,0.0,0.0,0.0,0.0,0.0,0.0,0.0,0.0,0.0,0.0,0.0,0.0,0.0,0.0,0.0,0.0,0.0,0.0,0.0,0.0,0.0,0.0,0.0,0.0,0.0,0.0,0.0,0.0,0.0,0.0,0.0,0.0,0.0,0.0,0.0,0.0,0.0,0.0,0.0,0.0,0.0,0.0,0.0,0.0,0.0,0.0,0.0,0.0,0.0,0.0,0.0,0.0,0.0,0.0,0.0,0.0,0.0,0.0,0.0,0.0,0.0,0.0,0.0,0.0,0.0,0.0,0.0,0.0,0.0,0.0,0.0,0.0,0.0,0.0,0.0,0.0,-9.6123,-10.109,-10.3784,-10.421,-10.3488,-10.1697,-9.861,-9.4872,-9.0396,-8.4686,0.0,0.0,0.0,0.0,0.0,0.0,0.0,0.0,0.0,0.0,0.0,0.0,0.0,0.0,0.0,0.0,0.0,0.0,0.0,0.0,0.0,0.0,0.0,0.0,0.0,0.0,0.0,0.0,0.0,0.0,0.0,0.0,0.0,0.0,0.0,0.0,0.0,0.0,0.0,0.0,0.0,0.0,0.0,0.0,0.0,0.0,0.0,0.0,0.0,0.0,0.0,0.0,0.0,0.0,0.0,0.0,0.0,0.0,0.0,0.0,0.0,0.0,0.0,0.0,0.0,0.0,0.0,0.0,0.0,0.0,0.0,0.0,0.0,0.0,0.0,0.0,0.0,0.0,0.0,0.0,0.0,0.0,0.0,0.0,0.0,0.0,0.0,0.0,0.0,0.0,0.0,0.0,0.0,0.0,0.0,0.0,0.0,0.0,0.0,0.0,0.0,0.0,-9.5891,-10.0722,-10.4906,-10.6169,-10.5873,-10.3707,-10.2212,-9.8238,-9.0779,0.0,0.0,0.0,0.0,0.0,0.0,0.0,0.0,0.0,0.0,0.0,0.0,0.0,0.0,0.0,0.0,0.0,0.0,0.0,0.0,0.0,0.0,0.0,0.0,0.0,0.0,0.0,0.0,0.0,0.0,0.0,0.0,0.0,0.0,0.0,0.0,0.0,0.0,0.0,0.0,0.0,0.0,0.0,0.0,0.0,0.0,0.0,0.0,0.0,0.0,0.0,0.0,0.0,0.0,0.0,0.0,0.0,0.0,0.0,0.0,0.0,0.0,0.0,0.0,0.0,0.0,0.0,0.0,0.0,0.0,0.0,0.0,0.0,0.0,0.0,0.0,0.0,0.0,0.0,0.0,0.0,0.0,0.0,0.0,0.0,0.0,0.0,0.0,0.0,0.0,0.0,0.0,0.0,0.0,0.0,0.0,0.0,0.0,0.0,0.0,0.0,0.0,-9.1386,-9.7406,-10.25,-10.6018,-10.7493,-10.7277,-10.4799,-10.3297,-9.8979,-9.0903,0.0,0.0,0.0,0.0,0.0,0.0,0.0,0.0,0.0,0.0,0.0,0.0,0.0,0.0,0.0,0.0,0.0,0.0,0.0,0.0,0.0,0.0,0.0,0.0,0.0,0.0,0.0,0.0,0.0,0.0,0.0,0.0,0.0,0.0,0.0,0.0,0.0,0.0,0.0,0.0,0.0,0.0,0.0,0.0,0.0,0.0,0.0,0.0,0.0,0.0,0.0,0.0,0.0,0.0,0.0,0.0,0.0,0.0,0.0,0.0,0.0,0.0,0.0,0.0,0.0,0.0,0.0,0.0,0.0,0.0,0.0,0.0,0.0,0.0,0.0,0.0,0.0,0.0,0.0,0.0,0.0,0.0,0.0,0.0,0.0,0.0,0.0,0.0,0.0,0.0,0.0,0.0,0.0,0.0,0.0,0.0,0.0,0.0,0.0,0.0,0.0,0.0,-9.2898,-10.1604,-10.7391,-10.7391,-10.8089,-10.7492,-10.479,-10.0693,-9.6018,0.0,0.0,0.0,0.0,0.0,0.0,0.0,0.0,0.0,0.0,0.0,0.0,0.0,0.0,0.0,0.0,0.0,0.0,0.0,0.0,0.0,0.0,0.0,0.0,0.0,0.0,0.0,0.0,0.0,0.0,0.0,0.0,0.0,0.0,0.0,0.0,0.0,0.0,0.0,0.0,0.0,0.0,0.0,0.0,0.0,0.0,0.0,0.0,0.0,0.0,0.0,0.0,0.0,0.0,0.0,0.0,0.0,0.0,0.0,0.0,0.0,0.0,0.0,0.0,0.0,0.0,0.0,0.0,0.0,0.0,0.0,0.0,0.0,0.0,0.0,0.0,0.0,0.0,0.0,0.0,0.0,0.0,0.0,0.0,0.0,0.0,0.0,0.0,0.0,0.0,0.0,0.0,0.0,0.0,0.0,0.0,0.0,0.0,0.0,0.0,0.0,0.0,0.0,-9.5305,-10.3196,-10.9009,-11.0809,-11.0678,-10.9382,-10.6716,-10.3579,-9.8292,-9.0133,0.0,0.0,0.0,0.0,0.0,0.0,0.0,0.0,0.0,0.0,0.0,0.0,0.0,0.0,0.0,0.0,0.0,0.0,0.0,0.0,0.0,0.0,0.0,0.0,0.0,0.0,0.0,0.0,0.0,0.0,0.0,0.0,0.0,0.0,0.0,0.0,0.0,0.0,0.0,0.0,0.0,0.0,0.0,0.0,0.0,0.0,0.0,0.0,0.0,0.0,0.0,0.0,0.0,0.0,0.0,0.0,0.0,0.0,0.0,0.0,0.0,0.0,0.0,0.0,0.0,0.0,0.0,0.0,0.0,0.0,0.0,0.0,0.0,0.0,0.0,0.0,0.0,0.0,0.0,0.0,0.0,0.0,0.0,0.0,0.0,0.0,0.0,0.0,0.0,0.0,0.0,0.0,0.0,0.0,0.0,0.0,0.0,0.0,0.0,0.0,0.0,0.0,-9.595,-10.4012,-10.9786,-11.1417,-11.143,-11.0212,-10.7507,-10.5176,-10.0313,-9.1915,0.0,0.0,0.0,0.0,0.0,0.0,0.0,0.0,0.0,0.0,0.0,0.0,0.0,0.0,0.0,0.0,0.0,0.0,0.0,0.0,0.0,0.0,0.0,0.0,0.0,0.0,0.0,0.0,0.0,0.0,0.0,0.0,0.0,0.0,0.0,0.0,0.0,0.0,0.0,0.0,0.0,0.0,0.0,0.0,0.0,0.0,0.0,0.0,0.0,0.0,0.0,0.0,0.0,0.0,0.0,0.0,0.0,0.0,0.0,0.0,0.0,0.0,0.0,0.0,0.0,0.0,0.0,0.0,0.0,0.0,0.0,0.0,0.0,0.0,0.0,0.0,0.0,0.0,0.0,0.0,0.0,0.0,0.0,0.0,0.0,0.0,0.0,0.0,0.0,0.0,0.0,0.0,0.0,0.0,0.0,0.0,0.0,0.0,0.0,0.0,0.0,0.0,-9.5451,-10.4114,-11.0019,-11.0213,-11.0796,-11.0187,-10.7689,-10.5826,-10.1919,-9.5054,0.0,0.0,0.0,0.0,0.0,0.0,0.0,0.0,0.0,0.0,0.0,0.0,0.0,0.0,0.0,0.0,0.0,0.0,0.0,0.0,0.0,0.0,0.0,0.0,0.0,0.0,0.0,0.0,0.0,0.0,0.0,0.0,0.0,0.0,0.0,0.0,0.0,0.0,0.0,0.0,0.0,0.0,0.0,0.0,0.0,0.0,0.0,0.0,0.0,0.0,0.0,0.0,0.0,0.0,0.0,0.0,0.0,0.0,0.0,0.0,-7.5339,-7.2411,0.0,0.0,0.0,0.0,0.0,0.0,0.0,0.0,0.0,0.0,0.0,0.0,0.0,0.0,0.0,0.0,0.0,0.0,0.0,0.0,0.0,0.0,0.0,0.0,0.0,0.0,0.0,0.0,0.0,0.0,0.0,0.0,0.0,0.0,0.0,0.0,0.0,0.0,0.0,0.0,-9.6271,-10.3982,-10.9786,-11.1806,-11.099,-10.9786,-10.8591,-10.6313,-10.221,-9.5972,-9.1703,0.0,0.0,0.0,0.0,0.0,0.0,0.0,0.0,0.0,0.0,0.0,0.0,0.0,0.0,0.0,0.0,0.0,0.0,0.0,0.0,0.0,0.0,0.0,0.0,0.0,0.0,0.0,0.0,0.0,0.0,0.0,0.0,0.0,0.0,0.0,0.0,0.0,0.0,0.0,0.0,0.0,0.0,0.0,0.0,0.0,0.0,0.0,0.0,0.0,0.0,0.0,0.0,0.0,0.0,0.0,0.0,0.0,0.0,0.0,-8.066,-7.8071,0.0,0.0,0.0,0.0,0.0,0.0,0.0,0.0,0.0,0.0,0.0,0.0,0.0,0.0,0.0,0.0,0.0,0.0,0.0,0.0,0.0,0.0,0.0,0.0,0.0,0.0,0.0,0.0,0.0,0.0,0.0,0.0,0.0,0.0,0.0,0.0,0.0,0.0,0.0,0.0,-9.6021,-10.3799,-10.9781,-11.2283,-11.2206,-11.1506,-11.069,-10.8995,-10.559,-9.9941,-9.5111,0.0,0.0,0.0,0.0,0.0,0.0,0.0,0.0,0.0,0.0,0.0,0.0,0.0,0.0,0.0,0.0,0.0,0.0,0.0,0.0,0.0,0.0,0.0,0.0,0.0,0.0,0.0,0.0,0.0,0.0,0.0,0.0,0.0,0.0,0.0,0.0,0.0,0.0,0.0,0.0,0.0,0.0,0.0,0.0,0.0,0.0,0.0,0.0,0.0,0.0,0.0,0.0,0.0,-8.5936,-8.7967,-8.8156,-8.902,-9.0229,-9.1356,-8.7201,-8.5468,-8.5182,-8.1474,0.0,0.0,0.0,0.0,0.0,0.0,0.0,0.0,0.0,0.0,0.0,0.0,0.0,0.0,0.0,0.0,0.0,0.0,0.0,0.0,0.0,0.0,-8.6623,-8.713,-8.8389,-8.8362,-8.4169,0.0,0.0,0.0,0.0,0.0,0.0,0.0,0.0,0.0,0.0,0.0,-9.5943,-10.3588,-10.9482,-11.1694,-11.29,-11.3109,-11.2283,-11.1701,-10.9305,-10.4371,-9.8969,-9.4285,0.0,0.0,0.0,0.0,0.0,0.0,0.0,0.0,0.0,0.0,0.0,0.0,0.0,0.0,0.0,0.0,0.0,0.0,0.0,0.0,0.0,0.0,0.0,0.0,0.0,0.0,0.0,0.0,0.0,0.0,0.0,0.0,-7.1039,-7.1441,0.0,0.0,0.0,0.0,0.0,0.0,0.0,0.0,0.0,0.0,0.0,0.0,0.0,-8.0743,-8.4614,-8.5739,-8.7461,-8.9804,-9.3337,-9.545,-9.621,-9.7064,-9.7616,-9.7804,-9.789,0.0,-8.8071,-8.6744,0.0,0.0,0.0,0.0,0.0,0.0,0.0,0.0,0.0,0.0,0.0,0.0,0.0,0.0,0.0,0.0,0.0,0.0,0.0,0.0,0.0,0.0,-9.3564,-9.2841,-9.29,-9.3105,-9.3114,-8.7871,-8.2731,-8.1337,-8.0526,-7.9191,0.0,0.0,0.0,0.0,0.0,0.0,-9.7694,-10.3783,-10.8219,-10.9309,-11.0826,-11.1488,-11.0712,-11.1099,-10.991,-10.6175,-10.2978,-9.9063,-9.4141,-8.8794,0.0,0.0,0.0,0.0,0.0,0.0,0.0,0.0,0.0,0.0,0.0,0.0,0.0,0.0,0.0,0.0,0.0,0.0,0.0,0.0,0.0,0.0,0.0,0.0,0.0,0.0,0.0,0.0,0.0,-7.1513,-7.4161,-7.4179,-7.4887,-7.454,0.0,0.0,0.0,0.0,0.0,0.0,0.0,0.0,0.0,-8.5044,-8.539,-8.6862,-8.9762,-9.1132,-9.2851,-9.4922,-9.7388,-9.9289,-10.0605,-10.0502,-10.0697,-10.1199,-10.1085,-9.9095,-9.5701,-9.2375,-8.8533,-8.4507,0.0,0.0,0.0,0.0,-8.3594,-8.5221,-8.8486,-8.8759,-8.7471,-8.6371,0.0,0.0,0.0,0.0,0.0,0.0,0.0,-8.7242,-8.9582,-9.2607,-9.5309,-9.6329,-9.7327,-9.8285,-9.9172,-9.6226,-9.2182,-8.7907,-8.7152,-8.5626,-8.0543,-8.2258,0.0,0.0,0.0,-9.6799,-9.9808,-10.5398,-10.9778,-11.1607,-11.2482,-11.2889,-11.2984,-11.29,-11.1321,-10.7899,-10.5194,-10.1884,-9.772,-9.2532,-8.7325,0.0,0.0,0.0,0.0,0.0,0.0,0.0,0.0,0.0,0.0,0.0,0.0,0.0,0.0,0.0,0.0,0.0,0.0,0.0,0.0,0.0,0.0,0.0,0.0,0.0,0.0,0.0,0.0,-7.5082,-7.7368,-7.6945,-7.8571,-7.8383,0.0,0.0,0.0,0.0,0.0,0.0,-8.1592,-8.3935,-8.6627,-8.9631,-9.0536,-9.203,-9.4232,-9.5532,-9.7029,-9.8711,-10.0492,-10.199,-10.3179,-10.2797,-10.2714,-10.2906,-10.2392,-10.2197,-10.1898,-9.7341,-9.3434,-9.0109,-8.7561,-8.6307,-8.6119,-8.7805,-8.9674,-9.1838,-9.5463,-9.6049,-9.4832,-9.2691,-9.0648,-8.8408,-8.5005,0.0,0.0,0.0,0.0,-9.0657,-9.366,-9.5387,-9.688,-9.9005,-10.0693,-10.1992,-10.2878,-10.2515,-10.0385,-9.4862,-9.3757,-9.1938,-8.6257,-8.7923,0.0,-8.8056,-9.456,-10.0398,-10.2379,-10.7285,-11.1218,-11.2912,-11.3416,-11.3684,-11.3911,-11.3513,-11.1909,-10.8878,-10.6609,-10.3888,-10.0601,-9.6133,-9.1294,-8.6066,0.0,0.0,0.0,0.0,0.0,0.0,0.0,0.0,0.0,0.0,0.0,0.0,0.0,0.0,0.0,0.0,0.0,0.0,0.0,0.0,0.0,0.0,0.0,0.0,0.0,0.0,0.0,0.0,0.0,-7.9717,-8.3882,0.0,0.0,0.0,0.0,-8.0743,-8.3042,-8.5229,-8.69,-8.871,-9.1596,-9.582,-9.4469,-9.5293,-9.8643,-9.8768,-9.9664,-10.1406,-10.3203,-10.4014,-10.4194,-10.4905,-10.4397,-10.2906,-10.3687,-10.3999,-10.3882,-10.1087,-9.7969,-9.4844,-9.4687,-9.3586,-9.2351,-9.4099,-9.6324,-9.8383,-9.7836,-9.8136,-9.858,-9.7623,-9.558,-9.3747,-9.513,-9.3873,0.0,0.0,-9.6449,-9.7597,-9.9424,-9.9978,-10.029,-10.1188,-10.2086,-10.3015,-10.3807,-10.3992,-10.3407,-10.1395,-9.902,-9.6681,-9.4627,0.0,-9.5035,-9.6468,-9.9949,-10.3277,-10.5705,-10.9213,-11.1199,-11.0476,-11.1799,-11.2111,-11.0593,-11.1072,-11.0699,-10.891,-10.7114,-10.4992,-10.2417,-9.963,-9.5761,-9.0576,-8.7873,0.0,0.0,0.0,0.0,0.0,0.0,0.0,0.0,0.0,0.0,0.0,0.0,0.0,0.0,0.0,0.0,0.0,0.0,0.0,0.0,0.0,0.0,0.0,0.0,0.0,0.0,0.0,0.0,-8.4682,-8.776,0.0,-8.3788,-8.5195,-8.6289,-8.5975,-8.8864,-9.0936,-9.1546,-9.4264,-9.6242,-9.7226,-9.7762,-9.8593,-9.9822,-10.0915,-10.2107,-10.3191,-10.4394,-10.5315,-10.5795,-10.5497,-10.538,-10.5404,-10.5582,-10.5817,-10.5795,-10.5393,-10.2917,-9.9336,-9.9336,-9.8593,-9.7771,-9.9519,-10.1087,-10.2382,-10.2616,-10.2484,-10.2086,-10.0695,-9.9218,-9.8091,-9.8736,-9.8221,-9.7667,-9.8643,-9.9493,-10.0412,-10.1592,-10.2295,-10.288,-10.3797,-10.4616,-10.5514,-10.6383,-10.6506,-10.6611,-10.7181,-10.4298,-10.1008,-9.8641,-10.052,-10.1812,-10.0198,-10.4191,-10.7792,-10.8707,-11.0887,-11.2192,-11.19,-11.188,-11.1685,-11.1099,-11.0705,-10.9781,-10.8008,-10.6794,-10.5007,-10.2389,-10.0889,-9.7937,-9.3353,-9.1795,-8.6838,0.0,0.0,0.0,0.0,0.0,0.0,0.0,0.0,0.0,0.0,0.0,0.0,0.0,0.0,0.0,0.0,0.0,0.0,0.0,0.0,0.0,0.0,0.0,0.0,0.0,0.0,-8.7457,-8.742,-9.0999,-9.1988,-8.8229,-9.0226,-9.1596,-9.1317,-9.3982,-9.5619,-9.5625,-9.8072,-9.9296,-9.9015,-9.9863,-10.0701,-10.1618,-10.2711,-10.3889,-10.5003,-10.5881,-10.6614,-10.7083,-10.6513,-10.6395,-10.6693,-10.6715,-10.6715,-10.6693,-10.7317,-10.5901,-10.3314,-10.359,-10.3201,-10.2613,-10.3407,-10.4506,-10.5501,-10.5389,-10.4519,-10.3218,-10.2308,-10.1616,-10.1308,-10.2191,-10.2413,-10.2515,-10.3218,-10.3279,-10.3387,-10.4012,-10.4285,-10.4714,-10.5592,-10.6411,-10.7309,-10.8217,-10.8496,-10.8978,-10.9912,-10.7496,-10.479,-10.3411,-10.5188,-10.6108,-10.391,-10.7381,-11.0284,-11.0187,-11.2192,-11.3418,-11.2795,-11.2484,-11.2017,-11.1099,-10.9694,-10.831,-10.7099,-10.5404,-10.3694,-10.2006,-10.0485,-9.7998,-9.425,-9.2244,-8.7675,-8.0489,0.0,0.0,0.0,0.0,0.0,0.0,0.0,0.0,0.0,0.0,0.0,0.0,0.0,0.0,0.0,0.0,0.0,0.0,0.0,0.0,0.0,0.0,0.0,-8.1348,-8.6362,-8.9528,-8.7873,-9.3628,-9.6106,-9.1929,-9.534,-9.7416,-9.6589,-9.8104,-9.9055,-9.9043,-9.9881,-10.0798,-10.1618,-10.0798,-10.1618,-10.4116,-10.4194,-10.5014,-10.6693,-10.759,-10.8098,-10.8089,-10.8098,-10.759,-10.681,-10.681,-10.681,-10.681,-10.681,-10.681,-10.6888,-10.7708,-10.7483,-10.6585,-10.5804,-10.6604,-10.7794,-10.6089,-10.3894,-10.1898,-10.2808,-10.3001,-10.3407,-10.5917,-10.6682,-10.7083,-10.8684,-10.7981,-10.6693,-10.6693,-10.6107,-10.5717,-10.6614,-10.7395,-10.8207,-10.9008,-10.9817,-11.0196,-10.929,-10.8483,-10.8196,-10.9015,-10.8497,-10.7898,-10.781,-10.9398,0.0,-11.0302,-11.3301,-11.4684,-11.2793,-11.3418,-11.2912,-11.0302,-10.7791,-10.6312,-10.6312,-10.3099,-10.1214,-10.1213,-9.8702,-9.6115,-9.3549,-8.9216,-8.5734,-8.3229,0.0,0.0,0.0,0.0,0.0,0.0,0.0,0.0,0.0,0.0,0.0,0.0,0.0,0.0,0.0,0.0,0.0,0.0,0.0,0.0,0.0,-8.3311,-8.687,-8.6627,-9.0198,-9.3087,-9.3823,-9.6699,-9.8182,-9.7003,-9.8508,-9.9491,-9.9236,-10.0311,-10.0584,-9.9992,-10.1313,-10.2008,-10.1618,-10.2515,-10.3405,-10.4119,-10.5396,-10.6489,-10.7603,-10.848,-10.9191,-10.9816,-10.9816,-10.9699,-10.9503,-11.0089,-11.0011,-10.9503,-11.0089,-11.0011,-10.9386,-10.8379,-10.7489,-10.6786,-10.7879,-10.8496,-10.8816,-10.7691,-10.6796,-10.6204,-10.5795,-10.609,-10.6583,-10.6708,-10.67,-10.681,-10.7317,-10.7083,-10.681,-10.7512,-10.7512,-10.7512,-10.841,-10.8705,-10.8812,-10.8402,-10.8987,-10.9498,-10.9198,-10.9992,-11.0301,-10.9281,-10.9413,-10.9897,-11.0511,-11.208,-11.2905,-11.219,-11.3494,-11.3611,-11.1198,-11.1217,-11.0476,-10.8589,-10.7111,-10.6099,-10.5378,-10.388,-10.2401,-10.1195,-10.0412,-9.8775,-9.6214,-9.1294,-8.7813,0.0,0.0,0.0,0.0,0.0,0.0,0.0,0.0,0.0,0.0,0.0,0.0,0.0,0.0,0.0,0.0,0.0,0.0,0.0,0.0,0.0,0.0,-8.7828,-9.1223,-9.2295,-9.4177,-9.5949,-9.7323,-9.9002,-10.029,-10.111,-10.1618,-10.2008,-10.2398,-10.2608,-10.2413,-10.1891,-10.2789,-10.3101,-10.2711,-10.3882,-10.481,-10.5183,-10.6216,-10.7309,-10.851,-10.9417,-11.0206,-11.1104,-11.1807,-11.1689,-11.1104,-11.2002,-11.1611,-11.0518,-11.1104,-11.0987,-11.0401,0.0,0.0,0.0,0.0,-10.8791,-10.8106,-10.7596,-10.7187,-10.6784,-10.6385,-10.6793,-10.7512,-10.7708,-10.7786,-10.7903,-10.8605,-10.8605,-10.8293,-10.851,-10.8792,-10.8996,-10.8792,-10.9212,-10.9603,-10.9113,-10.971,-11.0392,-11.0686,-11.1601,0.0,-11.1396,-11.1695,-11.2085,-11.2176,-11.3399,-11.3918,-11.31,-11.3979,-11.3901,-11.1585,-11.1713,-11.1222,-10.9498,-10.8217,0.0,0.0,0.0,-10.211,-9.96,-9.878,0.0,0.0,0.0,-9.0284,-8.9584,-8.5674,0.0,0.0,-8.0787,-7.9323,0.0,0.0,0.0,0.0,0.0,0.0,0.0,0.0,0.0,0.0,0.0,0.0,0.0,0.0,0.0,0.0,-9.2539,-9.5192,-9.755,-9.7962,-9.8344,-9.9189,-10.072,-10.2281,-10.3882,-10.4194,-10.4584,-10.5287,-10.4702,-10.4194,-10.4194,-10.4194,0.0,0.0,0.0,-10.6185,-10.7005,-10.72,-10.8215,-10.9894,-11.0401,-11.1182,-11.2119,-11.3602,-11.3407,-11.1885,-11.2783,-11.2314,-11.0792,-11.1104,-11.1104,-11.0909,-11.0714,-11.0722,-11.0612,-10.98,-10.8506,-10.7293,-10.7215,0.0,0.0,-10.5814,-10.6312,-10.7208,-10.8605,-10.9113,-10.9503,-11.0987,-11.0909,-11.0197,-10.9515,-10.9915,-11.0002,-10.85,-10.929,-11.0284,-11.0197,-11.0987,-11.1807,-11.2509,-11.2891,-11.3311,-11.4013,-11.4188,-11.3892,-11.3321,-11.3798,-11.4003,-11.3093,-11.4386,-11.4815,-11.3005,-11.3396,0.0,-11.1697,-11.0083,-10.8407,-10.6887,-10.4187,-10.1273,-9.8004,-9.631,-9.5356,-9.514,-9.3625,-9.3141,-9.3824,-9.2904,-9.2865,-9.3454,-8.385,-8.1491,0.0,0.0,0.0,0.0,0.0,0.0,0.0,0.0,0.0,0.0,0.0,0.0,0.0,0.0,0.0,-9.1431,-9.5239,-9.8267,-9.9436,-10.0216,-10.0787,-10.0997,-10.1883,-10.2984,-10.3999,-10.4685,-10.5192,-10.5404,-10.5192,-10.5114,-10.5092,-10.5092,-10.5092,-10.5092,-10.7395,-10.8597,-10.8695,-11.0197,-11.1681,-11.3301,-11.211,0.0,-11.3915,-11.3485,-11.2783,-11.1885,-11.3485,-11.3602,-11.2704,-11.411,-11.4305,-11.3407,-11.1299,-11.101,-11.1502,-11.069,-11.0618,-11.0818,-11.0115,-10.9687,-10.941,-10.8016,-10.8104,-10.8587,-10.7489,-10.7708,0.0,-10.8605,-10.9113,-10.962,-11.008,-10.9895,-10.9611,-10.9915,-10.9816,-10.93,-10.8585,-10.971,-11.0596,-11.0011,-11.1604,-11.3116,-11.3194,-11.3294,-11.3506,-11.4013,-11.4179,-11.3984,-11.3184,-11.3903,-11.3784,-11.2109,-11.2009,-11.2009,-11.1624,-11.0104,-10.8913,-10.8485,-10.539,-10.2885,-10.1525,-10.0493,-9.9246,-9.7781,-9.7432,-9.7005,-9.6444,-9.5567,-9.5256,-9.5317,-9.1106,-9.0012,0.0,0.0,0.0,0.0,0.0,0.0,0.0,0.0,0.0,0.0,0.0,-8.4922,-8.7497,0.0,-9.3275,-9.5849,-9.8045,-9.9878,-10.1189,-10.1788,-10.2101,-10.208,-10.288,-10.4099,-10.5807,-10.5993,-10.6305,-10.7212,-10.689,-10.6783,-10.7317,-10.7708,-10.802,-10.802,-11.0089,-11.0987,-11.05,-11.1407,-11.2704,-11.4287,-11.3476,-11.3993,-11.571,-11.6101,-11.5593,-11.45,-11.5789,-11.5593,-11.45,-11.5297,-11.5219,-11.4305,-11.3017,-11.2486,-11.2389,-11.1592,-11.1288,-11.1093,-11.0303,-10.9683,-10.9218,-10.8311,-10.8584,-10.9212,-10.8816,-10.9207,-11.0001,-11.0409,-11.0909,-11.1104,-11.0596,-11.05,-11.0285,-10.9408,-10.9612,-10.9807,-10.931,-11.0305,-11.1416,-11.2197,-11.3084,-11.4023,-11.4803,-11.4594,-11.4617,-11.5486,-11.4882,-11.4404,-11.4387,-11.4296,-11.3801,-11.2498,-11.2304,-11.2304,-11.2286,-11.0689,-10.9693,-10.9693,-10.6779,-10.4717,-10.3803,-10.2905,-10.1617,-9.9846,-9.9397,-9.8736,-9.7903,-9.6988,-9.6793,-9.7204,-9.5833,-9.4762,0.0,0.0,0.0,0.0,0.0,0.0,0.0,0.0,-8.1944,-8.4138,-8.7542,-9.1054,-9.4095,-9.6096,-9.802,-10.019,-10.0891,-10.1501,-10.2897,-10.3084,-10.3283,-10.3502,-10.4187,-10.5514,-10.7699,-10.761,-10.7883,-10.9299,-10.9104,-10.9203,-11.0011,-11.0714,-11.0987,-11.0987,-11.2704,-11.329,-11.2783,-11.3017,-11.3915,-11.5593,-11.5281,-11.5906,-11.7311,-11.8482,-11.8209,-11.6804,-11.7701,-11.7311,-11.6179,-11.6008,-11.55,-11.4891,-11.4695,-11.4188,-11.3494,-11.249,-11.1717,-11.1014,-11.0313,-10.9583,-10.8982,-10.8789,-10.9214,-10.9895,-11.0392,-11.0983,-11.1692,-11.24,-11.2704,-11.2509,-11.0909,-11.0987,-11.1104,-10.9086,-10.9603,-11.0596,-11.0909,-11.1689,-11.2908,-11.4712,-11.4704,-11.4813,-11.5984,-11.5593,-11.5414,-11.6295,-11.5291,-11.4617,-11.5082,-11.4477,-11.3808,-11.3093,-11.2999,-11.2905,-11.2905,-11.1602,-11.0706,-11.0589,-10.8396,-10.6722,-10.5883,-10.4888,-10.3694,-10.2106,-10.1184,-10.0407,-9.9578,-9.8659,-9.8387,-9.884,-9.8642,-9.7471,-7.4489,-7.3711,-7.4187,-7.7128,-7.7931,-7.9795,0.0,0.0,-8.8637,-9.2635,-9.4535,-9.5997,-9.7808,-9.9591,-10.1203,-10.2187,-10.3581,-10.4616,-10.4793,-10.4811,-10.5101,-10.6007,-10.6196,-10.6701,-10.7788,-10.921,-11.0095,-11.0314,-11.169,-11.2598,-11.2704,-11.2783,-11.2783,-11.2783,-11.45,-11.571,-11.6413,-11.7194,-11.8404,-12.0083,-11.8599,-11.8014,-11.8092,-11.7506,-11.6804,-11.5906,-11.6804,-11.7506,-11.7897,-11.7203,-11.6812,-11.6608,-11.5906,-11.5485,-11.5211,-11.3619,-11.2912,-11.289,-11.2813,-11.2713,-11.25,-11.1716,-11.151,-11.1517,-11.0816,-11.0608,-11.0722,-11.0792,-11.1416,-11.1689,-11.0792,-11.0714,-11.0792,-11.129,-11.1017,-11.0978,-11.2509,-11.3485,-11.4001,-11.3488,-11.3899,-11.4218,-11.3602,-11.3379,-11.3711,-11.45,-11.45,-11.4101,-11.3503,-11.3212,-11.3116,-11.3009,-11.2996,-11.2996,-11.3007,-11.2805,-11.2304,-11.1485,-11.0377,-10.9502,-10.8609,-10.7695,-10.6699,-10.5605,-10.4798,-10.3904,-10.3117,-10.2195,-10.099,-9.9656,-9.8917,-9.8797,-8.0357,-7.906,-7.8324,0.0,-8.3116,-8.5064,-8.8257,-9.068,-9.2844,-9.5063,-9.7497,-9.956,-10.0707,-10.1872,-10.3091,0.0,-10.4594,-10.5299,-10.5802,-10.588,-10.6208,-10.7114,-10.8103,-10.9107,-10.9978,-11.029,-11.0993,-11.2577,-11.3407,-11.4003,-11.4617,-11.5086,-11.5398,-11.5398,-11.6999,-11.7584,-11.6999,-11.8287,-11.9419,-12.0083,-11.8814,-11.8814,-11.9692,-11.8892,-11.8317,-11.7897,-11.778,-11.8209,-11.8912,-11.8092,-11.7701,-11.7584,-11.6804,-11.5789,-11.4899,-11.4704,-11.4006,-11.3103,-11.319,-11.249,-11.1588,-11.1306,-11.1483,-11.1784,-11.1502,-11.1719,-11.208,-11.208,-11.2704,-11.3095,-11.2314,-11.2392,-11.2783,-11.2587,-11.2314,-11.2197,-11.29,-11.3407,-11.3689,-11.3782,-11.3697,-11.3719,-11.3779,-11.3906,-11.3798,-11.368,-11.3584,-11.3602,-11.3814,-11.3396,-11.319,-11.3698,-11.4191,-11.4215,-11.3701,-11.3685,-11.3317,-11.2382,-11.2013,-11.1217,-10.9775,-10.9311,-10.818,-10.641,-10.5882,-10.5294,-10.4516,-10.36,-10.2489,-10.1207,-10.0879,-10.0684,-8.2908,-8.2195,0.0,-8.4621,-8.7249,-8.9333,-8.9994,-9.2968,-9.5846,-9.6856,-9.9522,-10.1895,-10.2596,-10.3705,-10.4811,-10.539,-10.5706,-10.5922,-10.6425,-10.6698,-10.691,-10.7277,-10.8696,-11.0286,-11.1903,-11.1903,-11.2619,-11.4516,-11.5308,-11.5916,-11.6316,-11.738,-11.7819,-11.7302,-11.8707,-11.8902,-11.7692,-11.8902,-11.9488,-11.9605,-11.9088,-11.9283,-12.0083,-11.9205,-11.8892,-11.9107,-11.8287,-11.8404,-11.9107,-11.8014,-11.7819,-11.8092,-11.6804,-11.5789,-11.5219,-11.5581,-11.4602,-11.3092,-11.3193,-11.23,-11.1282,-11.1016,-11.151,-11.2187,-11.2009,-11.2486,-11.322,-11.3086,-11.3594,-11.3782,-11.2978,-11.3212,-11.3602,-11.3212,-11.3103,-11.3189,-11.368,-11.3993,-11.4305,-11.4695,-11.4383,-11.4188,-11.4383,-11.4383,-11.411,-11.3212,-11.3095,-11.332,-11.3904,-11.3697,-11.3607,-11.4205,-11.5024,-11.5205,-11.4302,-11.4208,-11.3996,-11.3607,-11.3104,-11.2385,-11.1407,-11.0595,-10.9388,-10.748,-10.6877,-10.6175,-10.5376,-10.4326,-10.3311,-10.2295,-10.1911,-10.1388,-7.9546,-8.0728,-8.2754,-8.61,-8.8886,-9.1451,-9.3928,-9.5904,-9.7704,-9.9351,-10.1211,-10.2791,-10.362,-10.5195,-10.642,-10.6498,-10.7072,-10.7207,-10.639,-10.7013,-10.7285,-10.639,-10.7299,-10.921,-11.2602,-11.4395,-11.5409,-11.5487,-11.7898,-11.9015,-11.808,-11.9701,-11.9917,-11.8207,-11.8988,-11.9495,-11.9417,-11.9495,-11.9495,-11.9495,-12.0308,-11.9888,-11.8209,-11.7389,-11.7389,-11.8209,-11.7311,-11.7506,-11.8209,-11.6482,-11.6794,-11.8014,-11.5515,-11.5515,-11.6812,-11.6011,-11.4609,-11.3202,-11.3086,-11.3103,-11.2908,-11.2082,-11.2417,-11.289,-11.2109,-11.2483,-11.3111,-11.3083,-11.3086,-11.3005,-11.2096,-11.1993,-11.2188,-11.3008,-11.3086,-11.3606,-11.529,-11.6296,-11.6608,-11.5789,-11.6296,-11.6413,-11.4695,-11.4383,-11.411,-11.3212,-11.3095,-11.3086,-11.3095,-11.3798,-11.4305,-11.4305,-11.5085,-11.5202,-11.4422,-11.4205,-11.4512,-11.5409,-11.3801,-11.3317,-11.4018,-11.1588,-11.0284,-11.0206,-10.8473,-10.7189,-10.639,-10.4581,-10.3316,-10.2499,-10.0787,-9.995,-8.2351,-8.4054,-8.6224,-9.0224,-9.2306,-9.4037,-9.6624,-9.814,-9.928,-10.04,-10.1107,-10.1695,-10.1915,-10.2887,-10.3783,-10.3822,-10.5904,-10.75,-10.7305,-10.8492,-10.9113,-10.829,-10.9398,-11.0583,0.0,0.0,-11.479,-11.7091,-11.808,-11.8717,-11.8899,-11.9003,-11.9003,-11.899,-11.9302,-11.9185,-11.86,-11.9107,-11.912,-11.8613,-11.891,-11.8976,-11.899,-11.8106,-11.8196,-11.8988,-11.82,-11.8287,-11.899,-11.7311,-11.7584,-11.8912,-11.6882,-11.6101,-11.6109,-11.578,-11.5011,-11.399,-11.4009,-11.3993,-11.3806,-11.2994,-11.2891,-11.3103,-11.2811,-11.3006,-11.3196,-11.3203,-11.3984,-11.4804,-11.4485,-11.5295,-11.621,-11.65,-11.66,-11.6613,-11.6617,-11.682,-11.6711,-11.5906,-11.5515,-11.5086,-11.45,-11.3915,-11.3593,-11.3896,-11.3398,-11.329,-11.3906,-11.4686,-11.5418,-11.5983,-11.6803,-11.6713,-11.518,-11.5112,-11.4692,-11.3818,-11.3217,-11.281,-11.2498,-11.1588,-11.0595,-10.9505,-10.8785,-10.8104,-10.7189,-10.5496,-10.4192,-10.3294,-10.209,-10.1623,-8.5793,-8.772,-8.9748,-9.4115,-9.5592,-9.6504,-9.8486,-9.9885,-10.0773,-10.0982,-10.1293,-10.1495,-10.1195,-10.1409,-10.1895,-10.2771,-10.4795,-10.6585,-10.75,-10.8609,-10.9113,-10.8585,-10.9787,-11.07,0.0,0.0,0.0,-11.6984,-11.7701,-11.8286,-11.8895,-11.9314,-11.9289,-11.8924,-11.9509,-11.9314,-11.8105,-11.83,-11.8392,-11.8093,-11.8106,-11.8691,-11.9888,-11.9003,-11.8898,-11.9417,-11.8902,-11.899,-11.938,-11.8014,-11.8287,-11.9302,-11.6999,-11.5906,-11.571,-11.5398,-11.5086,-11.4782,-11.4498,-11.4582,-11.4699,-11.3516,-11.3384,-11.3501,-11.2912,-11.3005,-11.3281,-11.3509,-11.4404,-11.5305,-11.5585,-11.6794,-11.7802,-11.7399,-11.7388,-11.7114,-11.63,-11.6288,-11.6398,-11.5789,-11.5515,-11.5281,-11.5281,-11.4617,-11.4188,-11.4716,-11.4413,-11.4296,-11.5213,-11.5818,-11.6404,-11.6803,-11.7711,-11.7817,-11.6584,-11.6506,-11.6102,-11.5299,-11.4308,-11.3412,-11.2615,-11.1606,-11.038,-10.9095,-10.8999,-10.8707,-10.8084,-10.6702,-10.5515,-10.4577,-10.3491,-10.279,-8.9435,-9.15,-9.3309,-9.747,-9.8503,-9.873,-9.9708,-10.1084,-10.2016,-10.1177,-10.1589,-10.1928,0.0,0.0,-10.0704,-10.3118,-10.3803,-10.4813,-10.7277,-10.771,-10.7791,0.0,0.0,0.0,0.0,0.0,0.0,-11.5382,-11.7092,-11.8122,-11.811,-12.0494,-12.0704,-11.8294,-11.9698,-11.9698,-11.7982,-11.7203,-11.7311,-11.8313,-11.821,-11.921,-12.0785,-11.9888,-11.9488,-11.9488,-11.9605,-11.9614,-11.9497,-11.8599,-11.8716,-11.9107,-11.5789,-11.4891,-11.5515,-11.4813,-11.5008,-11.561,-11.48,-11.4999,-11.539,-11.3701,-11.3717,-11.4079,-11.2479,-11.26,-11.3514,-11.429,-11.45,-11.4712,-11.5581,-11.6406,-11.6797,-11.6015,-11.5802,-11.5617,-11.488,-11.5407,-11.5906,-11.5906,-11.6491,-11.6999,-11.6882,-11.6296,-11.5789,-11.5797,-11.5906,-11.6082,-11.6806,-11.7009,-11.699,-11.6998,-11.7809,-11.8317,-11.8207,-11.8207,-11.8496,-11.9207,-11.6891,-11.5121,-11.4213,-11.1797,-11.0121,-10.9186,-10.9095,-10.8999,-10.8921,-10.8006,-10.7091,-10.6196,-10.4483,-10.3374,-9.1649,-9.4535,-9.7212,-9.958,-9.9758,-9.9778,-10.12,-10.1511,-10.1216,-10.0274,-9.884,-9.7087,0.0,0.0,0.0,-9.8783,-10.3296,0.0,-10.9182,-11.0083,0.0,-11.0593,0.0,-11.0182,-11.0715,-11.1518,0.0,0.0,-11.6491,-11.8011,-11.9785,-11.9414,-11.9314,-11.9881,-11.8595,-11.7582,-11.7114,-11.6914,-11.7608,-11.908,-11.9679,-12.0601,-12.178,-12.1407,-12.1279,-12.1296,-12.0712,-12.0395,-12.0395,-11.8795,-11.8287,-11.8287,-11.6218,-11.5086,-11.4813,-11.5203,-11.5906,-11.6608,-11.6398,-11.611,-11.5383,-11.3708,-11.3708,-11.4292,-11.4019,-11.4413,-11.5195,-11.531,-11.5792,-11.6413,-11.6593,-11.6787,-11.7109,-11.75,-11.7102,-11.7008,-11.8111,-11.852,-11.8599,-11.8599,-11.7701,-11.6804,-11.6101,-11.6413,-11.689,-11.7511,-11.8194,-11.8209,-11.7097,-11.699,-11.7194,-11.7887,-11.8209,-11.8317,-11.8207,-11.7599,-11.7313,-11.7481,-11.629,-11.5104,-11.4185,-11.3494,-11.2094,-10.9991,-11.0011,-10.931,-10.7986,-10.6485,-10.5706,-10.5398,-10.3684,-10.3082,-9.5015,-9.7561,-9.9648,-10.1013,-10.1099,-10.0806,-10.0609,-10.0788,-10.019,-9.7126,-9.6018,-9.4559,-9.1194,-9.3321,0.0,0.0,0.0,0.0,-10.9804,-11.0589,-11.1218,0.0,-11.1705,0.0,-11.1986,-11.281,-11.4001,0.0,-11.6512,-11.7915,-12.0487,-12.0019,-11.9572,-11.9397,-11.9182,-11.8694,-11.7915,-11.8294,-11.9012,-12.001,-12.1195,-12.2115,-12.2609,-12.2878,-12.2515,-12.1383,-12.1319,-12.0899,-12.0083,-11.8676,-11.7984,-11.7505,-11.5818,-11.4608,-11.4013,-11.5203,-11.5984,-11.6413,-11.6413,-11.6117,-11.5591,-11.4982,-11.5188,-11.5503,-11.5113,-11.5386,-11.5818,-11.621,-11.6597,-11.7087,-11.7516,-11.7911,-11.8193,-11.8281,-11.7889,-11.7805,-11.8782,-11.8697,-11.8487,-11.8491,-11.7992,-11.7381,-11.6891,-11.7609,-11.8382,-11.9313,-11.949,-11.9185,-11.8287,-11.8101,-11.8187,-11.8287,-11.8599,-11.898,-11.93,-11.9183,-11.882,-11.8002,-11.7101,-11.5721,-11.381,-11.2888,-11.1705,-11.0284,-10.9894,-10.9408,-10.8804,-10.7072,-10.6117,-10.5611,-10.4287,-10.3508,-9.8525,-10.019,-10.0993,-10.2,-10.2107,-10.1309,-9.9085,-9.9545,-9.8857,-9.3289,-9.3078,-9.2717,-8.8872,-9.149,-9.4911,-9.6973,0.0,-10.6188,-10.9804,-11.0394,-11.1099,-11.2601,-11.2912,-11.3282,-11.4078,-11.4898,-11.5794,-11.6884,-11.6884,-11.7993,-12.0487,-12.1188,-12.039,-11.78,-12.0117,-12.0682,-11.9201,-11.9987,-12.0587,-12.0907,-12.2605,-12.3311,-12.3292,-12.4192,-12.3282,-12.111,-12.1702,-12.1117,-11.9686,-11.8704,-11.7781,-11.6701,-11.4979,-11.3896,-11.3301,-11.4882,-11.5593,-11.571,-11.5789,-11.5906,-11.5906,-11.6296,-11.6593,-11.6501,-11.5798,-11.5602,-11.592,-11.6599,-11.6795,-11.6992,-11.7812,-11.8508,-11.8917,-11.8319,-11.8203,-11.8398,-11.8593,-11.8086,-11.7614,-11.7694,-11.8019,-11.8388,-11.8593,-11.9195,-11.9905,-12.088,-12.031,-11.981,-11.981,-11.96,-11.9092,-11.8404,-11.9107,-11.9878,-12.0599,-12.1283,-12.1,-11.9381,-11.8392,-11.6506,-11.3279,-11.1713,-11.0611,-11.0186,-10.9523,-10.9291,-10.9719,-10.8123,-10.6897,-10.6078,-10.5299,-10.4088,-9.9919,-10.0577,-10.1081,-10.2707,-10.1619,-10.003,-9.9591,-9.8147,0.0,-9.209,-8.9833,-8.8092,-8.6702,-8.8767,-9.2152,-9.6585,0.0,0.0,0.0,0.0,-11.2308,0.0,0.0,0.0,0.0,0.0,0.0,0.0,-11.7703,-11.8618,-12.0487,-12.002,-11.8812,-11.7,-11.8112,-11.8616,-11.8305,-11.9219,-12.0314,-12.1809,-12.3516,-12.3909,-12.3312,-12.4108,-12.3797,-12.2708,-12.2198,-12.1709,-12.1296,-11.981,-11.8313,-11.6713,-11.5007,-11.3818,-11.3203,-11.4208,-11.4989,-11.5789,-11.6491,-11.6804,-11.6413,-11.4383,-11.4313,-11.4782,-11.4704,-11.5094,-11.5688,-11.5891,-11.591,-11.6002,-11.608,-11.6305,-11.6501,-11.7108,-11.7812,-11.8711,-12.0117,-12.0312,-12.039,-12.1209,-11.9686,-11.8788,-12.0195,-12.0016,-12.0115,-12.1716,-12.1187,-12.0707,-12.0707,-11.9389,-11.8491,-11.8287,-11.899,-11.9584,-11.9795,-11.9878,-11.9506,-11.859,-11.7625,-11.6116,-11.4204,-11.3694,-11.2515,-11.0403,-11.0216,-10.9091,-10.7104,-10.6074,-10.5195,-10.4299,-10.4182,-10.3598,-10.1099,-10.1099,-10.1204,-10.3015,-10.1479,-9.9241,-9.7508,0.0,0.0,-8.7585,-8.649,-8.5898,-8.3714,-8.7209,0.0,-9.3622,0.0,0.0,0.0,0.0,0.0,0.0,0.0,0.0,0.0,-11.6391,-11.7014,-11.7779,-11.8675,-11.9786,-12.1189,-12.0409,-11.9708,-11.9377,-11.9414,-11.9609,-12.0097,-12.0876,-12.1787,-12.2605,-12.3886,-12.3991,-12.3273,-12.3994,-12.3682,-12.2513,-12.1578,-12.1011,-12.0405,-11.8715,-11.7286,-11.6102,-11.5296,-11.45,-11.3915,-11.5184,-11.5701,-11.5789,-11.6218,-11.5984,-11.5398,-11.368,-11.3993,-11.5086,-11.5086,-11.5398,-11.571,-11.571,-11.5688,-11.5702,-11.5702,-11.5688,-11.5914,-11.6808,-11.8003,-11.9218,-12.0,-12.0195,-12.0195,-12.0195,-11.9218,-11.8711,-12.0,-11.9917,-11.9981,-12.1309,-12.0791,-12.0186,-12.0209,-11.9107,-11.8482,-11.8912,-11.9319,-11.9717,-12.0186,-12.02,-11.9605,-11.8404,-11.7806,-11.6806,-11.5007,-11.4113,-11.2999,-11.1713,-11.0411,-10.9091,-10.7788,-10.6481,-10.5718,-10.529,-10.529,-10.4604,-10.1592,-10.1204,-10.1011,-10.2992,-10.1311,-9.8387,-9.5606,-9.3784,0.0,-8.3819,-8.3859,-8.4403,-8.1855,-8.5897,-8.995,0.0,-9.6234,-10.1617,0.0,0.0,0.0,0.0,0.0,0.0,-11.7474,-11.7683,0.0,-11.8381,-11.9998,-12.1205,-12.1792,-12.1187,-12.0993,-12.1304,-12.0788,-12.0811,-12.1286,-12.2396,-12.2921,-12.2903,-12.3799,-12.3799,-12.3214,-12.3877,-12.3409,-12.2084,-12.1305,-12.0487,-11.9707,-11.8005,-11.6797,-11.5984,-11.57,-11.5218,-11.4816,-11.6189,-11.6209,-11.5398,-11.5593,-11.5008,-11.3993,-11.329,-11.3993,-11.5077,-11.5086,-11.5086,-11.5077,-11.5086,-11.5086,-11.5086,-11.5086,-11.5281,-11.5719,-11.7007,-11.8502,-11.9687,-11.9802,-11.9881,-11.9687,-11.9218,-11.8789,-11.8906,-12.0,-11.9687,-11.9685,-12.0707,-12.0004,-11.9418,-11.9584,-11.8795,-11.8599,-11.9497,-11.9592,-11.9795,-12.02,-12.0395,-11.981,-11.8092,-11.7995,-11.7193,-11.5682,-11.4283,-11.3304,-11.3015,-11.0917,-10.9481,-10.8723,-10.7377,-10.6614,-10.6186,-10.6397,-10.5594,-10.081,-10.0122,-10.0101,-10.2707,-10.0313,-9.6979,-9.6076,0.0,-8.8767,-8.4299,-8.2896,-8.2635,-8.3169,-8.4377,-8.652,-9.0379,-9.4729,-9.9419,-10.4409,0.0,0.0,0.0,0.0,0.0,-11.6611,-11.731,-11.8411,-11.9994,-12.1706,-12.2412,-12.1793,-12.1793,-12.1089,-11.9513,-12.0288,-12.0312,-11.9494,-12.1188,-12.2006,-12.2006,-12.2903,-12.3292,-12.3214,-12.3292,-12.3214,-12.2981,-12.2201,-12.1695,-12.15,-11.9916,-11.8606,-11.7693,-11.6126,-11.5505,-11.5503,-11.5687,-11.5202,-11.4617,-11.5398,-11.4617,-11.3212,-11.3095,-11.3203,-11.3301,-11.3281,-11.3311,-11.3301,-11.3281,-11.329,-11.329,-11.329,-11.3915,-11.5094,-11.7589,-11.8901,-11.9802,-12.0583,-12.0806,-12.1015,-12.1718,-12.0586,-12.0,-12.1718,-12.0,-11.8984,-12.0585,-11.9508,-11.8686,-11.9497,-11.8795,-11.8599,-11.9497,-11.9497,-11.9185,-11.8599,-11.9185,-11.8912,-11.7194,-11.7087,-11.6579,-11.571,-11.5388,-11.4581,-11.3084,-11.2719,-11.0995,-10.7923,-10.78,-10.6887,-10.529,-10.61,-10.5623,-10.1197,-10.1584,-10.2223,-10.3791,-10.0999,-9.7328,-9.5651,-9.1987,-8.7882,-8.4194,-8.2736,-8.2385,-8.3286,-8.3714,-8.4961,-8.8248,-9.1041,-9.4746,-10.0501,-10.3881,0.0,0.0,0.0,0.0,0.0,0.0,-11.9175,-12.1003,-12.1314,-12.1508,-12.1791,-12.1811,-12.1306,-12.0094,-12.0882,-12.0882,-12.0016,-12.1812,-12.2611,-12.261,-12.3001,-12.3214,-12.3214,-12.3214,-12.3214,-12.3214,-12.2279,-12.1617,-12.0993,-11.9916,-11.8902,-11.7989,-11.7296,-11.7105,-11.7013,-11.6584,-11.5916,-11.5203,-11.5008,-11.411,-11.3095,-11.3116,-11.3095,-11.2994,-11.3106,-11.3116,-11.3077,-11.3116,-11.3515,-11.3915,-11.3915,-11.4891,-11.6383,-11.7882,-11.8598,-11.9195,-12.0611,-12.0489,-12.0411,-12.121,-12.0898,-12.039,-12.0586,-11.9804,-11.9101,-11.9297,-11.8706,-11.8388,-11.8818,-11.9,-11.9412,-12.0287,-11.938,-11.8795,-11.899,-11.8912,-11.8482,-11.7819,-11.7809,-11.7614,-11.7311,-11.6701,-11.5505,-11.3915,-11.3187,-11.1502,-10.8586,-10.8595,-10.7994,-10.6802,-10.709,-10.6391,-10.0722,-10.2107,-10.3287,-10.4505,-10.1491,-9.778,-9.5612,-9.1836,-8.7829,-8.449,-8.3089,-8.266,-8.3298,-8.3387,-8.415,-8.654,-8.8728,-9.2036,-9.7538,-10.0377,0.0,0.0,0.0,0.0,0.0,0.0,-12.0419,-12.1196,-12.1207,-12.1296,-12.1712,-12.1495,-12.1014,-12.0214,-12.0998,-12.108,-12.0522,-12.2212,-12.3113,-12.3113,-12.3078,-12.3195,-12.3214,-12.3214,-12.3214,-12.3214,-12.2279,-12.1695,-12.1305,-12.0211,-11.9392,-11.8694,-11.8489,-11.83,-11.8002,-11.7196,-11.6412,-11.5593,-11.4989,-11.4013,-11.3203,-11.372,-11.3502,-11.3087,-11.3385,-11.329,-11.3116,-11.3095,-11.3701,-11.4383,-11.4383,-11.5515,-11.6812,-11.7718,-11.8109,-11.8709,-12.0185,-12.0411,-12.0596,-12.1203,-12.1092,-12.0703,-12.0117,-11.9609,-11.9101,-11.8706,-11.8514,-11.8398,-11.8711,-11.9016,-11.9508,-12.0395,-11.9405,-11.9007,-11.981,-11.9107,-11.8599,-11.8287,-11.8287,-11.8287,-11.8287,-11.7622,-11.6518,-11.4706,-11.3996,-11.229,-10.9524,-10.9288,-10.8688,-10.7781,-10.76,-10.6818,-9.8757,-10.0712,-10.2511,-10.4209,-10.1503,-9.7945,-9.6271,-9.2656,-8.8733,-8.5387,-8.3974,-8.3405,-8.3387,-8.341,-8.3972,-8.5729,-8.8774,-9.2391,-9.6614,-9.9342,0.0,0.0,0.0,0.0,0.0,-11.9176,-12.2101,-12.0314,-12.1829,-12.2411,-12.1596,-12.0794,-12.0019,-11.9214,-12.0094,-12.0483,-12.0402,-12.2217,-12.3102,-12.3113,-12.3113,-12.3116,-12.3214,-12.3214,-12.3214,-12.3214,-12.2279,-12.2396,-12.2981,-12.1305,-12.0604,-12.0487,-11.9591,-11.8785,-11.8002,-11.7101,-11.6298,-11.5701,-11.5609,-11.4516,-11.3407,-11.5011,-11.4413,-11.3204,-11.3984,-11.3711,-11.3021,-11.3084,-11.3701,-11.4383,-11.4383,-11.5086,-11.5914,-11.6802,-11.7711,-11.8487,-11.9397,-12.1001,-12.2185,-12.2216,-12.1509,-12.0898,-12.0898,-11.9492,-11.8589,-11.9506,-11.8892,-11.8593,-11.9492,-11.8782,-11.8583,-11.9492,-11.9602,-11.9893,-12.0716,-12.0005,-11.9107,-11.8404,-11.8287,-11.8287,-11.8287,-11.8179,-11.7399,-11.571,-11.562,-11.388,-11.048,-10.9588,-10.8796,-10.7899,-10.6986,-10.6588,-9.5313,-9.7742,-9.9268,-9.8001,-9.6305,-9.4179,-9.1413,-8.9324,-8.7308,-8.5156,-8.4005,-8.3596,-8.4194,-8.3816,-8.454,-8.8014,-8.9936,-9.2464,-9.6721,0.0,0.0,0.0,0.0,0.0,0.0,0.0,-12.1016,-12.1129,-12.1091,-12.1197,-12.1612,-11.9699,-11.8991,-11.9992,-12.0211,-12.0405,-12.0405,-12.1508,-12.2389,-12.2991,-12.2991,-12.2991,-12.3091,-12.3091,-12.3091,-12.3113,-12.2784,-12.2493,-12.2202,-12.1085,-12.0283,-11.9682,-11.8817,-11.8392,-11.7989,-11.6492,-11.6207,-11.6306,-11.4504,-11.3892,-11.3993,-11.4504,-11.3997,-11.3318,-11.4816,-11.4192,-11.3279,-11.4482,-11.5077,-11.5593,-11.6804,-11.6804,-11.6999,-11.8421,-11.8499,-11.8904,-12.0888,-12.1789,-12.2297,-12.3,-12.2889,-12.25,-12.1914,-12.1289,-12.0898,-12.05,-11.9703,-11.9313,-11.9609,-11.9882,-12.0389,-12.1289,-12.1282,-12.0908,-12.0092,-11.9692,-11.9185,-11.8404,-11.8287,-11.8287,-11.8287,-11.8179,-11.7711,-11.6608,-11.5894,-11.4204,-11.1407,-11.0497,-10.9615,-10.8796,-10.7915,-10.7495,-9.2309,-9.5437,-9.713,-9.5825,-9.4179,-9.2343,-9.0284,-8.8156,-8.6373,-8.5403,-8.4256,-8.3576,-8.4128,-8.405,-8.4896,-8.7882,-8.9567,-9.1893,-9.5822,0.0,0.0,0.0,0.0,0.0,0.0,-11.9509,-12.1013,-12.0585,-12.0702,-12.051,-12.0188,-11.9496,-11.9408,-11.9888,-11.9811,-11.9811,-11.9797,-12.1314,-12.2389,-12.2997,-12.3308,-12.3294,-12.3006,-12.3419,-12.3302,-12.3006,-12.2706,-12.2493,0.0,-12.1107,-12.0283,-11.9799,-11.8895,-11.8197,-11.7481,-11.6024,-11.57,-11.5799,-11.44,-11.4088,-11.4516,-11.5414,-11.5206,-11.45,-11.4594,-11.4087,-11.3708,-11.4482,-11.4921,-11.5506,-11.6882,-11.6882,-11.6882,-11.8716,-11.8912,-11.9319,-12.1314,-12.2219,-12.2808,-12.3398,-12.3203,-12.2812,-12.2304,-12.1914,-12.1601,-12.1406,-12.0614,-12.0211,-12.0493,-12.0817,-12.1211,-12.2109,-12.1907,-12.1182,-12.0209,-11.9692,-11.9185,-11.8404,-11.8599,-11.8599,-11.8287,-11.858,-11.7995,-11.6491,-11.5887,-11.4208,-11.1299,-11.0413,-10.9689,-10.9182,-10.8393,-10.8207,0.0,-9.312,-9.5256,-9.5965,-9.3858,-9.1607,-9.1507,-8.8545,0.0,-8.5793,-8.4529,-8.342,-8.3566,-8.4249,-8.5146,-8.6196,-8.8328,-9.1083,-9.4513,0.0,0.0,0.0,0.0,0.0,-11.4316,-11.9304,-12.1701,-11.9381,-12.0585,-12.0391,-11.8177,-12.0211,-12.0717,-11.9109,-11.9111,-11.9085,-11.9025,-12.1611,-12.2908,-12.2986,-12.3802,-12.3789,-12.3099,-12.3909,-12.3792,-12.289,-12.2299,-12.2397,-12.2901,-12.1286,-12.0487,-12.031,-11.9604,-11.8286,-11.6793,-11.5892,-11.5206,-11.4716,-11.5292,-11.5097,-11.492,-11.7179,-11.7495,-11.649,-11.3993,-11.3697,-11.4114,-11.329,-11.368,-11.4589,-11.5506,-11.5789,-11.6218,-11.8014,-11.899,-11.981,-12.0785,-12.2286,-12.3398,-12.3398,-12.2812,-12.2304,-12.2187,-12.1601,-12.1406,-12.2187,-12.1601,-12.1284,-12.2091,-12.1513,-12.1289,-12.2109,-12.1401,-12.0914,-12.0912,-12.0005,-11.9185,-11.8404,-11.9107,-11.9185,-11.8404,-11.9185,-11.8404,-11.5914,-11.5578,-11.3899,-11.0518,-10.9699,-10.9386,-10.9503,-10.8605,-10.8605,-8.2487,0.0,-8.7076,-8.6648,-8.6433,-8.5944,0.0,-8.4645,-8.4738,-8.4117,0.0,-8.3804,-8.5153,-8.5019,-8.5847,-8.9326,-9.0914,-9.3103,-9.711,0.0,0.0,0.0,0.0,0.0,-11.7916,-11.9614,-12.0807,-12.0896,-12.0702,-12.0807,-12.1586,-12.0899,-12.0329,-11.9886,-12.0613,-12.0885,-12.0912,-12.2182,-12.318,-12.3919,-12.4113,-12.4087,-12.3788,-12.3426,-12.3088,-12.2777,-12.2788,-12.2485,-12.1979,-12.111,-11.9916,-11.8707,-11.8489,-11.7818,-11.691,-11.6602,-11.6789,-11.7079,-11.5892,-11.5804,-11.6284,-11.6194,-11.6986,-11.7388,-11.4789,-11.4204,-11.411,-11.3311,-11.4208,-11.5486,-11.6482,-11.6686,-11.7116,-11.8795,-11.9419,-11.9888,-12.1488,-12.2699,-12.3196,-12.2617,-12.289,-12.3008,-12.2304,-12.2617,-12.3008,-12.3203,-12.25,-12.1992,-12.2185,-12.1991,-12.1992,-12.2187,-12.1406,-12.0894,-12.0914,-12.01,-11.9497,-11.9302,-11.9419,-11.9419,-11.9185,-11.9497,-11.8998,-11.7694,-11.5102,-11.2713,-11.0518,-11.0284,-11.0588,-11.1193,-11.0314,-11.0002,-8.0168,-8.2591,-8.441,-8.3943,-8.4193,-8.4365,-8.3851,-8.3608,-8.3442,0.0,0.0,-8.3324,-8.5075,-8.5653,-8.6863,-9.0014,-9.2487,-9.5941,0.0,0.0,0.0,0.0,0.0,-12.0003,0.0,-12.0508,-12.1285,-12.0896,-12.1207,-12.1312,-12.1093,-12.1312,-12.0974,-12.0197,-12.179,-12.2295,-12.1479,-12.3205,-12.4099,-12.4176,-12.4487,-12.4304,-12.3499,-12.3488,-12.2983,-12.2178,-12.2399,-12.1901,-12.0983,-12.0312,-11.9509,-11.8612,-11.8216,-11.7608,-11.6921,-11.7304,-11.7203,-11.6896,-11.6696,-11.6984,-11.7378,-11.691,-11.7391,-11.7716,-11.5101,-11.4816,-11.5206,-11.4003,-11.4316,-11.5291,-11.6716,-11.6999,-11.7311,-11.8599,-11.9497,-12.0395,-12.1293,-12.2497,-12.3306,-12.289,-12.3203,-12.3203,-12.2411,-12.2614,-12.289,-12.289,-12.25,-12.2304,-12.2695,-12.2812,-12.2617,-12.2187,-12.1406,-12.07,-12.0317,-11.9514,-11.899,-11.899,-11.9692,-11.9888,-11.9614,-11.9614,-11.8608,-11.6593,-11.3884,-11.2314,-11.1689,-11.1689,-11.211,-11.2998,-11.211,-11.1681,-8.0091,-8.2591,-8.4453,-8.4198,-8.4232,-8.4498,-8.5082,-8.3623,0.0,0.0,0.0,0.0,0.0,0.0,0.0,0.0,0.0,0.0,0.0,0.0,0.0,0.0,0.0,0.0,-11.9198,-12.1091,-12.1906,-12.0702,-12.179,-12.1712,-11.9692,-12.179,-12.2295,-12.078,-12.3188,-12.3704,-12.2208,-12.4286,-12.4975,-12.4315,-12.4975,-12.4509,-12.2994,-12.3788,-12.3283,-12.1673,-12.1917,-12.1378,-12.0422,-11.9709,-11.9279,-11.9006,-11.8395,-11.7693,-11.7304,-11.7888,-11.7296,-11.6389,-11.7599,-11.8106,-11.8099,-11.8099,-11.8091,-11.7612,-11.5218,-11.5505,-11.6297,-11.4906,-11.4606,-11.5085,-11.6599,-11.7116,-11.7389,-11.8092,-11.9497,-12.0707,-12.0785,-12.2106,-12.3188,-12.3319,-12.3281,-12.3003,-12.2106,-12.2017,-12.1991,-12.2187,-12.2187,-12.25,-12.3398,-12.3515,-12.3203,-12.2304,-12.1406,-12.0503,-11.9701,-11.8912,-11.8482,-11.8482,-11.9818,-12.0287,-11.9419,-11.9302,-11.7584,-11.4313,-11.2783,-11.2392,-11.3095,-11.3095,-11.3602,-11.4617,-11.3602,-11.3095,-8.0022,-8.2582,-8.4159,-8.2791,-8.2999,-8.3336,-8.2779,-8.2377,-8.2143,0.0,0.0,0.0,0.0,0.0,0.0,0.0,0.0,0.0,0.0,0.0,0.0,0.0,0.0,-12.0014,-11.9918,-12.0325,-12.1091,-12.2295,-12.1984,-12.1906,-12.2217,-12.3305,-12.381,-12.3499,-12.5286,-12.6102,-12.5801,-12.5498,-12.5304,-12.5092,-12.5304,-12.4876,-12.3888,-12.4032,-12.3577,-12.2606,-12.2803,-12.1878,-12.0399,-12.041,-11.9513,-11.8188,-11.811,-11.84,-11.879,-11.8205,-11.8379,-11.87,-11.8286,-11.8091,-11.8099,-11.8099,-11.8099,-11.7709,-11.5806,-11.5487,-11.5687,-11.5388,-11.5908,-11.6584,-11.6911,-11.7506,-11.8092,-11.8287,-11.899,-11.9888,-12.0707,-12.1591,-12.2314,-12.229,-12.229,-12.2099,-12.1208,-12.1114,-12.1299,-12.2109,-12.2187,-12.25,-12.3398,-12.3515,-12.3203,-12.2304,-12.1406,-12.0503,-11.9701,-11.9497,-11.938,-11.938,-11.9607,-11.9418,-11.8521,-11.7819,-11.6117,-11.3415,-11.2994,-11.3017,-11.3095,-11.3095,-11.3915,-11.5515,-11.3798,-11.3095,-7.9481,-8.1213,-8.2682,-8.3842,-8.5448,-8.6622,-8.628,-8.5857,-8.5572,0.0,0.0,0.0,0.0,0.0,0.0,0.0,0.0,0.0,0.0,0.0,0.0,0.0,0.0,-11.9703,-12.0082,-12.0607,-12.1373,-12.2704,-12.2383,-12.2606,-12.3499,-12.3383,-12.381,-12.4703,-12.5092,-12.548,-12.5908,-12.5014,-12.5092,-12.5985,-12.5587,-12.5081,-12.4703,-12.4703,-12.4004,-12.28,-12.2908,-12.1675,-11.9699,-11.9786,-11.9416,-11.8694,-11.8694,-11.9201,-11.9902,-11.9006,-11.8985,-11.9197,-11.8278,-11.8005,-11.7989,-11.7989,-11.7989,-11.7716,-11.5889,-11.5806,-11.5994,-11.5112,-11.5505,-11.6401,-11.738,-11.8014,-11.8287,-11.8287,-11.8912,-11.9692,-12.059,-12.1497,-12.2216,-12.2685,-12.2419,-12.1801,-12.0992,-12.0518,-12.0284,-12.0693,-12.0813,-12.1091,-12.1992,-12.2109,-12.1795,-12.088,-12.0914,-12.0512,-11.9701,-12.0005,-12.0317,-12.0278,-11.9903,-11.9009,-11.7701,-11.6804,-11.529,-11.3086,-11.3611,-11.3798,-11.3798,-11.4695,-11.5593,-11.6413,-11.5086,-11.45,-7.9572,-8.0645,-8.1981,-8.5082,-8.6994,-8.8419,-8.9679,0.0,0.0,0.0,0.0,0.0,0.0,0.0,0.0,0.0,0.0,0.0,0.0,0.0,-11.559,-11.6482,-11.7977,-11.9209,-11.9974,-12.0888,-12.1781,-12.2613,-12.2713,-12.3092,-12.3975,-12.3393,-12.3704,-12.5286,-12.4703,-12.4703,-12.5296,-12.4382,-12.4576,-12.5985,-12.5296,-12.4878,-12.4713,-12.4908,-12.4208,-12.281,-12.2583,-12.1378,-11.9387,-11.9492,-11.9514,-11.9591,-11.9591,-11.998,-12.0487,-11.9902,-11.9513,-11.9201,-11.8305,-11.7993,-11.7993,-11.7993,-11.7993,-11.772,-11.591,-11.591,-11.6122,-11.4403,-11.4581,-11.5609,-11.7019,-11.7692,-11.7887,-11.7692,-11.8521,-11.9497,-12.059,-12.1283,-12.2103,-12.2894,-12.2386,-12.1479,-12.0707,-11.9795,-11.9385,-11.9607,-11.9614,-11.9903,-12.0815,-12.0896,-12.0583,-11.9709,-12.0395,-12.059,-12.0005,-12.0512,-12.0716,-12.031,-11.9716,-11.8391,-11.649,-11.5805,-11.4813,-11.3407,-11.411,-11.4587,-11.5016,-11.6296,-11.7116,-11.7311,-11.6218,-11.571,-8.1135,-8.2387,-8.3481,-8.5347,-8.4725,-8.4937,-8.9718,-8.899,0.0,-9.1292,0.0,0.0,0.0,0.0,0.0,0.0,0.0,0.0,-11.55,0.0,-11.6275,-11.7205,-11.8228,-11.9082,-11.9913,-12.0695,-12.1587,-12.2401,-12.2511,-12.2892,-12.3886,-12.3886,-12.4304,-12.5286,-12.5208,-12.5218,-12.5197,-12.4313,-12.3994,-12.4315,-12.401,-12.3513,-12.2877,-12.3692,-12.3498,-12.2713,-12.2,-12.1183,-12.0282,-12.0388,-12.041,-12.0487,-12.0487,-12.0487,-12.0604,-12.0487,-11.998,-11.9201,-11.8305,-11.7993,-11.7993,-11.7993,-11.7993,-11.7702,-11.5911,-11.5385,-11.521,-11.3512,-11.3607,-11.4286,-11.4491,-11.5816,-11.6803,-11.5983,-11.7097,-11.8795,-12.0512,-12.0805,-12.1185,-12.1986,-12.1508,-12.0599,-11.98,-11.899,-11.8686,-11.9506,-11.9584,-11.9896,-12.0803,-12.0908,-12.0585,-11.9709,-12.0395,-12.0903,-12.0785,-12.0903,-12.0193,-11.8592,-11.8391,-11.7294,-11.4804,-11.4615,-11.4383,-11.4305,-11.4383,-11.5219,-11.6802,-11.6898,-11.7389,-11.8209,-11.6491,-11.5688,-8.0022,-8.1765,-8.3678,-8.6026,-8.6514,0.0,0.0,-9.3338,-9.429,-9.7108,0.0,0.0,0.0,0.0,0.0,0.0,0.0,-11.422,-11.5803,-11.6987,-11.7593,-11.7399,-11.8702,-11.9703,-11.9997,-12.0695,-12.1587,-12.2401,-12.2982,-12.3513,-12.3985,-12.3916,-12.4274,-12.5228,-12.4286,-12.4014,-12.439,-12.3978,-12.3692,-12.3305,-12.3692,-12.4002,-12.4296,-12.4606,-12.3985,-12.2694,-12.2517,-12.1288,-11.9496,-11.9582,-11.9998,-12.0605,-12.1793,-12.189,-12.1305,-12.0798,-11.998,-11.9201,-11.8305,-11.7993,-11.7993,-11.7993,-11.7993,-11.778,-11.6612,-11.5911,-11.519,-11.4021,-11.3494,-11.349,-11.4088,-11.5206,-11.6116,-11.6389,-11.6506,-11.7193,-11.9506,-11.9495,-11.9588,-12.0989,-12.0599,-11.9886,-11.9584,-11.9293,-11.899,-11.8795,-11.9185,-11.9302,-11.8599,-11.889,-11.92,-11.8782,-12.0094,-12.0713,-12.0107,-12.0115,-11.9607,-11.8398,-11.7811,-11.66,-11.4492,-11.4409,-11.4396,-11.4381,-11.5493,-11.6313,-11.6997,-11.7484,-11.8014,-11.8287,-11.7116,-11.6508,-8.0207,-8.1719,-8.3809,-8.645,-8.7914,0.0,-9.4357,-9.6172,-9.7963,-10.1813,0.0,0.0,0.0,0.0,0.0,0.0,-11.3402,-11.5273,-11.6198,-11.7496,-11.8175,-11.7896,-11.9198,-12.0207,-12.0385,-12.1121,-12.1819,-12.2406,-12.3298,-12.3791,-12.3994,-12.3893,-12.4094,-12.4708,-12.3489,-12.2984,-12.3396,-12.3403,-12.3195,-12.2704,-12.3023,-12.3606,-12.4519,-12.4519,-12.3898,-12.2694,-12.2217,-12.1184,-11.9783,-11.9598,-12.021,-12.1481,-12.2689,-12.2708,-12.1812,-12.0915,-11.998,-11.9201,-11.8305,-11.8188,-11.8383,-11.8383,-11.8616,-11.8616,-11.7488,-11.6514,-11.5598,-11.408,-11.332,-11.3005,-11.3318,-11.4308,-11.5219,-11.5609,-11.5622,-11.6103,-11.7923,-11.7703,-11.769,-11.8886,-11.8898,-11.8781,-11.8988,-11.9283,-11.9419,-11.9107,-11.9614,-11.9419,-11.8014,-11.8287,-11.8702,-11.8706,-11.9492,-11.9804,-11.9217,-11.9195,-11.8709,-11.7617,-11.7187,-11.6289,-11.4883,-11.4609,-11.4686,-11.5188,-11.6384,-11.7087,-11.7408,-11.7999,-11.8287,-11.8287,-11.7413,-11.6991,-8.2192,-8.2635,-8.3905,-8.6466,0.0,0.0,-9.5907,-9.6532,-9.7942,-10.4594,0.0,0.0,0.0,0.0,0.0,-11.1886,-11.4302,-11.6198,-11.7192,-11.7374,-11.7702,-11.8724,-11.9616,-12.0401,-12.1083,-12.2013,-12.2484,-12.2381,-12.3194,-12.3694,-12.3797,-12.3694,-12.3694,-12.3797,-12.3117,-12.2588,-12.2381,-12.2588,-12.2613,-12.2478,-12.1798,-12.1906,-12.2683,-12.2683,-12.2683,-12.2605,-12.0907,-12.0782,-12.1606,-12.0788,-12.1478,-12.3214,-12.3214,-12.2708,-12.1812,-12.0915,-12.0097,-11.9201,-11.8305,-11.8616,-11.9279,-11.9279,-11.9902,-12.0292,-11.8499,-11.741,-11.6184,-11.3611,-11.2892,-11.26,-11.178,-11.2883,-11.4005,-11.3187,-11.4308,-11.5583,-11.5583,-11.5517,-11.5502,-11.5622,-11.6285,-11.7196,-11.8012,-11.8892,-11.981,-12.059,-12.0785,-12.0512,-11.9614,-11.9614,-11.9592,-11.9614,-11.8819,-11.8311,-11.8302,-11.8306,-11.7499,-11.5781,-11.6484,-11.6601,-11.5703,-11.4883,-11.5312,-11.6992,-11.6992,-11.7383,-11.8281,-11.8286,-11.8287,-11.8287,-11.7415,-11.6982,-8.0396,-8.2575,0.0,0.0,0.0,0.0,0.0,-10.0884,0.0,0.0,0.0,0.0,0.0,0.0,0.0,-11.2002,-11.3833,-11.5505,-11.7011,-11.7302,-11.7477,-11.778,-11.9098,-12.0106,-12.0307,-12.1598,-12.2412,-12.2523,-12.3802,-12.4184,-12.3117,-12.4094,-12.4184,-12.2881,-12.2768,-12.2691,-12.2381,-12.2588,-12.2613,-12.2478,-12.2419,-12.2519,-12.2694,-12.2111,-12.1917,-12.18,-12.1417,-12.1003,-12.0794,-12.12,-12.1714,-12.2279,-12.2279,-12.2513,-12.2591,-12.111,-12.0798,-12.0993,-12.0097,-11.998,-12.0214,-12.0214,-11.998,-11.9591,-11.9084,-11.7525,-11.5715,-11.4914,-11.3806,-11.2793,-11.2615,-11.2905,-11.3412,-11.3801,-11.3818,-11.3912,-11.4488,-11.4107,-11.3896,-11.4488,-11.48,-11.5322,-11.6194,-11.8106,-11.9194,-11.8179,-12.0112,-12.1215,-11.9692,-11.899,-11.8179,-11.6997,-11.7679,-11.7593,-11.5695,-11.611,-11.6519,-11.6601,-11.6289,-11.6015,-11.5703,-11.6093,-11.6484,-11.6992,-11.7617,-11.8008,-11.8281,-11.8318,-11.8297,-11.8287,-11.7999,-11.7882,-8.3259,0.0,0.0,0.0,0.0,0.0,0.0,0.0,0.0,0.0,0.0,0.0,0.0,-11.1298,0.0,-11.3369,-11.4491,-11.5695,-11.7401,-11.7806,-11.8214,-11.8802,-11.9609,-12.0184,-12.0385,-12.1365,-12.2019,-12.2116,-12.3597,-12.3985,-12.2799,-12.3893,-12.399,-12.2381,-12.2613,-12.2497,-12.1916,-12.2084,-12.1992,-12.1495,-12.1612,-12.1712,-12.1694,-12.1878,-12.1995,-12.1995,-12.2078,-12.1611,-12.0897,-12.1512,-12.1792,-12.1812,-12.1111,-12.0916,-12.0994,-11.9884,-11.9611,-11.9806,-11.9981,-12.0293,-12.0624,-12.0993,-12.0798,-12.0214,-11.9513,-11.7798,-11.5889,-11.5187,-11.4018,-11.2888,-11.2888,-11.2888,-11.3005,-11.359,-11.3317,-11.2888,-11.2688,-11.2204,-11.1992,-11.2493,-11.2976,-11.3694,-11.5214,-11.7118,-11.8207,-11.7493,-11.9506,-12.0893,-12.059,-11.9185,-11.7905,-11.6789,-11.6703,-11.6101,-11.45,-11.5203,-11.5813,-11.6002,-11.6089,-11.621,-11.6211,-11.6718,-11.7187,-11.75,-11.8003,-11.8316,-11.8281,-11.8316,-11.8306,-11.8292,-11.8304,-11.8287,0.0,0.0,0.0,0.0,0.0,0.0,0.0,0.0,0.0,0.0,0.0,0.0,-11.3103,-11.2893,-11.3228,-11.5502,-11.6001,-11.6616,-11.8174,-11.8586,-11.9228,-12.0677,-12.0385,-12.0293,-12.1005,-12.1199,-12.1309,-12.1518,-12.2931,-12.3403,-12.2605,-12.3319,-12.3182,-12.2188,-12.2426,-12.2,-12.0987,-12.1108,-12.0781,-12.0121,-12.0021,-12.0021,-12.0315,-12.1888,-12.2694,-12.2713,-12.2816,-12.2492,-12.18,-12.1683,-12.1789,-12.1715,-11.9782,-11.8692,-11.8111,-11.8009,-11.7597,-11.7191,-11.8791,-11.9786,-12.0624,-12.1481,-12.1617,-12.111,-11.9513,-11.7798,-11.5988,-11.4507,-11.3377,-11.281,-11.2888,-11.2888,-11.2888,-11.2888,-11.281,-11.2304,-11.0706,-11.0199,-11.0199,-11.0316,-11.1012,-11.2407,-11.4785,-11.609,-11.7103,-11.8093,-11.8808,-11.9886,-12.1713,-11.981,-11.8209,-11.8209,-11.5984,-11.45,-11.4383,-11.5203,-11.5407,-11.4578,-11.5982,-11.6904,-11.6913,-11.6992,-11.7383,-11.8281,-11.8292,-11.8292,-11.8281,-11.8292,-11.8297,-11.8281,-11.8292,-11.8296,0.0,0.0,0.0,0.0,0.0,0.0,0.0,0.0,0.0,0.0,0.0,0.0,-11.421,-11.3678,-11.3717,-11.5686,-11.5923,-11.6508,-11.8174,-11.8513,-11.8697,-11.9089,-11.9588,-11.9898,-12.0092,-12.0712,-12.1482,-12.2201,-12.328,-12.3195,-12.179,-12.248,-12.2217,-12.0585,-12.0703,-12.0616,-12.0197,-11.9772,-11.9685,-11.999,-11.9529,-11.9772,-12.0998,-12.1518,-12.2111,-12.2894,-12.2908,-12.2803,-12.2695,-12.1995,-12.1706,-12.1612,-11.9799,-11.9387,-11.9799,-11.9076,-11.9176,-11.9687,-12.0097,-12.039,-12.0585,-12.0798,-11.9494,-11.7703,-11.7391,-11.5113,-11.2697,-11.3009,-11.2406,-11.2016,-11.26,-11.2892,-11.2888,-11.2888,-11.2382,-11.1602,-11.0511,-10.981,-10.9498,-11.0199,-11.0489,-11.1206,-11.3187,-11.479,-11.6623,-11.8898,-11.8184,-11.8301,-12.0794,-11.8804,-11.7214,-11.7311,-11.6218,-11.5086,-11.45,-11.5188,-11.5617,-11.5398,-11.5797,-11.6008,-11.6015,-11.6597,-11.7383,-11.8281,-11.8319,-11.831,-11.8319,-11.831,-11.8319,-11.8281,-11.8319,-11.8302,0.0,0.0,0.0,0.0,0.0,0.0,0.0,0.0,0.0,0.0,0.0,-11.3716,-11.408,-11.4126,-11.4519,-11.5797,-11.6306,-11.7007,-11.8174,-11.8478,-11.8702,-11.9097,-11.9481,-11.998,-12.0513,-12.0905,-12.1482,-12.2605,-12.2683,-12.2325,-12.15,-12.149,-12.1112,-12.0099,-12.0102,-11.9985,-11.9401,-11.9102,-11.9102,-11.95,-11.95,-12.0285,-12.1922,-12.1992,-12.2276,-12.2894,-12.2894,-12.2908,-12.289,-12.1494,-12.0998,-12.0911,-11.8718,-11.8111,-11.8485,-11.7994,-11.8111,-11.8703,-11.9488,-11.9882,-12.0001,-12.039,-11.9085,-11.7099,-11.6281,-11.4488,-11.25,-11.1683,-11.1781,-11.2074,-11.2192,-11.2211,-11.2307,-11.281,-11.2187,-11.1407,-11.0476,-10.9715,-10.9186,-10.958,-10.9988,-11.0684,-11.2095,-11.3786,-11.57,-11.7884,-11.7807,-11.8286,-12.0486,-11.8912,-11.7481,-11.7604,-11.6004,-11.4921,-11.4383,-11.479,-11.4712,-11.3915,-11.4188,-11.4305,-11.3915,-11.4308,-11.5305,-11.6992,-11.75,-11.7693,-11.7716,-11.8107,-11.8508,-11.8906,-11.8515,-11.8513,0.0,0.0,0.0,0.0,0.0,0.0,0.0,0.0,0.0,0.0,0.0,-11.3569,-11.3802,-11.4305,-11.5003,-11.5875,-11.6611,-11.739,-11.852,-11.871,-11.9132,-11.9992,-12.022,-12.06,-12.1404,-12.1409,-12.1709,-12.2704,-12.1898,-12.1393,-12.1324,-12.0508,-11.9897,-11.9694,-11.9703,-11.9392,-11.8607,-11.8569,-11.8704,-11.8798,-11.9616,-12.0906,-12.2519,-12.2519,-12.2587,-12.28,-12.28,-12.2921,-12.2905,-12.1093,-12.0522,-12.021,-11.7789,-11.6792,-11.6701,-11.6611,-11.6611,-11.6909,-11.8392,-11.8904,-11.9004,-11.9709,-11.8696,-11.6904,-11.5209,-11.4117,-11.2906,-11.0805,-11.1194,-11.2111,-11.1588,-11.1413,-11.151,-11.2481,-11.1992,-11.1195,-11.0614,-10.9892,-10.9286,-10.9212,-10.9793,-11.0606,-11.151,-11.2992,-11.4605,-11.6389,-11.7218,-11.8301,-12.0016,-11.8598,-11.7598,-11.7689,-11.571,-11.4316,-11.4383,-11.4383,-11.368,-11.208,-11.2587,-11.2509,-11.1611,-11.1689,-11.2813,-11.4997,-11.621,-11.6797,-11.6992,-11.7916,-11.8697,-11.9414,-11.8593,-11.8711,0.0,0.0,0.0,0.0,0.0,0.0,0.0,0.0,0.0,0.0,-11.4713,-11.37,-11.4397,-11.4093,-11.421,-11.572,-11.6107,-11.7003,-11.918,-11.9489,-12.0186,-12.181,-12.2004,-12.2002,-12.2196,-12.2191,-12.23,-12.2511,-12.1798,-12.1082,-12.0391,-11.9614,-11.881,-11.7909,-11.7994,-11.7916,-11.7715,-11.7811,-11.7905,-11.7905,-11.9392,-12.0713,-12.1684,-12.1684,-12.2101,-12.28,-12.28,-12.2816,-12.2817,-12.1819,-12.1003,-12.0211,-11.9097,-11.8191,-11.7478,-11.7516,-11.7595,-11.7691,-11.7987,-11.8091,-11.8014,-11.7391,-11.5988,-11.4173,-11.2495,-11.1297,-11.051,-11.0083,-11.0209,-11.0605,-11.1216,-11.0907,-11.0692,-11.1585,-11.1096,-11.0589,-11.129,-11.0706,-11.0083,-11.0121,-11.031,-11.0691,-11.151,-11.2485,-11.3694,-11.5385,-11.5806,-11.6491,-11.8177,-11.6306,-11.501,-11.5905,-11.5007,-11.4316,-11.4383,-11.4383,-11.3993,-11.3017,-11.2314,-11.1611,-11.0714,-11.1416,-11.201,-11.2291,-11.468,-11.6211,-11.6992,-11.7911,-11.838,-11.8515,-11.8398,-11.8398,0.0,0.0,0.0,0.0,0.0,0.0,0.0,0.0,0.0,-11.631,-11.4607,-11.3402,-11.3422,-11.339,-11.3706,-11.4519,-11.5415,-11.6276,-11.7401,-11.8868,-12.0103,-12.0805,-12.1693,-12.2503,-12.2968,-12.2694,-12.2605,-12.3202,-12.1177,-11.9995,-12.0197,-11.8488,-11.7567,-11.7578,-11.7683,-11.7683,-11.7578,-11.7683,-11.8216,-11.9109,-12.078,-12.1906,-12.2217,-12.2217,-12.2411,-12.28,-12.2295,-12.2427,-12.2791,-12.1404,-12.0627,-12.0186,-11.8774,-11.8009,-11.7711,-11.7711,-11.7802,-11.7785,-11.7325,-11.7174,-11.7079,-11.6281,-11.5111,-11.3823,-11.2511,-11.139,-11.0601,-11.0096,-11.0418,-11.0799,-11.0688,-11.0497,-11.0498,-11.139,-11.0884,-11.0788,-11.2619,-11.1585,-11.0394,-11.0901,-11.109,-11.1393,-11.229,-11.3109,-11.3888,-11.4707,-11.5221,-11.5811,-11.6508,-11.5611,-11.5097,-11.5596,-11.4789,-11.4099,-11.3701,-11.3203,-11.2383,-11.1008,-11.1017,-11.0714,-10.9894,-11.0596,-11.1299,-11.1807,-11.4392,-11.5894,-11.6289,-11.7091,-11.8091,-11.9,-11.7997,-11.8083,0.0,0.0,0.0,0.0,0.0,0.0,0.0,0.0,-11.7091,0.0,-11.4499,-11.3373,-11.2414,-11.2809,-11.3203,-11.3402,-11.4685,-11.5923,-11.6511,-11.8513,-12.0096,-12.0687,-12.192,-12.3001,-12.3582,-12.3078,-12.2915,-12.3195,-12.0703,-11.9403,-11.9886,-11.7893,-11.6973,-11.7606,-11.7711,-11.7711,-11.7606,-11.7905,-11.8798,-12.0197,-12.1712,-12.2606,-12.28,-12.2606,-12.2606,-12.28,-12.2101,-12.2167,-12.2791,-12.1196,-12.038,-12.0122,-11.8604,-11.78,-11.7606,-11.7606,-11.7582,-11.7411,-11.6797,-11.6491,-11.6183,-11.5287,-11.4584,-11.3801,-11.2604,-11.2011,-11.1417,-11.0601,-11.0782,-11.1204,-11.0705,-11.0299,-11.0398,-11.1315,-11.112,-11.1179,-11.3301,-11.2289,-11.0983,-11.1195,-11.1096,-11.1307,-11.222,-11.2999,-11.3701,-11.4107,-11.4815,-11.5187,-11.5187,-11.4992,-11.4909,-11.4907,-11.4413,-11.3607,-11.2783,-11.1993,-11.0783,-10.931,-10.9798,-10.9894,-10.9308,-11.0284,-11.1104,-11.1807,-11.4407,-11.572,-11.5698,-11.6584,-11.7811,-11.9194,-11.7889,-11.799,0.0,0.0,0.0,0.0,0.0,0.0,0.0,0.0,-11.7707,-11.5299,-11.4607,-11.4109,-11.2505,-11.2196,-11.2512,-11.3296,-11.4287,-11.5708,-11.8017,-11.9317,-12.0895,-12.3194,-12.3621,-12.3698,-12.3698,-12.3698,-12.2997,-12.1509,-12.0616,-11.9809,-11.9109,-11.8217,-11.7725,-11.7482,-11.7606,-11.7606,-11.7482,-11.8499,-11.9381,-12.0197,-12.1091,-12.1984,-12.28,-12.1906,-12.1984,-12.28,-12.28,-12.2816,-12.2791,-12.1779,-12.0896,-12.008,-11.9102,-11.818,-11.7482,-11.7482,-11.7101,-11.657,-11.6602,-11.608,-11.5185,-11.4406,-11.3973,-11.3615,-11.1909,-11.1883,-11.2388,-11.1495,-11.1301,-11.1287,-11.1297,-11.0699,-11.0294,-11.1216,-11.1413,-11.1705,-11.2715,-11.2815,-11.2093,-11.0712,-10.97,-10.9311,-11.0284,-11.112,-11.2172,-11.3901,-11.4213,-11.4291,-11.4291,-11.3512,-11.3116,-11.3113,-11.3087,-11.2709,-11.1885,-11.1086,-11.0197,-10.931,-10.93,-10.9308,-10.9308,-11.0909,-11.1807,-11.1807,-11.4383,-11.571,-11.5719,-11.6608,-11.7515,-11.8413,-11.8296,-11.8296,-8.9837,0.0,0.0,0.0,0.0,0.0,0.0,-11.4414,-11.6201,-11.4186,-11.4225,-11.4383,-11.3799,-11.3296,-11.302,-11.3402,-11.5106,-11.6697,-11.7478,-11.9898,-12.1869,-12.2697,-12.3388,-12.3694,-12.3626,-12.312,-12.2416,-12.1315,-12.0013,-11.9209,-11.8993,-11.7699,-11.7116,-11.7606,-11.7683,-11.7683,-11.7578,-11.9109,-11.9886,-12.0197,-12.1091,-12.1984,-12.28,-12.1285,-12.1091,-12.1906,-12.1401,-12.1401,-12.1917,-12.0995,-12.0082,-11.9121,-11.8315,-11.7733,-11.7392,-11.6802,-11.6512,-11.6208,-11.5108,-11.4601,-11.43,-11.3304,-11.3109,-11.2915,-11.2297,-11.2,-11.1806,-11.2117,-11.1792,-11.1414,-11.1399,-11.1204,-11.101,-11.1305,-11.2283,-11.3009,-11.2795,-11.2677,-11.25,-11.2015,-11.1626,-11.1509,-11.1783,-11.2114,-11.26,-11.3317,-11.3395,-11.3395,-11.3395,-11.3083,-11.2883,-11.3009,-11.3009,-11.2397,-11.1005,-11.0715,-11.009,-10.9288,-10.9678,-11.0285,-11.0909,-11.1984,-11.2608,-11.2587,-11.3602,-11.4617,-11.571,-11.6608,-11.7389,-11.8287,-11.7701,-11.7796,-8.8239,-9.0752,0.0,0.0,0.0,-10.6503,-10.9407,-11.2208,-11.3997,-11.349,-11.3993,-11.4689,-11.4999,-11.4878,-11.4602,-11.4403,-11.5996,-11.7472,-11.7978,-12.0391,-12.2201,-12.2384,-12.2993,-12.3298,-12.3194,-12.2691,-12.2024,-12.0882,-11.9927,-11.9092,-11.8604,-11.7504,-11.7116,-11.7711,-11.7711,-11.7711,-11.7711,-11.9381,-12.0197,-12.0197,-12.1401,-12.2217,-12.28,-12.1285,-12.0819,-12.1024,-12.0402,-12.049,-12.0897,-12.0013,-11.9214,-11.8608,-11.7723,-11.7219,-11.6902,-11.6314,-11.5793,-11.5192,-11.4083,-11.3619,-11.3396,-11.2711,-11.2492,-11.2492,-11.2479,-11.2103,-11.1804,-11.2309,-11.1896,-11.1301,-11.1715,-11.1817,-11.1803,-11.1787,-11.2705,-11.3389,-11.2789,-11.2889,-11.3006,-11.24,-11.2322,-11.24,-11.2697,-11.2503,-11.2601,-11.3203,-11.3104,-11.291,-11.291,-11.291,-11.2922,-11.2982,-11.2996,-11.2293,-11.0499,-11.0407,-11.0107,-10.9212,-11.0005,-11.0782,-11.1798,-11.2598,-11.3106,-11.3095,-11.3711,-11.4491,-11.571,-11.6296,-11.7194,-11.8287,-11.7701,-11.7694,0.0,0.0,0.0,-9.6178,0.0,0.0,-10.8625,-11.0505,-11.1091,-11.2976,-11.4016,-11.4907,-11.5914,-11.6793,-11.7096,-11.6295,-11.687,-11.8104,-11.9593,-12.0789,-12.181,-12.2395,-12.2478,-12.2588,-12.2691,-12.2484,-12.1675,-12.0168,-12.0102,-11.942,-11.7788,-11.7802,-11.7789,-11.7711,-11.7711,-11.7711,-11.7711,-11.9304,-12.0197,-12.0197,-12.1906,-12.2683,-12.2683,-12.179,-12.0907,-12.0005,-12.0005,-12.0005,-11.9927,-11.9098,-11.8575,-11.8508,-11.7514,-11.6736,-11.5991,-11.6011,-11.4987,-11.3706,-11.3799,-11.3294,-11.2583,-11.2619,-11.2505,-11.2398,-11.2398,-11.2379,-11.232,-11.232,-11.17,-11.1225,-11.2175,-11.2491,-11.2608,-11.258,-11.2594,-11.2594,-11.2711,-11.3395,-11.349,-11.1811,-11.1399,-11.1694,-11.2616,-11.1989,-11.1989,-11.3808,-11.3282,-11.2815,-11.2815,-11.2814,-11.2905,-11.2992,-11.2992,-11.229,-11.0613,-11.0408,-11.0109,-10.921,-11.0017,-11.091,-11.1807,-11.2705,-11.3106,-11.3095,-11.4716,-11.5603,-11.571,-11.5789,-11.6608,-11.8287,-11.8287,-11.8292,-8.4621,0.0,0.0,0.0,0.0,0.0,-10.0211,-10.241,-10.5197,-11.0492,-11.1305,-11.2395,-11.6895,-11.7897,-11.828,-11.8802,-11.9609,-12.0423,-12.0817,-12.1689,-12.2411,-12.2511,-12.262,-12.262,-12.2523,-12.1393,-12.0494,-12.0106,-11.8986,-11.8111,-11.7588,-11.7617,-11.7606,-11.7711,-11.7711,-11.7711,-11.7711,-11.8798,-11.9614,-12.0197,-12.0702,-12.1207,-12.179,-11.9714,-11.8481,-11.8297,-11.75,-11.7205,-11.718,-11.8193,-11.8199,-11.7514,-11.6588,-11.5699,-11.4883,-11.4403,-11.3467,-11.26,-11.269,-11.2592,-11.2386,-11.2398,-11.2398,-11.2398,-11.2302,-11.2311,-11.232,-11.232,-11.2088,-11.2001,-11.2292,-11.2491,-11.2583,-11.2608,-11.2594,-11.2619,-11.2594,-11.29,-11.2906,-11.2394,-11.2293,-11.2293,-11.2588,-11.2495,-11.25,-11.3107,-11.3008,-11.291,-11.291,-11.2307,-11.2208,-11.2914,-11.2376,-11.1791,-11.1393,-11.1291,-11.1213,-11.1003,-11.1174,-11.1799,-11.2705,-11.3502,-11.3708,-11.3095,-11.4081,-11.4979,-11.571,-11.6999,-11.778,-11.8287,-11.8311,-11.8319,-8.5393,-8.6648,-8.8789,-9.0732,0.0,0.0,-9.9134,-10.0599,-10.2887,-11.0019,-11.1266,-11.2583,-11.7127,-11.8207,-11.8896,-12.0203,-12.1005,-12.1495,-12.1806,-12.21,-12.2208,-12.2077,-12.1798,-12.1604,-12.1503,-12.0595,-12.0005,-11.9586,-11.8393,-11.7489,-11.7112,-11.6996,-11.719,-11.7711,-11.7711,-11.7905,-11.8216,-11.8682,-11.9614,-12.0702,-12.0391,-12.0691,-12.1417,-11.8499,-11.689,-11.6512,-11.5491,-11.4817,-11.4491,-11.6194,-11.6585,-11.6008,-11.5196,-11.4306,-11.3494,-11.3092,-11.2622,-11.2196,-11.229,-11.2311,-11.2379,-11.2282,-11.2282,-11.2282,-11.229,-11.2189,-11.2228,-11.2228,-11.2298,-11.2204,-11.1914,-11.2192,-11.2583,-11.2583,-11.2608,-11.2594,-11.2594,-11.2604,-11.2705,-11.3008,-11.2774,-11.2798,-11.3615,-11.3109,-11.2806,-11.3203,-11.301,-11.2795,-11.2892,-11.2385,-11.2286,-11.2883,-11.2421,-11.1975,-11.1713,-11.158,-11.158,-11.1713,-11.169,-11.2124,-11.3021,-11.3503,-11.3685,-11.3584,-11.4383,-11.5515,-11.6804,-11.7116,-11.7584,-11.8287,-11.8319,-11.8507,-8.6771,-8.7444,-8.9333,-9.2365,-9.1451,0.0,-10.109,-10.1608,-10.21,-10.9392,-11.1709,-11.322,-11.5889,-11.7269,-11.8414,-11.9588,-12.0611,-12.1518,-12.2527,-12.2082,-12.1606,-12.1596,-12.0781,-12.0306,-12.0286,-11.9908,-11.9491,-11.8887,-11.7994,-11.7322,-11.6584,-11.6506,-11.6895,-11.7711,-11.7711,-11.8099,-11.8798,-11.8915,-11.9692,-12.1207,-12.0391,-12.038,-12.1016,-11.7699,-11.5714,-11.4581,-11.3794,-11.2893,-11.2217,-11.3803,-11.4499,-11.4383,-11.3494,-11.2604,-11.1792,-11.1892,-11.1886,-11.1886,-11.2096,-11.2204,-11.232,-11.232,-11.222,-11.2196,-11.2234,-11.2091,-11.2101,-11.2101,-11.2234,-11.2126,-11.1312,-11.1893,-11.2622,-11.2622,-11.2699,-11.2725,-11.2697,-11.2721,-11.3008,-11.3904,-11.3294,-11.3109,-11.4626,-11.3605,-11.2905,-11.3684,-11.32,-11.2677,-11.2815,-11.2814,-11.281,-11.2888,-11.2814,-11.2406,-11.1797,-11.1723,-11.1705,-11.1719,-11.1908,-11.229,-11.3109,-11.3304,-11.3684,-11.4411,-11.5296,-11.6479,-11.8209,-11.6686,-11.6804,-11.8287,-11.8311,-11.8819,-8.9332,-8.9566,-9.0499,-9.1256,-9.151,0.0,-9.3375,-9.4231,-9.6377,-10.2021,-10.3794,-10.5796,-11.0298,-11.2414,-11.3212,-11.2212,-11.6081,-11.999,-12.2201,-12.2519,-12.25,-12.2489,-12.1694,-12.1218,-12.1199,-11.8704,-11.7295,-11.7821,-11.7006,-11.6801,-11.74,-11.7306,-11.7423,-11.7711,-11.7711,-11.7788,-11.7983,-11.7983,-11.8488,-11.9498,-11.9304,-11.8887,-11.8316,-11.6211,-11.4298,-11.2724,-11.2512,-11.229,-11.2217,-11.3184,-11.361,-11.3494,-11.272,-11.1405,-10.9974,-11.0111,-11.0104,-11.0182,-11.1011,-11.17,-11.232,-11.2189,-11.2196,-11.2202,-11.2097,-11.2101,-11.2101,-11.2101,-11.2208,-11.2228,-11.1995,-11.2195,-11.2386,-11.2386,-11.2996,-11.3593,-11.3619,-11.3619,-11.402,-11.5492,-11.4124,-11.2697,-11.2997,-11.2789,-11.2682,-11.2906,-11.2892,-11.2815,-11.291,-11.219,-11.2112,-11.281,-11.219,-11.1977,-11.2615,-11.2598,-11.2598,-11.2615,-11.3278,-11.3701,-11.4005,-11.5299,-11.5783,-11.5401,-11.6194,-11.6813,-11.7311,-11.7584,-11.8014,-11.8287,-11.8296,-11.8803,-9.1082,-9.0907,-9.1627,-9.213,-9.1567,0.0,0.0,-9.3395,-9.4465,-10.0423,-10.1619,-10.2708,-10.6408,-10.7871,-10.8821,-10.9606,-11.3009,-11.5996,-11.7205,-11.9711,-12.1208,-12.0781,-11.9995,-11.9286,-11.8898,-11.7373,-11.639,-11.639,-11.6402,-11.6623,-11.7114,-11.7077,-11.7193,-11.7686,-11.7686,-11.7893,-11.8293,-11.8293,-11.8604,-11.8993,-11.8111,-11.719,-11.6297,-11.3582,-11.1816,-11.0903,-11.0498,-11.0167,-11.0214,-11.0988,-11.1068,-11.0685,-11.079,-11.0012,-10.8891,-10.8918,-10.9498,-11.0311,-11.0724,-11.1499,-11.2196,-11.2208,-11.2208,-11.213,-11.2101,-11.2101,-11.2101,-11.2101,-11.2091,-11.2196,-11.2196,-11.232,-11.2514,-11.2902,-11.3384,-11.3787,-11.3787,-11.4098,-11.4409,-11.451,-11.3787,-11.3308,-11.3695,-11.31,-11.2492,-11.2588,-11.2694,-11.2775,-11.2815,-11.2387,-11.2289,-11.2814,-11.2426,-11.2309,-11.2888,-11.291,-11.291,-11.2888,-11.3689,-11.4078,-11.4208,-11.5403,-11.6101,-11.6207,-11.7115,-11.7809,-11.8209,-11.8716,-11.8716,-11.8287,-11.8716,-11.938,-9.3434,-9.2987,-9.3648,-9.3707,-9.2423,-9.1935,0.0,0.0,0.0,-9.9069,-10.0096,-10.0594,-10.2604,-10.3406,-10.448,-10.691,-10.9498,-11.1,-11.0517,-11.4677,-11.7694,-11.7598,-11.7404,-11.6996,-11.6196,-11.56,-11.5082,-11.5015,-11.5301,-11.5792,-11.6485,-11.6696,-11.6998,-11.7478,-11.7478,-11.7802,-11.8188,-11.8188,-11.7994,-11.7722,-11.6395,-11.5192,-11.4006,-11.1187,-10.9809,-10.9422,-10.8795,-10.8426,-10.8173,-10.9023,-10.8797,-10.8067,-10.8904,-10.8702,-10.8006,-10.8006,-10.9123,-11.0515,-11.0515,-11.1211,-11.2101,-11.2101,-11.2101,-11.2101,-11.2101,-11.2101,-11.2101,-11.2101,-11.229,-11.2395,-11.2389,-11.2514,-11.2796,-11.3484,-11.3811,-11.3787,-11.402,-11.4603,-11.4693,-11.3489,-11.3501,-11.39,-11.4405,-11.3396,-11.2491,-11.258,-11.2611,-11.2672,-11.2694,-11.2814,-11.2815,-11.2795,-11.2697,-11.2697,-11.2693,-11.2678,-11.2795,-11.291,-11.3808,-11.4392,-11.4702,-11.5618,-11.6512,-11.7091,-11.8012,-11.8697,-11.9205,-11.941,-11.9185,-11.8599,-11.9419,-12.02,-9.8195,-9.8129,-9.8139,-9.5217,-9.5433,-9.5144,-9.0547,0.0,-9.3065,-9.2399,0.0,-9.6741,-9.6931,0.0,0.0,-9.8797,-10.3305,-10.6104,-10.3788,-10.7197,-11.0678,-11.2902,-11.5093,-11.6196,-11.5302,-11.2604,-11.1694,-11.3887,-11.2811,-11.3395,-11.64,-11.7279,-11.7372,-11.6611,-11.6611,-11.6208,-11.5531,-11.5405,-11.4599,-11.3087,-11.3591,-11.263,-11.0322,-11.0614,-10.9891,-10.8498,-10.8907,-10.8681,-10.8212,-10.8876,-10.8684,-10.799,-10.8104,-10.7677,-10.6976,-10.6976,-10.8088,-10.9587,-10.9587,-11.0709,-11.2101,-11.2101,-11.2101,-11.2101,-11.2101,-11.2101,-11.2101,-11.2101,-11.2604,-11.318,-11.3319,-11.3383,-11.3514,-11.3717,-11.3811,-11.402,-11.4797,-11.5015,-11.5192,-11.5774,-11.4599,-11.3406,-11.2879,-11.2699,-11.2608,-11.2604,-11.2604,-11.2689,-11.2795,-11.2697,-11.2814,-11.291,-11.2795,-11.2386,-11.1797,-11.2406,-11.2815,-11.2776,-11.4295,-11.558,-11.6398,-11.8014,-11.8595,-11.7982,-11.8817,-11.8924,-11.8288,-11.9093,-11.9517,-11.9497,-12.0317,-12.0707,-9.8336,-9.8544,-9.8814,-9.5428,-9.5179,-9.4737,-9.0825,-9.0241,-9.0711,-9.1546,0.0,0.0,0.0,0.0,0.0,0.0,-9.991,-10.201,-10.0397,-10.3816,-10.7192,-10.9281,-11.1015,-11.2206,-11.2905,-11.171,-11.1499,-11.3078,-11.1622,-11.1778,-11.4195,-11.419,-11.4393,-11.4875,-11.4926,-11.4914,-11.4901,-11.4513,-11.3815,-11.2979,-11.2406,-11.1492,-11.0414,-11.0128,-10.9325,-10.8204,-10.8411,-10.799,-10.7218,-10.7604,-10.749,-10.7065,-10.7105,-10.6988,-10.6712,-10.6712,-10.7484,-10.8714,-10.929,-11.0292,-11.1413,-11.1873,-11.2101,-11.2101,-11.2101,-11.2101,-11.2101,-11.1993,-11.2299,-11.2681,-11.318,-11.3119,-11.3126,-11.4193,-11.451,-11.4603,-11.5015,-11.5414,-11.5619,-11.4901,-11.4104,-11.3328,-11.2602,-11.2408,-11.2503,-11.2608,-11.3008,-11.3382,-11.3405,-11.3405,-11.3389,-11.3494,-11.2984,-11.2478,-11.2289,-11.262,-11.301,-11.3516,-11.521,-11.6592,-11.741,-11.8694,-11.9214,-11.8918,-11.9675,-12.0186,-12.0408,-12.0822,-12.0989,-12.1098,-12.141,-12.1605,-9.9996,-10.0285,-10.0495,-9.5709,-9.4768,-9.4192,-9.0984,-9.0029,-9.0262,-9.186,-9.2929,0.0,0.0,0.0,-9.4902,-9.5664,0.0,-9.8917,-9.8078,-10.0414,-10.3102,-10.551,-10.7083,-10.8677,-11.0216,-10.9694,-10.991,-11.1216,-10.9677,-10.962,-11.1587,-11.1505,-11.1803,-11.2712,-11.3191,-11.3489,-11.3483,-11.332,-11.2902,-11.2104,-11.1305,-11.0614,-11.0189,-10.96,-10.8872,-10.8096,-10.799,-10.7413,-10.6488,-10.6603,-10.6488,-10.6405,-10.6486,-10.6488,-10.6603,-10.6602,-10.7181,-10.8105,-10.8797,-10.9796,-11.08,-11.149,-11.2105,-11.2488,-11.2411,-11.2604,-11.2801,-11.2614,-11.2921,-11.33,-11.3881,-11.3673,-11.36,-11.4707,-11.4998,-11.4987,-11.5008,-11.5405,-11.5522,-11.4181,-11.3918,-11.3499,-11.2514,-11.2311,-11.2496,-11.2802,-11.3502,-11.3877,-11.4201,-11.4188,-11.4174,-11.43,-11.3498,-11.2993,-11.3006,-11.3125,-11.3574,-11.4781,-11.6281,-11.7488,-11.8287,-11.9219,-11.9682,-11.9682,-12.061,-12.1186,-12.1617,-12.1903,-12.211,-12.2415,-12.2386,-12.2308,-10.5299,-10.5409,-10.4706,-9.6449,-9.5165,-9.4557,-8.9528,-9.0945,-9.3121,-9.2381,-9.4833,-9.6662,-9.5119,-9.6187,-9.6803,-9.5278,-9.6447,0.0,0.0,-9.5783,-9.6837,-10.0922,-10.4308,-10.6681,-10.7576,-10.5494,-10.5083,-10.7597,-10.6291,-10.641,-10.8684,-11.0511,-11.0994,-11.0096,-11.1583,-11.1593,-10.9994,-11.1389,-11.0902,-10.8504,-11.009,-11.0012,-10.8388,-10.9026,-10.8797,-10.8096,-10.7875,-10.7297,-10.6488,-10.6488,-10.6526,-10.6405,-10.6405,-10.6405,-10.6367,-10.6487,-10.7104,-10.799,-10.799,-10.9183,-11.0685,-11.0685,-11.1915,-11.33,-11.33,-11.3881,-11.4503,-11.4392,-11.5085,-11.5815,-11.5815,-11.5807,-11.5714,-11.5081,-11.4879,-11.4879,-11.4879,-11.4778,-11.4784,-11.4802,-11.4713,-11.4104,-11.26,-11.2379,-11.2708,-11.3484,-11.3695,-11.4085,-11.499,-11.5121,-11.5082,-11.5201,-11.4407,-11.3799,-11.3879,-11.4017,-11.4683,-11.6611,-11.7391,-11.8287,-11.9201,-12.0097,-12.0604,-12.0604,-12.1383,-12.1497,-12.0712,-12.1615,-12.2398,-12.3281,-12.3313,-12.2894,-10.8092,-10.8977,-10.8581,-10.1206,-9.9681,-9.8372,-9.2229,-9.3026,-9.4698,-9.3299,-9.6157,-9.8235,-9.604,-9.6584,-9.6853,-9.5206,-9.6351,-9.6989,0.0,-9.5693,-9.6368,-9.7786,-10.0925,-10.3079,-10.3391,-10.372,-10.4209,-10.4989,-10.351,-10.3588,-10.6088,-10.6788,-10.7207,-10.7313,-10.9487,-11.0101,-10.8834,-10.9918,-11.0317,-10.987,-10.9901,-10.9896,-11.0012,-11.0573,-11.0227,-10.8799,-10.8607,-10.8101,-10.7333,-10.668,-10.6486,-10.6405,-10.6409,-10.6369,-10.6405,-10.6407,-10.6602,-10.6988,-10.7721,-10.8684,-10.9912,-11.0491,-11.1104,-11.1908,-11.2991,-11.3494,-11.3807,-11.4201,-11.4701,-11.5196,-11.5627,-11.5502,-11.5211,-11.5585,-11.5306,-11.5003,-11.5514,-11.4707,-11.421,-11.5299,-11.4573,-11.3799,-11.3794,-11.3893,-11.3879,-11.3707,-11.4726,-11.557,-11.5869,-11.5897,-11.5989,-11.6001,-11.5212,-11.4707,-11.4693,-11.5295,-11.6279,-11.7525,-11.8403,-11.9182,-12.0097,-12.0993,-12.15,-12.15,-12.2279,-12.2588,-12.2396,-12.2708,-12.3295,-12.4211,-12.4221,-12.4104,-11.0566,-11.1606,-11.1293,-10.4505,-10.3395,-10.2189,-9.5817,-9.6555,-9.8147,-9.6465,-9.8503,-10.0307,-9.9363,-9.8686,-9.7848,-9.6459,-9.6702,-9.6356,0.0,-9.5132,-9.5845,-9.5846,-9.854,-10.0598,-10.1205,-10.1205,-10.1617,-10.281,-10.0689,-10.0612,-10.3406,-10.4114,-10.4803,-10.5489,-10.7686,-10.8724,-10.8188,-10.9111,-10.9896,-11.0685,-11.052,-11.0709,-11.1328,-11.1268,-11.0613,-10.9224,-10.8682,-10.8024,-10.7213,-10.6718,-10.6486,-10.6405,-10.6409,-10.6369,-10.6405,-10.6405,-10.6405,-10.6482,-10.7102,-10.8184,-10.9412,-10.9992,-11.1107,-11.2411,-11.3416,-11.419,-11.4812,-11.5128,-11.5398,-11.5586,-11.5978,-11.5781,-11.5725,-11.588,-11.5797,-11.5609,-11.5389,-11.4499,-11.4113,-11.5199,-11.4503,-11.3884,-11.4499,-11.5076,-11.5294,-11.4577,-11.5483,-11.6395,-11.6706,-11.6801,-11.6817,-11.679,-11.6118,-11.56,-11.5612,-11.6501,-11.7291,-11.7975,-11.8499,-11.9396,-12.0604,-12.111,-12.1695,-12.2396,-12.2903,-12.3212,-12.3293,-12.3293,-12.388,-12.5099,-12.5187,-12.5314]}]]